[[{"header":{"parameterUnit":"m.s-1","parameterCategory":1,"la1":31.0,"la2":29.5877,"lo1":-88.7671,"lo2":-86.6584,"dy":0.0162,"dx":0.0185,"nx":115,"ny":88,"refTime":"2023-08-30T06:00:00:Z","depth":0,"parameterNumber":2,"parameterNumberName":"U-component_of_WINDS"},"data":[0.0,0.0,0.0,0.0,0.0,0.0,0.0,0.0,0.0,0.0,0.0,0.0,0.0,0.0,0.0,0.0,0.0,0.0,0.0,0.0,0.0,0.0,0.0,0.0,0.0,0.0,0.0,0.0,0.0,0.0,0.0,0.0,0.0,0.0,0.0,0.0,0.0,0.0,0.0,0.0,0.0,0.0,0.0,0.0,0.0,0.0,0.0,0.0,0.0,0.0,0.0,0.0,0.0,0.0,0.0,0.0,0.0,0.0,0.0,0.0,0.0,0.0,0.0,0.0,0.0,0.0,0.0,0.0,0.0,0.0,0.0,0.0,0.0,0.0,0.0,0.0,0.0,0.0,0.0,0.0,0.0,0.0,0.0,0.0,0.0,0.0,0.0,0.0,0.0,0.0,0.0,0.0,0.0,0.0,0.0,0.0,0.0,0.0,0.0,0.0,0.0,0.0,0.0,0.0,0.0,0.0,0.0,0.0,0.0,0.0,0.0,0.0,0.0,0.0,0.0,0.0,0.0,0.0,0.0,0.0,0.0,0.0,0.0,0.0,0.0,0.0,0.0,0.0,0.0,0.0,0.0,0.0,0.0,0.0,0.0,0.0,0.0,0.0,0.0,0.0,0.0,0.0,0.0,0.0,0.0,0.0,0.0,0.0,0.0,0.0,0.0,0.0,0.0,0.0,0.0,0.0,0.0,0.0,0.0,0.0,0.0,0.0,0.0,0.0,0.0,0.0,0.0,0.0,0.0,0.0,0.0,0.0,0.0,0.0,0.0,0.0,0.0,0.0,0.0,0.0,0.0,0.0,0.0,0.0,0.0,0.0,0.0,0.0,0.0,0.0,0.0,0.0,0.0,0.0,0.0,0.0,0.0,0.0,0.0,0.0,0.0,0.0,0.0,0.0,0.0,0.0,0.0,0.0,0.0,0.0,0.0,0.0,0.0,0.0,0.0,0.0,0.0,0.0,0.0,0.0,0.0,0.0,0.0,0.0,0.0,0.0,0.0,0.0,0.0,0.0,0.0,0.0,0.0,0.0,0.0,0.0,0.0,0.0,0.0,0.0,0.0,0.0,0.0,0.0,0.0,0.0,0.0,0.0,0.0,0.0,0.0,0.0,0.0,0.0,0.0,0.0,0.0,0.0,0.0,0.0,0.0,0.0,0.0,0.0,0.0,0.0,0.0,0.0,0.0,0.0,0.0,0.0,0.0,0.0,0.0,0.0,0.0,0.0,0.0,0.0,0.0,0.0,0.0,0.0,0.0,0.0,0.0,0.0,0.0,0.0,0.0,0.0,0.0,0.0,0.0,0.0,0.0,0.0,0.0,0.0,0.0,0.0,0.0,0.0,0.0,0.0,0.0,0.0,0.0,0.0,0.0,0.0,0.0,0.0,0.0,0.0,0.0,0.0,0.0,0.0,0.0,0.0,0.0,0.0,0.0,0.0,0.0,0.0,0.0,0.0,0.0,0.0,0.0,0.0,0.0,0.0,0.0,0.0,0.0,0.0,0.0,0.0,0.0,0.0,0.0,0.0,0.0,0.0,0.0,0.0,0.0,0.0,0.0,0.0,0.0,0.0,0.0,0.0,0.0,0.0,0.0,0.0,0.0,0.0,0.0,0.0,0.0,0.0,0.0,0.0,0.0,0.0,0.0,0.0,0.0,0.0,0.0,0.0,0.0,0.0,0.0,0.0,0.0,0.0,0.0,0.0,0.0,0.0,0.0,0.0,0.0,0.0,0.0,0.0,0.0,0.0,0.0,0.0,0.0,0.0,0.0,0.0,0.0,0.0,0.0,0.0,0.0,0.0,0.0,0.0,0.0,0.0,0.0,0.0,0.0,0.0,0.0,0.0,0.0,0.0,0.0,0.0,0.0,0.0,0.0,0.0,0.0,0.0,0.0,0.0,0.0,0.0,0.0,0.0,0.0,0.0,0.0,0.0,0.0,0.0,0.0,0.0,0.0,0.0,0.0,0.0,0.0,0.0,0.0,0.0,0.0,0.0,0.0,0.0,0.0,0.0,0.0,0.0,0.0,0.0,0.0,0.0,0.0,0.0,0.0,0.0,0.0,0.0,0.0,0.0,0.0,0.0,0.0,0.0,0.0,0.0,0.0,0.0,0.0,0.0,0.0,0.0,0.0,0.0,0.0,0.0,0.0,0.0,0.0,0.0,0.0,0.0,0.0,0.0,0.0,0.0,0.0,0.0,0.0,0.0,0.0,0.0,0.0,0.0,0.0,0.0,0.0,0.0,0.0,0.0,0.0,0.0,0.0,0.0,0.0,0.0,0.0,0.0,0.0,0.0,0.0,0.0,0.0,0.0,0.0,0.0,0.0,0.0,0.0,0.0,0.0,0.0,0.0,0.0,0.0,0.0,0.0,0.0,0.0,0.0,0.0,0.0,0.0,0.0,0.0,0.0,0.0,0.0,0.0,0.0,0.0,0.0,0.0,0.0,0.0,0.0,0.0,0.0,0.0,0.0,0.0,0.0,0.0,0.0,0.0,0.0,0.0,0.0,0.0,0.0,0.0,0.0,0.0,0.0,0.0,0.0,0.0,0.0,0.0,0.0,0.0,0.0,0.0,0.0,0.0,0.0,0.0,0.0,0.0,0.0,0.0,0.0,0.0,0.0,0.0,0.0,0.0,0.0,0.0,0.0,0.0,0.0,0.0,0.0,0.0,0.0,0.0,0.0,0.0,0.0,0.0,0.0,0.0,0.0,0.0,0.0,0.0,0.0,0.0,0.0,0.0,0.0,0.0,0.0,0.0,0.0,0.0,0.0,0.0,0.0,0.0,0.0,0.0,0.0,0.0,0.0,0.0,0.0,0.0,0.0,0.0,0.0,0.0,0.0,0.0,0.0,0.0,0.0,0.0,0.0,0.0,0.0,0.0,0.0,0.0,0.0,0.0,0.0,0.0,0.0,0.0,0.0,0.0,0.0,0.0,0.0,0.0,0.0,0.0,0.0,0.0,0.0,0.0,0.0,0.0,0.0,0.0,0.0,0.0,0.0,0.0,0.0,0.0,0.0,0.0,0.0,0.0,0.0,0.0,0.0,0.0,0.0,0.0,0.0,0.0,0.0,0.0,0.0,0.0,0.0,0.0,0.0,0.0,0.0,0.0,0.0,0.0,0.0,0.0,0.0,0.0,0.0,0.0,0.0,0.0,0.0,0.0,0.0,0.0,0.0,0.0,0.0,0.0,0.0,0.0,0.0,0.0,0.0,0.0,0.0,0.0,0.0,0.0,0.0,0.0,0.0,0.0,0.0,0.0,0.0,0.0,0.0,0.0,0.0,0.0,0.0,0.0,0.0,0.0,0.0,0.0,0.0,0.0,0.0,0.0,0.0,0.0,0.0,0.0,0.0,0.0,0.0,0.0,0.0,0.0,0.0,0.0,0.0,0.0,0.0,0.0,0.0,0.0,0.0,0.0,0.0,0.0,0.0,0.0,0.0,0.0,0.0,0.0,0.0,0.0,0.0,0.0,0.0,0.0,0.0,0.0,0.0,0.0,0.0,0.0,0.0,0.0,0.0,0.0,0.0,0.0,0.0,0.0,0.0,0.0,0.0,0.0,0.0,0.0,0.0,0.0,0.0,0.0,0.0,0.0,0.0,0.0,0.0,0.0,0.0,0.0,0.0,0.0,0.0,0.0,0.0,0.0,0.0,0.0,0.0,0.0,0.0,0.0,0.0,0.0,0.0,0.0,0.0,0.0,0.0,0.0,0.0,0.0,0.0,0.0,0.0,0.0,0.0,0.0,0.0,0.0,0.0,0.0,0.0,0.0,0.0,0.0,0.0,0.0,0.0,0.0,0.0,0.0,0.0,0.0,0.0,0.0,0.0,0.0,0.0,0.0,0.0,0.0,0.0,0.0,0.0,0.0,0.0,0.0,0.0,0.0,0.0,0.0,0.0,0.0,0.0,0.0,0.0,0.0,0.0,0.0,0.0,0.0,0.0,0.0,0.0,0.0,0.0,0.0,0.0,0.0,0.0,0.0,0.0,0.0,0.0,0.0,0.0,0.0,0.0,0.0,0.0,0.0,0.0,0.0,0.0,0.0,0.0,0.0,0.0,0.0,0.0,0.0,0.0,0.0,0.0,0.0,0.0,0.0,0.0,0.0,0.0,0.0,0.0,0.0,0.0,0.0,0.0,0.0,0.0,0.0,0.0,0.0,0.0,0.0,0.0,0.0,0.0,0.0,0.0,0.0,0.0,0.0,0.0,0.0,0.0,0.0,0.0,0.0,0.0,0.0,0.0,0.0,0.0,0.0,0.0,-1.8678,0.0,0.0,0.0,0.0,0.0,0.0,0.0,0.0,0.0,0.0,0.0,0.0,0.0,0.0,0.0,0.0,0.0,0.0,0.0,0.0,0.0,0.0,0.0,0.0,0.0,0.0,0.0,0.0,0.0,0.0,0.0,0.0,0.0,0.0,0.0,0.0,0.0,0.0,0.0,0.0,0.0,0.0,0.0,0.0,0.0,0.0,0.0,0.0,0.0,0.0,0.0,0.0,0.0,0.0,0.0,0.0,0.0,0.0,0.0,0.0,0.0,0.0,0.0,0.0,0.0,0.0,0.0,0.0,0.0,0.0,0.0,0.0,0.0,0.0,0.0,0.0,0.0,0.0,0.0,0.0,0.0,0.0,0.0,0.0,0.0,0.0,0.0,0.0,0.0,0.0,0.0,0.0,0.0,0.0,0.0,0.0,0.0,0.0,0.0,0.0,0.0,0.0,0.0,0.0,0.0,0.0,0.0,0.0,0.0,0.0,-2.0089,-2.0566,-1.9638,-1.9353,-1.9805,0.0,0.0,0.0,0.0,0.0,0.0,0.0,0.0,0.0,0.0,0.0,0.0,0.0,0.0,0.0,0.0,0.0,0.0,0.0,0.0,0.0,0.0,0.0,0.0,0.0,0.0,0.0,0.0,0.0,0.0,0.0,0.0,0.0,0.0,0.0,0.0,0.0,0.0,0.0,0.0,0.0,0.0,0.0,0.0,0.0,0.0,0.0,0.0,0.0,0.0,0.0,0.0,0.0,0.0,0.0,0.0,0.0,0.0,0.0,0.0,0.0,0.0,0.0,0.0,0.0,0.0,0.0,0.0,0.0,0.0,0.0,0.0,0.0,0.0,0.0,0.0,0.0,0.0,0.0,0.0,0.0,0.0,0.0,0.0,0.0,0.0,0.0,0.0,0.0,0.0,0.0,0.0,0.0,0.0,0.0,0.0,0.0,0.0,0.0,0.0,0.0,0.0,0.0,0.0,0.0,0.0,0.0,0.0,0.0,0.0,0.0,0.0,-2.127,-2.1155,-2.0895,0.0,0.0,0.0,0.0,0.0,0.0,0.0,0.0,0.0,0.0,0.0,0.0,0.0,0.0,0.0,0.0,0.0,0.0,0.0,0.0,0.0,0.0,0.0,0.0,0.0,0.0,0.0,0.0,0.0,0.0,0.0,0.0,0.0,0.0,0.0,0.0,0.0,0.0,0.0,0.0,0.0,0.0,0.0,0.0,0.0,0.0,0.0,0.0,0.0,0.0,0.0,0.0,0.0,0.0,0.0,0.0,0.0,0.0,0.0,0.0,0.0,0.0,0.0,0.0,0.0,0.0,0.0,0.0,0.0,0.0,0.0,0.0,0.0,0.0,0.0,0.0,0.0,0.0,0.0,0.0,0.0,0.0,0.0,0.0,0.0,0.0,0.0,0.0,0.0,0.0,0.0,0.0,0.0,0.0,0.0,0.0,0.0,0.0,0.0,0.0,0.0,0.0,0.0,0.0,0.0,0.0,0.0,0.0,0.0,0.0,-2.322,-2.322,-2.322,0.0,-2.1914,0.0,0.0,0.0,0.0,0.0,0.0,0.0,0.0,0.0,0.0,0.0,0.0,0.0,0.0,0.0,0.0,0.0,0.0,0.0,0.0,0.0,0.0,0.0,0.0,0.0,0.0,0.0,0.0,0.0,0.0,0.0,0.0,0.0,0.0,0.0,0.0,0.0,0.0,0.0,0.0,0.0,0.0,0.0,0.0,0.0,0.0,0.0,0.0,0.0,0.0,0.0,0.0,0.0,0.0,0.0,0.0,0.0,0.0,0.0,0.0,0.0,0.0,0.0,0.0,0.0,0.0,0.0,0.0,0.0,0.0,0.0,0.0,0.0,0.0,0.0,0.0,0.0,0.0,0.0,0.0,0.0,0.0,0.0,0.0,0.0,0.0,0.0,0.0,0.0,0.0,0.0,0.0,0.0,0.0,0.0,0.0,0.0,0.0,0.0,0.0,0.0,0.0,0.0,0.0,0.0,0.0,0.0,0.0,0.0,0.0,-2.3478,-2.3478,-2.3478,-2.3294,0.0,0.0,0.0,0.0,0.0,0.0,0.0,0.0,0.0,0.0,0.0,0.0,0.0,0.0,0.0,0.0,0.0,0.0,0.0,0.0,0.0,0.0,0.0,0.0,0.0,0.0,0.0,0.0,0.0,0.0,0.0,0.0,0.0,0.0,0.0,0.0,0.0,0.0,0.0,0.0,0.0,0.0,0.0,0.0,0.0,0.0,0.0,0.0,0.0,0.0,0.0,0.0,0.0,0.0,0.0,0.0,0.0,0.0,0.0,0.0,0.0,0.0,0.0,0.0,0.0,0.0,0.0,0.0,0.0,0.0,0.0,0.0,0.0,0.0,0.0,0.0,0.0,0.0,0.0,0.0,0.0,0.0,0.0,0.0,0.0,0.0,0.0,0.0,0.0,0.0,0.0,0.0,0.0,0.0,0.0,0.0,0.0,0.0,0.0,0.0,0.0,0.0,0.0,0.0,0.0,0.0,0.0,0.0,0.0,0.0,-2.4325,-2.4325,-2.4325,-2.4072,-2.3927,-2.3938,0.0,0.0,0.0,0.0,0.0,0.0,0.0,0.0,0.0,0.0,0.0,0.0,0.0,0.0,0.0,0.0,0.0,0.0,0.0,0.0,0.0,0.0,0.0,0.0,0.0,0.0,0.0,0.0,0.0,0.0,0.0,0.0,0.0,0.0,0.0,0.0,0.0,0.0,0.0,0.0,0.0,0.0,0.0,0.0,0.0,0.0,0.0,0.0,0.0,0.0,0.0,0.0,0.0,0.0,0.0,0.0,0.0,0.0,0.0,0.0,0.0,0.0,0.0,0.0,0.0,0.0,0.0,0.0,0.0,0.0,0.0,0.0,0.0,0.0,0.0,0.0,0.0,0.0,0.0,0.0,0.0,0.0,0.0,0.0,0.0,0.0,0.0,0.0,0.0,0.0,0.0,0.0,0.0,0.0,0.0,0.0,0.0,0.0,0.0,0.0,0.0,0.0,0.0,0.0,0.0,0.0,0.0,0.0,-2.6302,-2.6336,-2.6383,-2.6336,-2.5476,-2.4933,0.0,0.0,0.0,0.0,0.0,0.0,0.0,0.0,0.0,0.0,0.0,0.0,0.0,0.0,0.0,0.0,0.0,0.0,0.0,0.0,0.0,0.0,0.0,0.0,0.0,0.0,0.0,0.0,0.0,0.0,0.0,0.0,0.0,0.0,0.0,0.0,0.0,0.0,0.0,0.0,0.0,0.0,0.0,0.0,0.0,0.0,0.0,0.0,0.0,0.0,0.0,0.0,0.0,0.0,0.0,0.0,0.0,0.0,0.0,0.0,0.0,0.0,0.0,0.0,0.0,0.0,0.0,0.0,0.0,0.0,0.0,0.0,0.0,0.0,0.0,0.0,0.0,0.0,0.0,0.0,0.0,0.0,0.0,0.0,0.0,0.0,0.0,0.0,0.0,0.0,0.0,0.0,0.0,0.0,0.0,0.0,0.0,0.0,0.0,0.0,0.0,0.0,0.0,0.0,0.0,0.0,0.0,0.0,0.0,-2.7263,-2.7822,-2.8117,-2.8084,-2.7749,-2.7319,0.0,0.0,0.0,0.0,0.0,0.0,0.0,0.0,0.0,0.0,0.0,0.0,0.0,0.0,0.0,0.0,0.0,0.0,0.0,0.0,0.0,0.0,0.0,0.0,0.0,0.0,0.0,0.0,0.0,0.0,0.0,0.0,0.0,0.0,0.0,0.0,0.0,0.0,0.0,0.0,0.0,0.0,0.0,0.0,0.0,0.0,0.0,0.0,0.0,0.0,0.0,0.0,0.0,0.0,0.0,0.0,0.0,0.0,0.0,0.0,0.0,0.0,0.0,0.0,0.0,0.0,0.0,0.0,0.0,0.0,0.0,0.0,0.0,0.0,0.0,0.0,0.0,0.0,0.0,0.0,0.0,0.0,0.0,0.0,0.0,0.0,0.0,0.0,0.0,0.0,0.0,0.0,0.0,0.0,0.0,0.0,0.0,0.0,0.0,0.0,0.0,0.0,0.0,0.0,0.0,0.0,0.0,0.0,0.0,-2.843,0.0,-2.9099,-2.931,-2.9099,-2.8798,0.0,0.0,0.0,0.0,0.0,0.0,0.0,0.0,0.0,0.0,0.0,0.0,0.0,0.0,0.0,0.0,0.0,0.0,0.0,0.0,0.0,0.0,0.0,0.0,0.0,0.0,0.0,0.0,0.0,0.0,0.0,0.0,0.0,0.0,0.0,0.0,0.0,0.0,0.0,0.0,0.0,0.0,0.0,0.0,0.0,0.0,0.0,0.0,0.0,0.0,0.0,0.0,0.0,0.0,0.0,0.0,0.0,0.0,0.0,0.0,0.0,0.0,0.0,0.0,0.0,0.0,0.0,0.0,0.0,0.0,0.0,0.0,0.0,0.0,0.0,0.0,0.0,0.0,0.0,0.0,0.0,0.0,0.0,0.0,0.0,0.0,0.0,0.0,0.0,0.0,0.0,0.0,0.0,0.0,0.0,0.0,0.0,0.0,0.0,0.0,0.0,0.0,0.0,0.0,0.0,0.0,0.0,0.0,-2.9201,-2.9951,-2.9457,-2.9507,-2.9989,-2.9475,-2.9402,0.0,0.0,0.0,0.0,0.0,0.0,0.0,0.0,0.0,0.0,0.0,0.0,0.0,0.0,0.0,0.0,0.0,0.0,0.0,0.0,0.0,0.0,0.0,0.0,0.0,0.0,0.0,0.0,0.0,0.0,0.0,0.0,0.0,0.0,0.0,0.0,0.0,0.0,0.0,0.0,0.0,0.0,0.0,0.0,0.0,0.0,0.0,0.0,0.0,0.0,0.0,0.0,0.0,0.0,0.0,0.0,0.0,0.0,0.0,0.0,0.0,0.0,0.0,0.0,0.0,0.0,0.0,0.0,0.0,0.0,0.0,0.0,0.0,0.0,0.0,0.0,0.0,0.0,0.0,0.0,0.0,0.0,0.0,0.0,0.0,0.0,0.0,0.0,0.0,0.0,0.0,0.0,0.0,0.0,0.0,0.0,0.0,0.0,0.0,0.0,0.0,0.0,0.0,0.0,0.0,0.0,0.0,0.0,0.0,-3.1532,-3.1886,-3.1977,-3.1743,-3.1962,-3.1496,0.0,0.0,0.0,0.0,0.0,0.0,0.0,0.0,0.0,0.0,0.0,0.0,0.0,0.0,0.0,0.0,0.0,0.0,0.0,0.0,0.0,0.0,0.0,0.0,0.0,0.0,0.0,0.0,0.0,0.0,0.0,0.0,0.0,0.0,0.0,0.0,0.0,0.0,0.0,0.0,0.0,0.0,0.0,0.0,0.0,0.0,0.0,0.0,0.0,0.0,0.0,0.0,0.0,0.0,0.0,0.0,0.0,0.0,0.0,0.0,0.0,0.0,0.0,0.0,0.0,0.0,0.0,0.0,0.0,0.0,0.0,0.0,0.0,0.0,0.0,0.0,0.0,0.0,0.0,0.0,0.0,0.0,0.0,0.0,0.0,0.0,0.0,0.0,0.0,0.0,0.0,0.0,0.0,0.0,0.0,0.0,0.0,0.0,0.0,0.0,0.0,0.0,0.0,0.0,0.0,0.0,0.0,0.0,0.0,-3.3862,-3.3616,-3.341,-3.326,-3.341,-3.3001,-3.192,0.0,0.0,0.0,0.0,0.0,0.0,0.0,0.0,0.0,0.0,0.0,0.0,0.0,0.0,0.0,0.0,0.0,0.0,0.0,0.0,0.0,0.0,0.0,0.0,0.0,0.0,0.0,0.0,0.0,0.0,0.0,0.0,0.0,0.0,0.0,0.0,0.0,0.0,0.0,0.0,0.0,0.0,0.0,0.0,0.0,0.0,0.0,0.0,0.0,0.0,0.0,0.0,0.0,0.0,0.0,0.0,0.0,0.0,0.0,0.0,0.0,0.0,0.0,0.0,0.0,0.0,0.0,0.0,0.0,0.0,0.0,0.0,0.0,0.0,0.0,0.0,0.0,0.0,0.0,0.0,0.0,0.0,0.0,0.0,0.0,0.0,0.0,0.0,0.0,0.0,0.0,0.0,0.0,0.0,0.0,0.0,0.0,0.0,0.0,0.0,0.0,0.0,0.0,0.0,0.0,0.0,0.0,0.0,-3.6584,-3.4698,-3.3966,-3.4538,-3.4058,-3.3936,0.0,0.0,0.0,0.0,0.0,0.0,0.0,0.0,0.0,0.0,0.0,0.0,0.0,0.0,0.0,0.0,0.0,0.0,0.0,0.0,0.0,0.0,0.0,0.0,0.0,0.0,0.0,0.0,0.0,0.0,0.0,0.0,0.0,0.0,0.0,0.0,0.0,0.0,0.0,0.0,0.0,0.0,0.0,0.0,0.0,0.0,0.0,0.0,0.0,0.0,0.0,0.0,0.0,0.0,0.0,0.0,0.0,0.0,0.0,0.0,0.0,0.0,0.0,0.0,0.0,0.0,0.0,0.0,0.0,0.0,0.0,0.0,0.0,0.0,0.0,0.0,0.0,0.0,0.0,0.0,0.0,0.0,0.0,0.0,0.0,0.0,0.0,0.0,0.0,0.0,0.0,0.0,0.0,0.0,0.0,0.0,0.0,0.0,0.0,0.0,0.0,0.0,0.0,0.0,0.0,0.0,0.0,0.0,0.0,-3.6538,-3.6061,-3.5646,-3.5338,-3.6187,-3.5746,0.0,0.0,0.0,0.0,0.0,0.0,0.0,0.0,0.0,0.0,0.0,0.0,0.0,0.0,0.0,0.0,0.0,0.0,0.0,0.0,0.0,0.0,0.0,0.0,0.0,0.0,0.0,0.0,0.0,0.0,0.0,0.0,0.0,0.0,0.0,0.0,0.0,0.0,0.0,0.0,0.0,0.0,0.0,0.0,0.0,0.0,0.0,0.0,0.0,0.0,0.0,0.0,0.0,0.0,0.0,0.0,0.0,0.0,0.0,0.0,0.0,0.0,0.0,0.0,0.0,0.0,0.0,0.0,0.0,0.0,0.0,0.0,0.0,0.0,0.0,0.0,0.0,0.0,0.0,0.0,0.0,0.0,0.0,0.0,0.0,0.0,0.0,0.0,0.0,0.0,0.0,0.0,0.0,0.0,0.0,0.0,0.0,0.0,0.0,0.0,0.0,0.0,0.0,0.0,0.0,0.0,0.0,0.0,-3.6006,-3.7054,-3.7114,-3.7058,-3.6995,-3.7189,-3.653,0.0,0.0,0.0,0.0,0.0,0.0,0.0,0.0,0.0,0.0,0.0,0.0,0.0,0.0,0.0,0.0,0.0,0.0,0.0,0.0,0.0,0.0,0.0,0.0,0.0,0.0,0.0,0.0,0.0,0.0,0.0,0.0,0.0,0.0,0.0,0.0,0.0,0.0,0.0,0.0,0.0,0.0,0.0,0.0,0.0,0.0,0.0,0.0,0.0,0.0,0.0,0.0,0.0,0.0,0.0,0.0,0.0,0.0,0.0,0.0,0.0,0.0,0.0,0.0,0.0,0.0,0.0,0.0,0.0,0.0,0.0,0.0,0.0,0.0,0.0,0.0,0.0,0.0,0.0,0.0,0.0,0.0,0.0,0.0,0.0,0.0,0.0,0.0,0.0,0.0,0.0,0.0,0.0,0.0,0.0,0.0,0.0,0.0,0.0,0.0,0.0,0.0,0.0,0.0,0.0,0.0,0.0,0.0,-3.6305,-3.7764,-3.7863,-3.8246,-3.8951,-3.77,-3.6888,0.0,0.0,0.0,0.0,0.0,0.0,0.0,0.0,0.0,0.0,0.0,0.0,0.0,0.0,0.0,0.0,0.0,0.0,0.0,0.0,0.0,0.0,0.0,0.0,0.0,0.0,0.0,0.0,0.0,0.0,0.0,0.0,0.0,0.0,0.0,0.0,0.0,0.0,0.0,0.0,0.0,0.0,0.0,0.0,0.0,0.0,0.0,0.0,0.0,0.0,0.0,0.0,0.0,0.0,0.0,0.0,0.0,0.0,0.0,0.0,0.0,0.0,0.0,0.0,0.0,0.0,0.0,0.0,0.0,0.0,0.0,0.0,0.0,0.0,0.0,0.0,0.0,0.0,0.0,0.0,0.0,0.0,0.0,0.0,0.0,0.0,0.0,0.0,0.0,0.0,0.0,0.0,0.0,0.0,0.0,0.0,0.0,0.0,0.0,0.0,0.0,0.0,0.0,0.0,0.0,0.0,0.0,0.0,-3.6828,-3.7764,-3.8374,-3.9032,-3.9825,-3.9532,-3.8789,0.0,0.0,0.0,0.0,0.0,0.0,0.0,0.0,0.0,0.0,0.0,0.0,0.0,0.0,0.0,0.0,0.0,0.0,0.0,0.0,0.0,0.0,0.0,0.0,0.0,0.0,0.0,0.0,0.0,0.0,0.0,0.0,0.0,0.0,0.0,0.0,0.0,0.0,0.0,0.0,0.0,0.0,0.0,0.0,0.0,0.0,0.0,0.0,-2.0449,0.0,0.0,0.0,0.0,0.0,0.0,0.0,0.0,0.0,0.0,0.0,0.0,0.0,0.0,0.0,0.0,0.0,0.0,0.0,0.0,0.0,0.0,0.0,0.0,0.0,0.0,0.0,0.0,0.0,0.0,0.0,0.0,0.0,0.0,0.0,0.0,0.0,0.0,0.0,0.0,0.0,0.0,0.0,0.0,0.0,0.0,0.0,0.0,0.0,0.0,0.0,0.0,0.0,0.0,0.0,0.0,0.0,0.0,0.0,-3.6994,-3.7777,-3.8525,-3.9113,-3.9532,-3.9516,-3.8995,0.0,0.0,0.0,0.0,0.0,0.0,0.0,0.0,0.0,0.0,0.0,0.0,0.0,0.0,0.0,0.0,0.0,0.0,0.0,0.0,0.0,0.0,0.0,0.0,0.0,0.0,0.0,0.0,0.0,0.0,0.0,0.0,0.0,0.0,0.0,0.0,0.0,0.0,0.0,0.0,0.0,0.0,0.0,0.0,0.0,0.0,0.0,0.0,0.0,0.0,0.0,0.0,0.0,0.0,0.0,0.0,0.0,0.0,0.0,0.0,0.0,0.0,0.0,0.0,0.0,0.0,0.0,0.0,0.0,0.0,0.0,0.0,0.0,0.0,0.0,0.0,0.0,0.0,0.0,0.0,0.0,0.0,0.0,0.0,0.0,0.0,0.0,0.0,0.0,0.0,0.0,0.0,0.0,0.0,0.0,0.0,0.0,0.0,0.0,0.0,0.0,0.0,0.0,0.0,0.0,0.0,0.0,-3.6228,-3.6994,-3.7793,-3.8541,-3.8924,-3.8924,-3.8799,-3.8386,-3.7632,0.0,0.0,0.0,0.0,0.0,0.0,0.0,0.0,0.0,0.0,0.0,0.0,0.0,0.0,0.0,0.0,0.0,0.0,0.0,0.0,0.0,0.0,0.0,0.0,0.0,0.0,0.0,0.0,0.0,0.0,0.0,0.0,0.0,0.0,0.0,0.0,0.0,0.0,-2.5748,-2.5915,0.0,0.0,0.0,0.0,0.0,0.0,0.0,0.0,-2.3221,0.0,0.0,0.0,0.0,0.0,0.0,0.0,0.0,0.0,0.0,0.0,0.0,0.0,0.0,0.0,0.0,0.0,0.0,0.0,0.0,0.0,0.0,0.0,0.0,0.0,0.0,0.0,0.0,0.0,0.0,0.0,0.0,0.0,0.0,0.0,0.0,0.0,0.0,0.0,0.0,0.0,0.0,0.0,0.0,0.0,0.0,0.0,0.0,0.0,0.0,0.0,0.0,0.0,0.0,0.0,0.0,-3.5489,-3.6228,-3.698,-3.7777,-3.8525,-3.8924,-3.8897,-3.8302,-3.7632,-3.6843,0.0,0.0,0.0,0.0,0.0,0.0,0.0,0.0,0.0,0.0,0.0,0.0,0.0,0.0,0.0,0.0,0.0,0.0,0.0,0.0,0.0,0.0,0.0,0.0,0.0,0.0,0.0,0.0,0.0,0.0,0.0,0.0,0.0,0.0,0.0,0.0,0.0,0.0,0.0,-2.9066,-2.9028,0.0,0.0,0.0,0.0,0.0,0.0,0.0,0.0,-2.3383,0.0,0.0,0.0,0.0,0.0,0.0,0.0,0.0,0.0,0.0,0.0,0.0,0.0,0.0,0.0,0.0,0.0,0.0,0.0,0.0,0.0,0.0,0.0,0.0,0.0,0.0,0.0,0.0,0.0,0.0,0.0,0.0,0.0,0.0,0.0,0.0,0.0,0.0,0.0,0.0,0.0,0.0,0.0,0.0,0.0,0.0,0.0,0.0,0.0,0.0,0.0,0.0,0.0,0.0,0.0,-3.5522,-3.6228,-3.6783,-3.7174,-3.7933,-3.8133,-3.7729,-3.7336,-3.6814,0.0,0.0,0.0,0.0,0.0,0.0,0.0,0.0,0.0,0.0,0.0,0.0,0.0,0.0,0.0,0.0,0.0,0.0,0.0,0.0,0.0,0.0,0.0,0.0,0.0,0.0,0.0,0.0,0.0,0.0,0.0,0.0,0.0,0.0,0.0,0.0,0.0,0.0,0.0,0.0,-2.9779,-2.9779,-2.9779,0.0,0.0,0.0,0.0,0.0,0.0,-2.5775,-2.4651,0.0,0.0,0.0,0.0,0.0,0.0,0.0,0.0,0.0,0.0,0.0,0.0,0.0,0.0,0.0,0.0,0.0,0.0,0.0,0.0,0.0,0.0,0.0,0.0,0.0,0.0,0.0,0.0,0.0,0.0,0.0,0.0,0.0,0.0,0.0,0.0,0.0,0.0,0.0,0.0,0.0,0.0,0.0,0.0,0.0,0.0,0.0,0.0,0.0,0.0,0.0,0.0,0.0,0.0,0.0,-3.5504,-3.6086,-3.6446,-3.6615,-3.7219,-3.7233,-3.663,-3.66,-3.6244,0.0,0.0,0.0,0.0,0.0,0.0,0.0,0.0,0.0,0.0,0.0,0.0,0.0,0.0,0.0,0.0,0.0,0.0,0.0,0.0,0.0,0.0,0.0,0.0,0.0,0.0,0.0,0.0,0.0,0.0,0.0,0.0,0.0,0.0,0.0,0.0,0.0,0.0,0.0,0.0,0.0,-2.9829,-2.9942,-2.9955,0.0,0.0,0.0,0.0,-2.9114,-2.7594,0.0,0.0,0.0,0.0,0.0,0.0,0.0,0.0,0.0,0.0,0.0,0.0,0.0,0.0,0.0,0.0,0.0,0.0,0.0,0.0,0.0,0.0,0.0,0.0,0.0,0.0,0.0,0.0,0.0,0.0,0.0,0.0,0.0,0.0,0.0,0.0,0.0,0.0,0.0,0.0,0.0,0.0,0.0,0.0,0.0,0.0,0.0,0.0,0.0,0.0,0.0,0.0,0.0,0.0,0.0,0.0,-3.5472,-3.5602,-3.5943,-3.6569,-3.6707,-3.6707,-3.66,-3.66,-3.6259,0.0,0.0,0.0,0.0,0.0,0.0,0.0,0.0,0.0,0.0,0.0,0.0,0.0,0.0,0.0,0.0,0.0,0.0,0.0,0.0,0.0,0.0,0.0,0.0,0.0,0.0,0.0,0.0,0.0,0.0,0.0,0.0,0.0,0.0,0.0,0.0,0.0,0.0,0.0,0.0,0.0,-2.9967,-3.0457,-3.052,-3.0683,0.0,0.0,-3.0244,-2.9779,-2.9038,0.0,0.0,0.0,0.0,0.0,0.0,0.0,0.0,0.0,0.0,0.0,0.0,0.0,0.0,0.0,0.0,0.0,0.0,0.0,0.0,0.0,0.0,0.0,0.0,0.0,0.0,0.0,0.0,0.0,0.0,0.0,0.0,0.0,0.0,0.0,0.0,0.0,0.0,0.0,0.0,0.0,0.0,0.0,0.0,0.0,0.0,0.0,0.0,0.0,0.0,0.0,0.0,0.0,0.0,0.0,-3.3973,-3.5407,-3.4953,-3.5088,-3.5943,-3.5975,-3.5975,-3.5959,-3.5959,-3.5846,0.0,0.0,0.0,0.0,0.0,0.0,0.0,0.0,0.0,0.0,0.0,0.0,0.0,0.0,0.0,0.0,0.0,0.0,0.0,0.0,0.0,0.0,0.0,0.0,0.0,0.0,0.0,0.0,0.0,0.0,0.0,0.0,0.0,0.0,0.0,0.0,0.0,0.0,0.0,0.0,0.0,0.0,-3.057,-3.0871,0.0,0.0,0.0,-3.0532,-3.0294,0.0,0.0,0.0,0.0,0.0,0.0,0.0,0.0,0.0,0.0,0.0,0.0,0.0,0.0,0.0,0.0,0.0,0.0,0.0,0.0,0.0,0.0,0.0,0.0,0.0,0.0,0.0,0.0,0.0,0.0,0.0,0.0,0.0,0.0,0.0,0.0,0.0,0.0,0.0,0.0,0.0,0.0,0.0,0.0,0.0,0.0,0.0,0.0,0.0,0.0,0.0,0.0,0.0,0.0,0.0,0.0,0.0,-3.4691,-3.4027,-3.4007,-3.4739,-3.5001,-3.5034,-3.4773,-3.4986,0.0,0.0,0.0,0.0,0.0,0.0,0.0,0.0,0.0,0.0,0.0,0.0,0.0,0.0,0.0,0.0,0.0,0.0,0.0,0.0,0.0,0.0,0.0,0.0,0.0,0.0,0.0,-2.3101,0.0,0.0,0.0,0.0,0.0,0.0,0.0,0.0,0.0,0.0,0.0,0.0,0.0,0.0,-3.0668,-3.0984,-3.1348,-3.165,0.0,0.0,-3.0972,-3.0834,-2.9953,-2.9073,0.0,0.0,0.0,0.0,0.0,0.0,0.0,0.0,0.0,0.0,0.0,0.0,0.0,0.0,0.0,0.0,0.0,0.0,0.0,0.0,0.0,0.0,0.0,0.0,0.0,0.0,0.0,0.0,0.0,0.0,0.0,0.0,0.0,0.0,0.0,0.0,0.0,0.0,0.0,0.0,0.0,0.0,0.0,0.0,0.0,0.0,0.0,0.0,0.0,0.0,0.0,0.0,0.0,0.0,-3.1779,-3.2749,-3.2713,-3.2763,-3.282,-3.3636,-3.3671,-3.2855,-3.3636,-3.4109,0.0,0.0,0.0,0.0,0.0,0.0,0.0,0.0,0.0,0.0,0.0,0.0,0.0,0.0,0.0,0.0,0.0,0.0,0.0,0.0,0.0,0.0,0.0,0.0,0.0,0.0,0.0,0.0,0.0,0.0,0.0,0.0,0.0,0.0,0.0,0.0,0.0,0.0,0.0,0.0,0.0,-3.0984,-3.1964,-3.2139,-3.2353,0.0,-3.2478,-3.1926,-3.1411,-3.0871,-3.0279,-2.9739,0.0,0.0,0.0,0.0,0.0,0.0,0.0,0.0,0.0,0.0,0.0,0.0,0.0,0.0,0.0,0.0,0.0,0.0,0.0,0.0,0.0,0.0,0.0,0.0,0.0,0.0,0.0,0.0,0.0,0.0,0.0,0.0,0.0,0.0,0.0,0.0,0.0,0.0,0.0,0.0,0.0,0.0,0.0,0.0,0.0,0.0,0.0,0.0,0.0,0.0,0.0,0.0,0.0,-3.1767,-3.3592,-3.3019,-3.3019,-3.3629,-3.3996,-3.401,-3.3666,-3.3642,-3.3626,0.0,0.0,0.0,0.0,0.0,0.0,0.0,0.0,0.0,0.0,0.0,0.0,0.0,0.0,0.0,0.0,0.0,0.0,0.0,0.0,0.0,0.0,0.0,0.0,0.0,0.0,0.0,0.0,-2.3101,-2.3101,-2.3101,0.0,0.0,0.0,0.0,0.0,0.0,0.0,0.0,0.0,0.0,-3.088,-3.2026,-3.2516,0.0,0.0,-3.2579,-3.2139,-3.1926,-3.1173,-3.0545,-3.0331,-2.9829,0.0,0.0,0.0,0.0,0.0,0.0,0.0,0.0,0.0,0.0,0.0,0.0,0.0,0.0,0.0,0.0,0.0,0.0,0.0,0.0,0.0,0.0,0.0,0.0,0.0,0.0,0.0,0.0,0.0,0.0,0.0,0.0,0.0,0.0,0.0,0.0,0.0,0.0,0.0,0.0,0.0,0.0,0.0,0.0,0.0,0.0,0.0,0.0,0.0,0.0,0.0,0.0,-3.1703,-3.3415,-3.2752,-3.2725,-3.3428,-3.3684,-3.3723,-3.3453,-3.329,-3.321,0.0,0.0,0.0,0.0,0.0,0.0,0.0,0.0,0.0,0.0,0.0,0.0,0.0,0.0,0.0,0.0,0.0,0.0,0.0,0.0,0.0,0.0,0.0,0.0,0.0,0.0,0.0,0.0,-2.3101,-2.3101,-2.3101,0.0,0.0,0.0,0.0,0.0,0.0,0.0,0.0,0.0,0.0,-3.0426,-3.1958,-3.2364,-3.2717,-3.3251,-3.2842,-3.2416,-3.224,-3.1587,-3.0957,-3.067,0.0,0.0,0.0,0.0,0.0,0.0,0.0,0.0,0.0,0.0,0.0,0.0,0.0,0.0,0.0,0.0,0.0,0.0,0.0,0.0,0.0,0.0,0.0,0.0,0.0,0.0,0.0,0.0,0.0,0.0,-2.582,0.0,0.0,0.0,0.0,0.0,0.0,0.0,0.0,0.0,0.0,0.0,0.0,0.0,0.0,0.0,0.0,0.0,0.0,0.0,0.0,0.0,0.0,-3.1427,-3.1493,-3.1518,-3.1505,-3.1562,-3.2382,-3.2448,-3.1627,-3.2369,-3.2804,-3.2791,0.0,0.0,0.0,0.0,0.0,0.0,0.0,0.0,0.0,0.0,0.0,0.0,0.0,0.0,0.0,0.0,0.0,0.0,0.0,0.0,0.0,0.0,0.0,0.0,0.0,0.0,-2.313,-2.311,-2.312,0.0,0.0,0.0,0.0,0.0,0.0,0.0,0.0,0.0,0.0,-2.8612,-2.9476,-3.1739,-3.16,-3.1813,-3.3507,-3.3351,-3.2812,-3.2231,-3.2148,-3.1825,0.0,0.0,0.0,0.0,0.0,0.0,0.0,0.0,0.0,0.0,0.0,0.0,0.0,0.0,0.0,0.0,0.0,0.0,0.0,0.0,0.0,0.0,0.0,0.0,0.0,0.0,0.0,-2.5684,-2.5684,0.0,0.0,0.0,0.0,0.0,0.0,0.0,0.0,0.0,0.0,0.0,-2.6877,-2.5952,0.0,0.0,0.0,0.0,0.0,0.0,0.0,0.0,0.0,0.0,0.0,0.0,-3.2127,-3.2491,-3.2516,-3.2516,-3.2558,-3.2827,-3.2869,-3.2546,-3.2447,-3.2217,-3.1901,0.0,0.0,0.0,0.0,0.0,0.0,0.0,0.0,0.0,0.0,0.0,0.0,0.0,0.0,0.0,0.0,0.0,0.0,0.0,0.0,0.0,0.0,0.0,0.0,0.0,-2.3984,0.0,0.0,0.0,0.0,0.0,0.0,0.0,0.0,0.0,0.0,0.0,-2.5773,-2.7246,-2.775,-2.8623,-3.0465,-3.032,-3.0308,0.0,0.0,0.0,0.0,0.0,0.0,0.0,0.0,0.0,0.0,0.0,0.0,0.0,0.0,-2.5088,-2.493,-2.4738,-2.4626,-2.4637,0.0,0.0,0.0,0.0,0.0,0.0,0.0,0.0,0.0,0.0,0.0,0.0,0.0,0.0,-2.5684,0.0,-2.5684,0.0,0.0,0.0,0.0,0.0,0.0,0.0,0.0,-2.5684,-2.5684,-2.5684,-2.5684,-2.5684,0.0,-2.5684,-2.5765,0.0,0.0,0.0,0.0,0.0,0.0,0.0,0.0,-3.1426,-3.1777,-3.1845,-3.2021,-3.2426,-3.2426,-3.2655,-3.3068,-3.2295,-3.1473,-3.0694,-2.9765,-2.964,0.0,0.0,0.0,0.0,0.0,0.0,0.0,0.0,0.0,0.0,0.0,0.0,0.0,0.0,0.0,0.0,0.0,0.0,0.0,0.0,0.0,0.0,0.0,-2.4424,0.0,0.0,0.0,0.0,0.0,0.0,0.0,0.0,0.0,-2.4268,-2.4853,-2.5686,-2.6625,-2.7129,-2.7987,-2.9671,0.0,0.0,0.0,0.0,0.0,0.0,0.0,-2.9983,-2.9808,-3.011,-3.0248,-2.9687,-2.8692,-2.7964,-2.7964,0.0,0.0,-2.5998,-2.5789,-2.5751,-2.6145,-2.6701,-2.715,-2.7113,-2.7619,-2.8109,0.0,0.0,0.0,0.0,0.0,0.0,0.0,0.0,-2.5586,-2.5537,0.0,-2.5508,0.0,0.0,0.0,0.0,0.0,-2.5586,0.0,0.0,-2.5684,-2.5684,-2.5684,-2.5684,-2.5684,-2.5684,-2.5684,-2.5674,-2.5761,-2.6972,0.0,0.0,0.0,0.0,0.0,0.0,-2.9396,-2.9453,-2.9442,-3.0,-3.1078,-3.1134,-3.1733,-3.2853,-3.1777,-3.0608,-2.9465,-2.8891,-2.8612,-2.8645,-2.7988,0.0,0.0,0.0,0.0,0.0,0.0,0.0,0.0,0.0,0.0,0.0,0.0,0.0,0.0,0.0,0.0,0.0,0.0,0.0,0.0,-2.4443,0.0,0.0,0.0,0.0,0.0,0.0,0.0,0.0,0.0,0.0,-2.5194,-2.5498,-2.5869,-2.6388,0.0,0.0,0.0,0.0,-2.9197,-3.0537,-3.0248,-2.9689,-2.929,-2.9304,-2.9148,-2.8645,0.0,0.0,-2.7843,-2.7688,-2.7622,-2.7644,-2.7502,-2.7532,-2.7198,-2.6768,-2.6842,-2.7829,-2.8027,-2.8086,-2.8135,-2.8199,-2.8247,-2.7568,0.0,0.0,0.0,0.0,-2.5535,-2.5061,-2.501,-2.3903,-2.3289,-2.3142,-2.3142,0.0,0.0,0.0,0.0,0.0,0.0,-2.4254,-2.4304,-2.5274,-2.5684,-2.5684,-2.5684,-2.5684,-2.5684,-2.5684,-2.5684,-2.5732,-2.6052,-2.6897,-2.8132,0.0,0.0,0.0,0.0,-2.9396,-2.9396,-2.9396,-2.959,-2.9909,-2.9909,-3.009,-3.0463,-3.009,-2.9772,-2.9407,-2.8457,-2.8288,-2.9092,-2.7056,0.0,0.0,0.0,0.0,0.0,0.0,0.0,0.0,0.0,0.0,0.0,0.0,0.0,0.0,0.0,0.0,0.0,0.0,0.0,-2.5284,-2.5068,-2.501,0.0,0.0,0.0,0.0,0.0,0.0,0.0,0.0,0.0,-2.6416,-2.6309,-2.6357,0.0,0.0,-2.7322,-2.8159,-2.7622,-2.7332,-2.8035,-2.7435,0.0,-2.6764,-2.7542,-2.8053,-2.7914,-2.828,-2.8533,-2.8344,-2.7379,-2.654,-2.6551,-2.5868,-2.5451,-2.5915,-2.6496,-2.726,-2.8283,-2.8325,-2.8395,-2.9099,-2.9315,-2.9302,-2.6215,-2.5819,-2.6858,-2.7275,-2.7143,-2.5528,-2.4812,-2.4708,-2.3174,-2.2421,-2.2269,-2.2269,-2.2199,-2.202,-2.1888,0.0,0.0,0.0,-2.2926,-2.2918,-2.3732,-2.4097,-2.4097,-2.4097,-2.4402,-2.4913,-2.4922,-2.5177,-2.5684,-2.5684,-2.611,-2.6849,0.0,0.0,-2.7945,-2.7945,-2.7945,-2.7945,-2.7934,-2.8179,-2.868,-2.9131,-2.9177,-2.8727,-2.8691,-2.8459,-2.7934,-2.721,-2.7163,-2.784,-2.631,-2.5646,0.0,0.0,0.0,0.0,0.0,0.0,0.0,0.0,0.0,0.0,0.0,-2.4668,-2.4678,0.0,0.0,0.0,-2.5322,-2.5439,-2.5664,-2.4986,0.0,0.0,0.0,0.0,0.0,0.0,0.0,-2.482,-2.4847,-2.5045,-2.5429,-2.5801,-2.633,-2.7185,-2.7422,-2.7617,-2.7881,0.0,-2.6924,-2.7012,-2.6435,-2.5928,-2.5771,-2.6342,-2.6849,-2.6849,-2.7181,-2.7437,-2.7427,-2.6558,-2.595,-2.5837,-2.5252,-2.4822,-2.5219,-2.5597,-2.6227,-2.761,-2.8027,-2.8359,-2.9015,-2.9495,-2.9779,-2.3822,-2.4019,-2.6382,-2.739,-2.7237,-2.5336,-2.4535,-2.443,-2.2885,-2.2234,-2.2202,-2.2202,-2.2194,-2.2138,-2.1937,0.0,-2.1428,-2.153,-2.1573,-2.1599,-2.1692,-2.1726,-2.1693,-2.1693,-2.2366,-2.3534,-2.3642,-2.4353,-2.5489,-2.5635,-2.5684,-2.5684,-2.5684,-2.5684,-2.5684,-2.5732,-2.5684,-2.5684,-2.5732,-2.6294,-2.7447,-2.853,-2.8588,-2.7494,-2.7447,-2.6897,-2.5791,-2.5684,-2.5684,-2.5684,-2.5684,-2.5684,-2.5684,0.0,0.0,0.0,0.0,0.0,0.0,0.0,0.0,0.0,0.0,0.0,0.0,0.0,0.0,0.0,-2.5459,0.0,-2.5429,-2.4347,0.0,0.0,0.0,-2.2236,-2.2441,-2.2474,-2.2499,-2.2577,0.0,0.0,-2.3184,-2.4412,-2.5824,-2.7213,-2.7941,-2.8301,-2.8301,-2.7924,-2.7471,-2.707,-2.6621,-2.6182,-2.5752,-2.5781,-2.583,-2.582,-2.5684,-2.58,-2.58,-2.58,-2.5723,-2.5644,-2.5332,-2.5047,-2.5018,-2.4385,-2.4299,-2.5917,-2.7046,-2.7804,-2.7976,-2.8688,-2.9287,-2.3822,-2.3877,-2.4459,-2.4755,-2.4581,-2.3045,-2.2346,-2.2243,-2.0756,-1.9963,-1.9745,-1.9738,-1.9674,-1.9456,-1.9379,-1.9301,-1.9285,-2.0329,-2.0658,-2.0527,-2.151,-2.1923,-2.1702,-2.1693,-2.1853,-2.2206,-2.3226,-2.384,-2.4205,-2.5226,-2.5684,-2.5684,-2.5684,-2.5684,-2.5684,-2.5684,-2.5684,-2.5684,-2.5684,-2.583,-2.6159,-2.6428,-2.6428,-2.6159,-2.6149,-2.6014,-2.5732,-2.5684,-2.5684,-2.5684,-2.5684,-2.5684,-2.5684,-2.5684,0.0,0.0,0.0,0.0,0.0,0.0,0.0,0.0,0.0,-2.5576,-2.5576,0.0,-2.5274,0.0,-2.3408,-2.3023,-2.3253,-2.2965,0.0,0.0,-2.2625,-2.2437,-2.2474,-2.2474,-2.2642,-2.2974,-2.2999,-2.3193,-2.3593,-2.3975,-2.4298,-2.47,-2.6779,-2.8301,-2.8271,-2.7637,-2.7139,-2.6973,-2.6387,-2.582,-2.5713,-2.5684,-2.5684,-2.5684,-2.5684,-2.5684,-2.5684,-2.5684,-2.5625,-2.5303,-2.5204,-2.4881,-2.4238,-2.3916,-2.3767,-2.3964,-2.4787,-2.587,-2.6678,-2.7139,-2.7302,-2.182,-2.1828,-2.1828,-2.1828,-2.182,-2.1643,-2.1586,-2.1472,-2.0033,-1.9279,-1.9125,-1.9125,-1.8958,-1.8691,-1.8684,-1.8611,-1.8546,-1.9284,-1.9514,-1.9398,-1.9997,-2.0182,-2.0045,-1.9946,-2.0179,-2.0786,-2.1507,-2.2215,-2.2818,-2.3534,-2.3939,-2.3949,-2.451,-2.4815,-2.4815,-2.5382,-2.5684,-2.5684,-2.5684,-2.5684,-2.5684,-2.5684,-2.5684,-2.5684,-2.5684,-2.5684,-2.5684,-2.5684,-2.5684,-2.5684,-2.5684,-2.5684,-2.5684,-2.5128,-2.4805,0.0,0.0,0.0,0.0,0.0,0.0,0.0,0.0,0.0,0.0,0.0,-2.3833,-2.322,-2.2589,-2.2323,-2.2466,-2.2001,-2.1626,-2.1783,-2.1261,-2.0953,-2.1095,-2.111,-2.1241,-2.1477,-2.15,-2.1624,-2.1798,-2.2435,-2.2814,-2.287,-2.4829,-2.6554,-2.7201,-2.7122,-2.7012,-2.6982,-2.6249,-2.5684,-2.5684,-2.5684,-2.5684,-2.5684,-2.5684,-2.5684,-2.5674,-2.5518,-2.5352,-2.5155,-2.4812,-2.4411,-2.3887,-2.3613,-2.3408,-2.3266,-2.3594,-2.4425,-2.5504,-2.6141,-2.6483,-1.9424,-1.9424,-1.9424,-1.9424,-1.9475,-2.0759,-2.1309,-2.1259,-1.9982,-1.9424,-1.9424,-1.9424,-1.9225,-1.8985,-1.8985,-1.8838,-1.8604,-1.8604,-1.8584,-1.8531,-1.8237,-1.8029,-1.7975,-1.7729,-1.8199,-1.9324,-1.9524,-2.0238,-2.1448,-2.1592,-2.1693,-2.1744,-2.2868,-2.3434,-2.3484,-2.4609,-2.5382,-2.5684,-2.5684,-2.5684,-2.5684,-2.5684,-2.5684,-2.5684,-2.5684,-2.5684,-2.5684,-2.5684,-2.5635,-2.543,-2.544,-2.5372,-2.5177,-2.4097,-2.3434,0.0,-2.2366,0.0,0.0,0.0,0.0,0.0,0.0,0.0,0.0,-2.1805,-2.2014,-2.2247,-2.2127,-2.2027,-2.2083,-2.1061,-2.0476,-2.0628,-1.9688,-1.9085,-1.939,-1.9424,-1.9424,-1.9424,-1.9424,-1.9424,-1.9591,-2.0529,-2.1309,-2.1422,-2.2653,-2.4011,-2.5175,-2.6092,-2.6615,-2.6679,-2.6101,-2.5684,-2.5684,-2.5684,-2.5684,-2.5684,-2.5684,-2.5684,-2.5684,-2.5381,-2.5096,-2.4969,-2.4401,-2.3818,-2.373,-2.3354,-2.312,-2.3101,-2.3178,-2.3507,-2.4382,-2.5263,-2.6016,-1.9424,-1.9424,-1.9424,-1.9424,-1.9424,-1.9707,-1.9815,-1.9815,-1.9533,-1.9424,-1.9424,-1.9424,-1.9332,-1.9285,-1.9285,-1.931,-1.9205,-1.9205,-1.9072,-1.8831,-1.8544,-1.8277,-1.7982,-1.7729,-1.7733,-1.8042,-1.9072,-1.9731,-2.0033,-2.1143,-2.1693,-2.1693,-2.1954,-2.2106,-2.2106,0.0,0.0,0.0,-2.5684,-2.5684,-2.5684,-2.5684,-2.5684,-2.5684,-2.5684,0.0,-2.5684,-2.5684,-2.5226,-2.4146,-2.4097,0.0,0.0,0.0,0.0,0.0,0.0,0.0,0.0,0.0,0.0,0.0,-2.0655,-2.1126,-2.1906,-2.1274,-2.0915,-2.1123,-2.0199,-1.9709,-1.996,-1.9752,-1.9614,-1.9662,-1.9452,-1.9363,-1.9424,-1.9424,-1.9424,-1.9424,-1.9424,-1.9424,-1.9424,-1.9649,-1.9815,-1.9982,-2.1088,-2.1918,-2.2031,-2.3924,-2.5076,-2.49,-2.5157,-2.5586,-2.5684,-2.5577,-2.5479,-2.5684,-2.5684,-2.5684,-2.5635,-2.5352,-2.4969,-2.4609,-2.4131,-2.3662,-2.3296,-2.314,-2.3101,-2.3101,-2.3101,-2.3135,-2.3396,-2.3604,-2.3724,-1.9424,0.0,-1.9424,-1.9424,0.0,-1.9424,-1.9424,-1.9424,-1.9424,-1.9424,-1.9424,-1.9424,-1.9424,-1.9424,-1.9424,-1.9424,-1.9424,-1.9424,-1.9285,-1.9118,-1.8691,-1.841,-1.825,-1.7802,-1.7589,-1.7635,-1.8304,-1.8603,-1.8655,-1.9317,-1.9672,-1.9672,-2.0326,-2.0641,-2.0684,-2.1347,-2.2366,-2.3683,-2.3741,-2.4048,-2.4658,-2.4716,-2.503,-2.5635,-2.5069,0.0,0.0,0.0,0.0,0.0,0.0,0.0,0.0,-2.1041,0.0,-2.0641,-2.0025,-1.9664,-1.9672,-1.9784,-1.9633,-1.9131,-1.932,-1.9811,-2.0458,-2.001,-1.985,-2.0097,-1.9526,-1.9199,-1.9403,-1.9424,-1.9424,-1.9424,-1.9424,-1.9424,-1.9424,-1.9424,-1.9424,-1.9424,-1.9424,-1.9424,-1.9424,-1.9424,-1.9424,-1.941,-1.9844,-2.0196,-2.0113,-2.2059,-2.3565,-2.3107,-2.3376,-2.3692,-2.3741,-2.3741,-2.4048,-2.451,-2.4716,-2.4925,-2.5343,-2.5039,-2.4609,-2.418,-2.376,-2.3389,-2.3169,-2.3101,-2.3101,-2.3101,-2.3101,-2.3101,-2.3101,-2.3101,-2.3023,-1.9424,-1.9424,-1.9424,-1.9424,-1.9424,-1.9424,-1.9424,-1.9424,0.0,0.0,0.0,-1.9424,-1.9424,-1.9424,-1.9424,-1.9424,-1.9424,-1.9424,-1.9424,-1.9339,-1.8764,-1.8497,-1.8464,-1.7869,-1.7589,-1.7589,-1.7589,-1.7589,-1.7589,-1.7589,-1.7589,-1.7687,-1.8708,-1.9272,-1.9324,-2.0385,-2.099,-2.099,-2.1448,-2.2206,-2.3276,-2.3326,-2.3899,-2.4971,-2.3939,-2.3335,-2.3335,-2.2307,-2.1592,-2.1347,-2.1347,-2.1245,-2.0939,-1.9878,-1.9265,-1.9228,-1.8254,-1.7662,-1.7675,-1.7956,-1.8095,-1.8142,-1.8698,-1.8998,-1.9005,-1.9005,-1.9105,-1.9345,-1.9424,-1.9424,-1.9424,-1.9424,-1.9424,-1.9424,-1.9424,-1.9424,-1.9424,-1.9424,-1.9424,-1.9424,-1.9424,-1.9424,-1.9424,-1.9424,-1.9339,-1.9272,-1.9142,-1.8784,-1.8809,-2.0557,-2.2042,-2.1893,-2.2013,-2.1845,-2.1744,-2.1853,-2.2165,-2.3176,-2.3335,-2.3686,-2.4345,-2.4163,-2.3706,-2.3479,-2.3108,-2.2779,-2.2775,-2.295,-2.3091,-2.3101,-2.3101,-2.3101,-2.3101,-2.3101,-2.2964,-1.9424,-1.9424,-1.9424,-1.9424,-1.9424,-1.9424,-1.9424,-1.9424,-1.9424,-1.9424,-1.9424,-1.9424,-1.9424,-1.9424,-1.9424,-1.9424,-1.9424,-1.9424,-1.9424,-1.939,-1.8764,-1.8497,-1.8457,-1.7862,-1.7589,-1.7589,-1.7589,-1.7589,-1.7589,-1.7589,-1.7589,-1.7635,-1.7786,-1.7891,-1.7891,-1.8094,-1.8192,-1.8244,-2.0538,-2.1803,-2.1954,-2.2005,-2.2055,-2.2265,-2.2106,-2.2005,-2.1954,-2.1752,-2.1143,-1.9981,-1.9878,-1.9369,-1.8244,-1.8048,-1.7891,-1.7905,-1.7943,-1.7929,-1.7929,-1.8263,-1.8537,-1.8784,-1.9112,-1.9305,-1.9305,-1.9363,-1.9319,-1.9424,-1.9424,-1.9424,-1.9424,-1.9424,-1.9424,-1.9424,-1.9424,-1.9424,-1.9424,-1.9424,-1.9424,-1.9424,-1.9424,-1.9366,-1.9397,-1.9403,-1.9239,-1.9045,-1.8891,-1.8655,-1.8421,-1.9173,-2.0465,-2.1414,-2.1693,-2.1693,-2.1389,-2.1643,-2.1643,-2.1904,-2.1954,-2.2271,-2.3105,-2.2258,-2.1681,-2.2116,-2.1843,-2.1606,-2.1569,-2.2448,-2.2775,-2.2818,-2.2775,-2.2872,-2.2906,-2.2994,-2.2935,-1.9424,-1.9424,-1.9424,-1.9424,-1.9424,-1.9424,-1.9424,-1.9424,-1.9424,-1.9424,-1.9424,-1.9424,-1.9424,-1.9424,-1.9424,-1.9424,-1.9424,-1.9424,-1.9424,-1.9383,-1.8764,-1.8497,-1.843,-1.7876,-1.7589,-1.7589,-1.7589,-1.7589,-1.7589,-1.7589,-1.7589,-1.7589,-1.7589,-1.7589,-1.7589,-1.7589,-1.7589,-1.7635,-1.8805,-1.9826,-2.0538,-2.059,-2.0888,-2.1651,-2.099,-2.0531,-2.0538,-1.9878,-1.9161,-1.8551,-1.8506,-1.8251,-1.7635,-1.7749,-1.7829,-1.7842,-1.8116,-1.8283,-1.8283,-1.8564,-1.8851,-1.9138,-1.9285,-1.9424,-1.9424,-1.9424,-1.9424,-1.9424,-1.9424,-1.9424,-1.9424,-1.9424,-1.9424,-1.9424,-1.9424,-1.9424,-1.9424,-1.9424,-1.9424,-1.9424,-1.9424,-1.9363,-1.9145,-1.9125,-1.9018,-1.8738,-1.8571,-1.8283,-1.7869,-1.8204,-1.8753,-1.931,-1.9465,-1.9465,-1.9524,-1.9465,-1.9775,-2.0385,-2.0538,-2.0859,-2.1504,-2.0942,-2.0688,-2.0609,-2.0462,-2.0367,-2.0305,-2.0711,-2.1078,-2.1177,-2.1132,-2.1311,-2.1889,-2.2427,-2.2613,-1.9424,-1.9424,-1.9424,-1.9424,-1.9424,-1.9424,-1.9424,-1.9424,-1.9424,-1.9424,-1.9424,-1.9424,-1.9424,-1.9424,-1.9424,-1.9424,-1.9424,-1.9424,-1.9424,-1.937,-1.8831,-1.8557,-1.8437,-1.7929,-1.7655,-1.7595,-1.7589,-1.7589,-1.7589,-1.7589,-1.7589,-1.7589,-1.7589,-1.7589,-1.7589,-1.7589,-1.7589,-1.7589,-1.7589,-1.8094,-1.9117,-1.9169,-1.9672,-2.0582,-1.9723,-1.9176,-1.9117,-1.8146,-1.7589,-1.7589,-1.7649,-1.7689,-1.7702,-1.7976,-1.8089,-1.817,-1.8424,-1.8617,-1.8691,-1.8891,-1.9125,-1.9403,-1.9424,-1.9424,-1.9424,-1.9424,-1.9424,-1.9424,-1.9424,-1.9424,-1.9424,-1.9424,-1.9424,-1.9424,-1.9424,-1.9424,-1.9424,-1.9424,-1.9325,-1.9292,-1.9265,-1.9145,-1.8911,-1.8824,-1.8704,-1.843,-1.813,-1.7842,-1.7635,-1.7589,-1.7589,-1.7589,-1.7589,-1.774,-1.7589,-1.7687,-1.8146,-1.9065,-1.9096,-1.9406,-1.984,-1.991,-1.9614,-1.9124,-1.9101,-1.9085,-1.9093,-1.9451,-1.9633,-1.977,-1.9815,-1.9951,-2.0702,-2.1505,-2.2044,-1.9424,-1.9424,-1.9424,-1.9424,-1.9424,-1.9424,-1.9424,-1.9424,-1.9424,-1.9424,-1.9424,-1.9424,-1.9424,-1.9424,-1.9424,-1.9424,-1.9424,-1.9424,-1.9424,-1.939,-1.9032,-1.8744,-1.8497,-1.815,-1.7856,-1.7622,-1.7595,-1.7589,-1.7589,-1.7589,-1.7589,-1.7589,-1.7589,-1.7589,-1.7589,-1.7589,-1.7589,-1.7589,-1.7589,-1.7635,-1.774,-1.7786,-1.7832,-1.7943,-1.7891,-1.7786,-1.7845,-1.7687,-1.7589,-1.7609,-1.7856,-1.7949,-1.7982,-1.829,-1.845,-1.8457,-1.8724,-1.8998,-1.9245,-1.9312,-1.9383,-1.9417,-1.9424,-1.9424,-1.9424,-1.9424,-1.9424,-1.9424,-1.9424,-1.9424,-1.9424,-1.9424,-1.9424,-1.9424,-1.9424,-1.9424,-1.9424,-1.9424,-1.9265,-1.8991,-1.8985,-1.8851,-1.8597,-1.8504,-1.839,-1.8069,-1.7862,-1.7662,-1.7609,-1.7589,-1.7589,-1.7589,-1.7589,-1.7589,-1.7589,-1.7589,-1.774,-1.7871,-1.7615,-1.7934,-1.835,-1.7784,-1.6904,-1.7858,-1.7863,-1.7863,-1.8095,-1.8688,-1.9306,-1.8993,-1.9131,-1.9497,-1.9728,-2.0359,-2.1007,-1.9424,-1.9424,-1.9424,-1.9424,-1.9424,-1.9424,-1.9424,-1.9424,-1.9424,-1.9424,-1.9424,-1.9424,-1.9424,-1.9424,-1.9424,-1.9424,-1.9424,-1.9424,-1.9424,-1.9397,-1.9058,-1.8858,-1.8711,-1.8209,-1.7922,-1.7842,-1.7675,-1.7589,-1.7589,-1.7589,-1.7589,-1.7589,-1.7589,-1.7589,-1.7589,-1.7589,-1.7589,-1.7589,-1.7589,-1.7589,-1.7589,-1.7589,-1.7589,-1.7589,-1.7589,-1.7589,-1.7589,-1.7589,-1.7662,-1.7842,-1.7929,-1.813,-1.8303,-1.8591,-1.8744,-1.8764,-1.9018,-1.9239,-1.9417,-1.9424,-1.9424,-1.9424,-1.9424,-1.9424,-1.9424,-1.9424,-1.9424,-1.9424,-1.9424,-1.9424,-1.9424,-1.9424,-1.9424,-1.9424,-1.9424,-1.9424,-1.9424,-1.9205,-1.9045,-1.8931,-1.8771,-1.8557,-1.8277,-1.8063,-1.7916,-1.7782,-1.7642,-1.7536,-1.7589,-1.7589,-1.7589,-1.7589,-1.7589,-1.7589,-1.7589,-1.7589,-1.7582,-1.7535,-1.7393,-1.7398,-1.7234,-1.6896,-1.6415,-1.6576,-1.6629,-1.6662,-1.6574,-1.6842,-1.7296,-1.7522,-1.8126,-1.8457,-1.8457,-1.929,-1.998,-1.9424,-1.9424,-1.9424,-1.9424,-1.9424,-1.9424,-1.9424,-1.9424,-1.9424,-1.9424,-1.9424,-1.9424,-1.9424,-1.9424,-1.9424,-1.9424,-1.9424,-1.9424,-1.9424,-1.9403,-1.9145,-1.8998,-1.8878,-1.8448,-1.8149,-1.7982,-1.7829,-1.7669,-1.7602,-1.7589,-1.7589,-1.7589,-1.7589,-1.7589,-1.7589,-1.7589,-1.7629,-1.7702,-1.7709,-1.7742,-1.7822,-1.7829,-1.7796,-1.7729,-1.7789,-1.7829,-1.7829,-1.7836,-1.7929,-1.815,-1.8189,-1.8328,-1.8597,-1.8885,-1.9045,-1.9058,-1.9245,-1.9424,-1.9424,-1.9004,-1.8765,-1.8706,-1.8409,-1.811,-1.8175,-1.8473,-1.8525,-1.8052,-1.8467,-1.8823,-1.9366,-1.9424,-1.9424,-1.9424,-1.9424,-1.9397,-1.9245,-1.9038,-1.8865,-1.8648,-1.8477,-1.8257,-1.7909,-1.7416,-1.702,-1.749,-1.7265,-1.7252,-1.7529,-1.7589,-1.7589,-1.7589,-1.7589,-1.7589,-1.7589,-1.7589,-1.7575,-1.7408,-1.7253,-1.6951,-1.6633,-1.6346,-1.6139,-1.613,-1.5879,-1.5872,-1.6062,-1.5967,-1.592,-1.6015,-1.6574,-1.7264,-1.7171,-1.8211,-1.8714,-1.9424,-1.9424,-1.9424,-1.9424,-1.9424,-1.9424,-1.9424,-1.9424,-1.9424,-1.9424,-1.9424,-1.9424,-1.9424,-1.9424,-1.9424,-1.9424,-1.9424,-1.9424,-1.9424,-1.9424,-1.9397,-1.9192,-1.8875,-1.8885,-1.8542,-1.8095,-1.8009,-1.7896,-1.7642,-1.7615,-1.7589,-1.7661,-1.7635,-1.7615,-1.7635,-1.7649,-1.7742,-1.7996,-1.8023,-1.815,-1.8384,-1.843,-1.8303,-1.8049,-1.829,-1.8404,-1.8424,-1.8437,-1.845,-1.8464,-1.8704,-1.8871,-1.8931,-1.9178,-1.9325,-1.9274,-1.9294,-1.9307,-1.9062,-1.7864,-1.7085,-1.6973,-1.5908,-1.496,-1.5375,-1.638,-1.6556,-1.5079,-1.638,-1.7624,-1.8771,-1.8829,-1.8946,-1.9062,-1.9185,-1.9008,-1.8814,-1.84,-1.8539,-1.8038,-1.7655,-1.7404,-1.7391,-1.6346,-1.6227,-1.6658,-1.628,-1.5843,-1.6876,-1.7318,-1.7424,-1.7477,-1.7529,-1.7589,-1.7589,-1.7589,-1.7514,-1.732,-1.7021,-1.6667,-1.6346,-1.6072,-1.5932,-1.5798,-1.5832,-1.5825,-1.5825,-1.5825,-1.5825,-1.5872,-1.5872,-1.6197,-1.6386,-1.7084,-1.7531,-1.9424,-1.9424,-1.9424,-1.9424,-1.9424,-1.9424,-1.9424,-1.9424,-1.9424,-1.9424,-1.9424,-1.9424,-1.9424,-1.9424,-1.9424,-1.9424,-1.9424,-1.9424,-1.9424,-1.9424,-1.9424,-1.9305,-1.9205,-1.9025,-1.8838,-1.8617,-1.8417,-1.8277,-1.8183,-1.8163,-1.8163,-1.8163,-1.8163,-1.8163,-1.8163,-1.817,-1.8223,-1.8317,-1.833,-1.839,-1.851,-1.8671,-1.8655,-1.8555,-1.8524,-1.8497,-1.8497,-1.8497,-1.8577,-1.8758,-1.8871,-1.9011,-1.9192,-1.9305,-1.8887,-1.7981,-1.7864,-1.739,-1.6444,-1.5784,-1.5429,-1.5429,-1.4955,-1.4485,-1.4663,-1.5133,-1.5192,-1.4842,-1.5015,-1.579,-1.609,-1.6332,-1.6326,-1.6326,-1.638,-1.64,-1.6045,-1.5807,-1.5575,-1.5319,-1.5138,-1.492,-1.4976,-1.4395,-1.4288,-1.4663,-1.4395,-1.4395,-1.4824,-1.5577,-1.6174,-1.6387,-1.6988,-1.7589,-1.7589,-1.7589,-1.7488,-1.7194,-1.6914,-1.662,-1.6313,-1.6025,-1.5852,-1.5791,-1.5825,-1.5825,-1.5825,-1.5825,-1.5825,-1.5825,-1.5825,-1.5825,-1.5825,-1.648,-1.6622,-1.9424,-1.9424,-1.9424,-1.9424,-1.9424,-1.9424,-1.9424,-1.9424,-1.9424,-1.9127,-1.87,-1.8642,-1.835,-1.7935,-1.787,-1.787,-1.7994,-1.8887,-1.9424,-1.9424,-1.9424,-1.9424,-1.9397,-1.9158,-1.9011,-1.8891,-1.8631,-1.8497,-1.8497,-1.8497,-1.8497,-1.8484,-1.8497,-1.8497,-1.8497,-1.8497,-1.8524,-1.8597,-1.8624,-1.8671,-1.8784,-1.8971,-1.9072,-1.9045,-1.8871,-1.8778,-1.8778,-1.8778,-1.8858,-1.9038,-1.9065,-1.8922,-1.868,-1.8117,-1.739,-1.6374,-1.6256,-1.5784,-1.4718,-1.4128,-1.3825,-1.377,-1.3287,-1.3053,-1.3053,-1.3526,-1.3591,-1.3292,-1.3591,-1.3706,-1.3168,-1.3053,-1.3467,-1.4307,-1.4604,-1.4473,-1.4257,-1.408,-1.3918,-1.3758,-1.3637,-1.3442,-1.321,-1.2886,-1.294,-1.3156,-1.2945,-1.2729,-1.3318,-1.4019,-1.4722,-1.477,-1.5423,-1.5855,-1.6015,-1.6121,-1.6808,-1.6734,-1.6887,-1.6593,-1.6197,-1.5924,-1.5798,-1.5784,-1.5825,-1.5825,-1.5825,-1.5825,-1.5825,-1.5825,-1.5825,-1.5825,-1.5825,-1.5825,-1.6015,-1.9424,-1.9424,-1.9424,-1.9307,-1.9185,-1.9185,-1.9307,-1.901,-1.9068,-1.8169,-1.7026,-1.6968,-1.6262,-1.5079,-1.5198,-1.4842,-1.5494,-1.7695,-1.8887,-1.8887,-1.9004,-1.9068,-1.9185,-1.9094,-1.9077,-1.8908,-1.8664,-1.8537,-1.8577,-1.8591,-1.8577,-1.8537,-1.8584,-1.8611,-1.8531,-1.8597,-1.8677,-1.8865,-1.8925,-1.9052,-1.9383,-1.9383,-1.9383,-1.939,-1.9363,-1.9234,-1.9261,-1.9312,-1.9241,-1.921,-1.9216,-1.8577,-1.7026,-1.579,-1.4718,-1.4658,-1.4599,-1.454,-1.4242,-1.2933,-1.2153,-1.2037,-1.0838,-1.0301,-1.06,-1.1438,-1.1679,-1.0838,-1.1378,-1.1675,-1.0479,-1.024,-1.1261,-1.383,-1.4004,-1.3839,-1.3691,-1.371,-1.3648,-1.3068,-1.2788,-1.3161,-1.2886,-1.1919,-1.1538,-1.2186,-1.1864,-1.1433,-1.2403,-1.294,-1.3264,-1.3318,-1.3804,-1.4347,-1.4341,-1.4415,-1.5447,-1.6266,-1.6579,-1.658,-1.5994,-1.5635,-1.5594,-1.5588,-1.5778,-1.5825,-1.5825,-1.5825,-1.5825,-1.5825,-1.5825,-1.5825,-1.5825,-1.5825,-1.5825,-1.9424,-1.9424,-1.9424,-1.8765,-1.78,-1.7741,-1.7149,-1.6149,-1.609,-1.5795,-1.5429,-1.537,-1.502,-1.4663,-1.4604,-1.4545,-1.4663,-1.5677,-1.609,-1.609,-1.6144,-1.6797,-1.7624,-1.7741,-1.83,-1.9117,-1.9138,-1.9092,-1.9021,-1.9021,-1.9092,-1.9156,-1.9085,-1.9098,-1.8957,-1.9098,-1.9158,-1.9219,-1.9232,-1.9285,-1.9424,-1.9366,-1.9366,-1.9424,-1.9424,-1.8946,-1.7858,-1.8823,-1.8829,-1.7806,-1.7747,-1.7032,-1.5607,-1.4901,-1.4063,-1.3108,-1.2933,-1.2397,-1.1438,-1.0963,-1.06,-1.0482,-1.0061,-0.9819,-0.9819,-1.024,-1.0361,-0.9822,-1.0301,-1.024,-0.994,-0.9819,-1.0361,-1.1197,-1.1318,-1.1411,-1.1215,-1.0942,-1.0542,-1.0351,-1.0296,-1.0296,-1.0296,-0.9754,-0.997,-1.0296,-0.9966,-1.0025,-1.0347,-1.1319,-1.1751,-1.1805,-1.2403,-1.2886,-1.2935,-1.3071,-1.3745,-1.4623,-1.5198,-1.5569,-1.5219,-1.4949,-1.4956,-1.5296,-1.5534,-1.573,-1.5778,-1.5825,-1.5825,-1.5825,-1.5825,-1.5825,-1.5825,-1.5825,-1.5825,-1.7636,-1.7636,-1.7636,-1.7097,-1.6138,-1.6079,-1.5548,-1.4663,-1.4604,-1.4307,-1.3825,-1.3706,-1.3347,-1.2933,-1.2813,-1.2813,-1.2813,-1.2808,-1.2813,-1.3112,-1.4247,-1.5192,-1.6085,-1.6138,-1.6556,-1.7396,-1.7636,-1.7636,-1.7636,-1.7636,-1.7578,-1.7578,-1.7636,-1.7566,-1.7636,-1.763,-1.7636,-1.7636,-1.7572,-1.7636,-1.7578,-1.7636,-1.7636,-1.7636,-1.7636,-1.7097,-1.6256,-1.7097,-1.7155,-1.6197,-1.5601,-1.4708,-1.377,-1.3112,-1.2333,-1.1619,-1.1257,-1.0842,-0.994,-0.994,-0.9819,-0.9819,-0.9819,-0.9819,-0.9819,-0.9819,-0.9819,-0.9819,-0.9819,-0.9819,-0.9819,-0.9819,-0.9819,-0.9819,-0.994,-0.973,-0.9547,-0.9306,-0.9163,-0.9147,-0.9047,-0.8937,-0.8937,-0.8937,-0.8937,-0.8937,-0.8937,-0.8937,-0.9099,-0.975,-1.0131,-1.0402,-1.0726,-1.116,-1.1529,-1.1787,-1.2043,-1.277,-1.3482,-1.38,-1.379,-1.3468,-1.3349,-1.4316,-1.48,-1.5289,-1.5432,-1.5683,-1.5825,-1.5825,-1.5825,-1.5825,-1.5825,-1.5825,-1.5825,-1.4663,-1.4604,-1.4604,-1.4718,-1.448,-1.4485,-1.4242,-1.4187,-1.4128,-1.3287,-1.2277,-1.2097,-1.1378,-1.0179,-1.0361,-1.0301,-0.9879,-1.0179,-1.0297,-1.0959,-1.2573,-1.4128,-1.4426,-1.4718,-1.5015,-1.5015,-1.496,-1.4901,-1.5138,-1.5138,-1.4604,-1.502,-1.5079,-1.4723,-1.5079,-1.4718,-1.496,-1.5079,-1.4901,-1.496,-1.4901,-1.4842,-1.4842,-1.4901,-1.4955,-1.4837,-1.454,-1.4421,-1.4421,-1.4242,-1.3112,-1.2273,-1.1796,-1.0596,-1.0058,-1.0001,-0.9822,-0.994,-0.9819,-0.9819,-0.9819,-0.9819,-0.9819,-0.9819,-0.9819,-0.9819,-0.9819,-0.9819,-0.9819,-0.9819,-0.9819,-0.9819,-0.9819,-0.9819,-0.9819,-0.97,-0.9442,-0.933,-0.914,-0.9008,-0.895,-0.8937,-0.8937,-0.8937,-0.8937,-0.8937,-0.8937,-0.8937,-0.8937,-0.9154,-0.8992,-0.9265,-0.9644,-0.9805,-1.0288,-1.0446,-1.0728,-1.0918,-1.162,-1.2044,-1.2569,-1.2408,-1.1994,-1.2958,-1.4022,-1.4603,-1.514,-1.5384,-1.5683,-1.5825,-1.5825,-1.5825,-1.5825,-1.5825,-1.5825,-1.4604,-1.4604,-1.4604,-1.3944,-1.2933,-1.2813,-1.2157,-1.114,-1.1137,-1.1016,-1.0479,-1.0418,-1.0301,-0.9822,-0.9819,-0.9819,-0.9819,-0.9819,-0.9819,-0.994,-1.0539,-1.1796,-1.2933,-1.4068,-1.4485,-1.4426,-1.4247,-1.4604,-1.4604,-1.4366,-1.4426,-1.4604,-1.4307,-1.4426,-1.4604,-1.4426,-1.4604,-1.4604,-1.4545,-1.4485,-1.4421,-1.4426,-1.4604,-1.4604,-1.4485,-1.3889,-1.2873,-1.1675,-1.1675,-1.2633,-1.1318,-1.0422,-1.0479,-1.0058,-0.9819,-0.9819,-0.9819,-0.9819,-0.9819,-0.9819,-0.9819,-0.9819,-0.9819,-0.9819,-0.9819,-0.9819,-0.9819,-0.9819,-0.9819,-0.9819,-0.9819,-0.9819,-0.9819,-0.9819,-0.9819,-0.9747,-0.9568,-0.9415,-0.9262,-0.9123,-0.9008,-0.896,-0.894,-0.8937,-0.8937,-0.8937,-0.8937,-0.8937,-0.8937,-0.8937,-0.8937,-0.8937,-0.9154,-0.9047,-0.9071,-0.9193,-0.9259,-0.9233,-0.9711,-1.0289,-1.1126,-1.1809,-1.1312,-1.1263,-1.2716,-1.3542,-1.4364,-1.4949,-1.5289,-1.5534,-1.5778,-1.5778,-1.5778,-1.5825,-1.5825,-1.2573,-1.2569,-1.2573,-1.2037,-1.1257,-1.1197,-1.066,-0.994,-0.9819,-0.9819,-0.9819,-0.9819,-0.9819,-0.9819,-0.9819,-0.9819,-0.9819,-0.9819,-0.9819,-0.9819,-0.9879,-1.0418,-1.1257,-1.2277,-1.2573,-1.2573,-1.2629,-1.2513,-1.2513,-1.2573,-1.2573,-1.2453,-1.2573,-1.2573,-1.2393,-1.2573,-1.2573,-1.2513,-1.2573,-1.2573,-1.2573,-1.2573,-1.2573,-1.2573,-1.2573,-1.2037,-1.1137,-1.0301,-1.0301,-1.0838,-1.0297,-0.9819,-0.9819,-0.9819,-0.9819,-0.9819,-0.9819,-0.9819,-0.9819,-0.9819,-0.9819,-0.9819,-0.9819,-0.9819,-0.9819,-0.9819,-0.9819,-0.9819,-0.9819,-0.9819,-0.9819,-0.9819,-0.9819,-0.9819,-0.9819,-0.9761,-0.9629,-0.9534,-0.9378,-0.9268,-0.9083,-0.8998,-0.8954,-0.8937,-0.8937,-0.8937,-0.8937,-0.8937,-0.8937,-0.8937,-0.8937,-0.8937,-0.8937,-0.8937,-0.8937,-0.8975,-0.8984,-0.8797,-0.8825,-0.9222,-0.9704,-1.073,-1.0444,-1.0297,-1.1507,-1.2522,-1.3253,-1.398,-1.4561,-1.4854,-1.5343,-1.5635,-1.5588,-1.5242,-1.5343,-0.9819,-0.9819,-0.9819,-0.9819,-0.9879,-0.9819,-0.9879,-0.9822,-0.9819,-0.9819,-0.9819,-0.9819,-0.9819,-0.9819,-0.9819,-0.9819,-0.9819,-0.9819,-0.9819,-0.9819,-0.9819,-0.994,-1.0061,-1.024,-1.0361,-1.0301,-0.9879,-1.0061,-1.0361,-1.0179,-0.994,-1.0301,-1.0179,-0.994,-1.0358,-1.0119,-0.9879,-1.0179,-1.0361,-1.0418,-1.0422,-1.0418,-1.0418,-1.0418,-1.0422,-1.0301,-1.0061,-0.9819,-0.9879,-0.9819,-0.9819,-0.9819,-0.9819,-0.9819,-0.9819,-0.9819,-0.9819,-0.9819,-0.9819,-0.9819,-0.9819,-0.9819,-0.9819,-0.9819,-0.9819,-0.9819,-0.9819,-0.9819,-0.9819,-0.9819,-0.9819,-0.9819,-0.9819,-0.9819,-0.9819,-0.9758,-0.9666,-0.9618,-0.9496,-0.9282,-0.9228,-0.9083,-0.8991,-0.8937,-0.8937,-0.8937,-0.8937,-0.8937,-0.8937,-0.8937,-0.8937,-0.8937,-0.8937,-0.8937,-0.8937,-0.8927,-0.8879,-0.8733,-0.8685,-0.8807,-0.8605,-0.9149,-0.9172,-0.9575,-1.0534,-1.1214,-1.1702,-1.2479,-1.3397,-1.3782,-1.4034,-1.4663,-1.5105,-1.4472,-1.4274,-0.9819,-0.9819,-0.9819,-0.9819,-0.9819,-0.9819,-0.9819,-0.9819,-0.9819,-0.9819,-0.9819,-0.9819,-0.9819,-0.9819,-0.9819,-0.9819,-0.9819,-0.9819,-0.9819,-0.9819,-0.9819,-0.9819,-0.9819,-0.9819,-0.9819,-0.9819,-0.9819,-0.9819,-0.9819,-0.9819,-0.9819,-0.9819,-0.9819,-0.9819,-0.9819,-0.9819,-0.9819,-0.9819,-0.9819,-0.9819,-0.9819,-0.9819,-0.9819,-0.9819,-0.9819,-0.9819,-0.9819,-0.9819,-0.9819,-0.9819,-0.9819,-0.9819,-0.9819,-0.9819,-0.9819,-0.9819,-0.9819,-0.9819,-0.9819,-0.9819,-0.9819,-0.9819,-0.9819,-0.9819,-0.9819,-0.9819,-0.9819,-0.9819,-0.9819,-0.9819,-0.9819,-0.9819,-0.9819,-0.9819,-0.9819,-0.9808,-0.9764,-0.968,-0.9537,-0.9374,-0.9286,-0.9156,-0.8967,-0.8888,-0.8885,-0.8937,-0.8937,-0.8937,-0.8937,-0.8937,-0.8937,-0.8937,-0.8937,-0.8937,-0.8937,-0.8933,-0.8876,-0.8808,-0.872,-0.8608,-0.8411,-0.8286,-0.8642,-0.8987,-0.941,-0.9948,-1.0386,-1.1365,-1.2334,-1.2479,-1.2673,-1.3156,-1.3451,-1.321,-1.3307,-0.9819,-0.9819,-0.9819,-0.9819,-0.9819,-0.9819,-0.9819,-0.9819,-0.9819,-0.9819,-0.9819,-0.9819,-0.9819,-0.9819,-0.9819,-0.9819,-0.9819,-0.9819,-0.9819,-0.9819,-0.9819,-0.9819,-0.9819,-0.9819,-0.9819,-0.9819,-0.9819,-0.9819,-0.9819,-0.9819,-0.9819,-0.9819,-0.9819,-0.9819,-0.9819,-0.9819,-0.9819,-0.9819,-0.9819,-0.9819,-0.9819,-0.9819,-0.9819,-0.9819,-0.9819,-0.9819,-0.9819,-0.9819,-0.9819,-0.9819,-0.9819,-0.9819,-0.9819,-0.9819,-0.9819,-0.9819,-0.9819,-0.9819,-0.9819,-0.9819,-0.9819,-0.9819,-0.9819,-0.9819,-0.9819,-0.9819,-0.9819,-0.9819,-0.9819,-0.9819,-0.9819,-0.9819,-0.9819,-0.9819,-0.9819,-0.9819,-0.9808,-0.9751,-0.9652,-0.9503,-0.9361,-0.9272,-0.91,-0.9005,-0.8888,-0.8885,-0.8937,-0.8937,-0.8937,-0.8937,-0.8937,-0.8937,-0.8937,-0.8937,-0.8937,-0.893,-0.8861,-0.8876,-0.8845,-0.8737,-0.8598,-0.8496,-0.8467,-0.8721,-0.8946,-0.8779,-0.9213,-1.0239,-1.1023,-1.1214,-1.1409,-1.1653,-1.1945,-1.2188,-1.2334,-0.9819,-0.9819,-0.9819,-0.9819,-0.9819,-0.9819,-0.9819,-0.9819,-0.9819,-0.9819,-0.9819,-0.9819,-0.9819,-0.9819,-0.9819,-0.9819,-0.9819,-0.9819,-0.9819,-0.9819,-0.9819,-0.9819,-0.9819,-0.9819,-0.9819,-0.9819,-0.9819,-0.9819,-0.9819,-0.9819,-0.9819,-0.9819,-0.9819,-0.9819,-0.9819,-0.9819,-0.9819,-0.9819,-0.9819,-0.9819,-0.9819,-0.9819,-0.9819,-0.9819,-0.9819,-0.9819,-0.9819,-0.9819,-0.9819,-0.9819,-0.9819,-0.9819,-0.9819,-0.9819,-0.9819,-0.9819,-0.9819,-0.9819,-0.9819,-0.9819,-0.9819,-0.9819,-0.9819,-0.9819,-0.9819,-0.9819,-0.9819,-0.9819,-0.9819,-0.9819,-0.9819,-0.9819,-0.9819,-0.9819,-0.9819,-0.9819,-0.9819,-0.9819,-0.9737,-0.9615,-0.9479,-0.9351,-0.9184,-0.9055,-0.8994,-0.8888,-0.8885,-0.8937,-0.8937,-0.8937,-0.8937,-0.8937,-0.8937,-0.8937,-0.8937,-0.8937,-0.8865,-0.8916,-0.8913,-0.8849,-0.8743,-0.8648,-0.8523,-0.8319,-0.8379,-0.8313,-0.835,-0.9118,-0.9653,-0.985,-1.0043,-1.0239,-1.0676,-1.1214,-1.1214,-0.9819,-0.9819,-0.9819,-0.9819,-0.9819,-0.9819,-0.9819,-0.9819,-0.9819,-0.9819,-0.9819,-0.9819,-0.9819,-0.9819,-0.9819,-0.9819,-0.9819,-0.9819,-0.9819,-0.9819,-0.9819,-0.9819,-0.9819,-0.9819,-0.9819,-0.9819,-0.9819,-0.9819,-0.9819,-0.9819,-0.9819,-0.9819,-0.9819,-0.9819,-0.9819,-0.9819,-0.9819,-0.9819,-0.9819,-0.9819,-0.9819,-0.9819,-0.9819,-0.9819,-0.9819,-0.9819,-0.9819,-0.9819,-0.9819,-0.9819,-0.9819,-0.9819,-0.9819,-0.9819,-0.9819,-0.9819,-0.9819,-0.9819,-0.9819,-0.9819,-0.9819,-0.9819,-0.9819,-0.9819,-0.9819,-0.9819,-0.9819,-0.9819,-0.9819,-0.9819,-0.9819,-0.9819,-0.9819,-0.9819,-0.9819,-0.9819,-0.9819,-0.9808,-0.9771,-0.9656,-0.9571,-0.9486,-0.9317,-0.9214,-0.9059,-0.8994,-0.8954,-0.8944,-0.8937,-0.8937,-0.8937,-0.8937,-0.8937,-0.8937,-0.8937,-0.8937,-0.8933,-0.893,-0.8927,-0.8927,-0.8838,-0.876,-0.8618,-0.8438,-0.8279,-0.8231,-0.8374,-0.8464,-0.8528,-0.8871,-0.8871,-0.8821,-0.9262,-0.9702,-0.9312,-0.9819,-0.9819,-0.9819,-0.9819,-0.9819,-0.9819,-0.9819,-0.9819,-0.9819,-0.9819,-0.9819,-0.9819,-0.9819,-0.9819,-0.9819,-0.9819,-0.9819,-0.9819,-0.9819,-0.9819,-0.9819,-0.9819,-0.9819,-0.9819,-0.9819,-0.9819,-0.9819,-0.9819,-0.9819,-0.9819,-0.9819,-0.9819,-0.9819,-0.9819,-0.9819,-0.9819,-0.9819,-0.9819,-0.9819,-0.9819,-0.9819,-0.9819,-0.9819,-0.9819,-0.9819,-0.9819,-0.9819,-0.9819,-0.9819,-0.9819,-0.9819,-0.9819,-0.9819,-0.9819,-0.9819,-0.9819,-0.9819,-0.9819,-0.9819,-0.9819,-0.9819,-0.9819,-0.9819,-0.9819,-0.9819,-0.9819,-0.9819,-0.9819,-0.9819,-0.9819,-0.9819,-0.9819,-0.9819,-0.9819,-0.9819,-0.9819,-0.9819,-0.9819,-0.9771,-0.9703,-0.9635,-0.9551,-0.9456,-0.93,-0.915,-0.9055,-0.8981,-0.8954,-0.894,-0.8937,-0.8937,-0.8937,-0.8937,-0.8937,-0.8937,-0.8937,-0.8937,-0.8937,-0.8937,-0.8937,-0.8923,-0.8842,-0.8737,-0.8591,-0.8442,-0.8292,-0.8238,-0.8331,-0.8135,-0.7992,-0.8237,-0.8336,-0.8187,-0.8038,-0.7988,-0.9751,-0.9778,-0.9778,-0.9791,-0.9819,-0.9819,-0.9819,-0.9819,-0.9819,-0.9819,-0.9819,-0.9819,-0.9819,-0.9819,-0.9819,-0.9819,-0.9819,-0.9819,-0.9819,-0.9819,-0.9819,-0.9819,-0.9819,-0.9819,-0.9819,-0.9819,-0.9819,-0.9819,-0.9819,-0.9819,-0.9819,-0.9819,-0.9819,-0.9819,-0.9819,-0.9819,-0.9819,-0.9819,-0.9819,-0.9819,-0.9819,-0.9819,-0.9819,-0.9819,-0.9819,-0.9819,-0.9819,-0.9819,-0.9819,-0.9819,-0.9819,-0.9819,-0.9819,-0.9819,-0.9819,-0.9819,-0.9819,-0.9819,-0.9819,-0.9819,-0.9819,-0.9819,-0.9819,-0.9819,-0.9819,-0.9819,-0.9819,-0.9819,-0.9819,-0.9819,-0.9819,-0.9819,-0.9819,-0.9819,-0.9819,-0.9819,-0.9819,-0.9819,-0.9819,-0.9758,-0.9693,-0.9622,-0.9534,-0.9391,-0.9232,-0.9089,-0.9015,-0.895,-0.8937,-0.8937,-0.8937,-0.8937,-0.8937,-0.8937,-0.8937,-0.8937,-0.8937,-0.8937,-0.8937,-0.8937,-0.8937,-0.892,-0.8811,-0.8716,-0.8574,-0.8428,-0.8309,-0.8208,-0.8167,-0.8126,-0.8022,-0.7992,-0.7988,-0.7988,-0.7988,-0.9513,-0.9632,-0.9635,-0.9703,-0.9798,-0.9802,-0.9812,-0.9805,-0.9795,-0.9819,-0.9781,-0.9805,-0.9795,-0.9788,-0.9795,-0.9805,-0.9802,-0.9781,-0.9768,-0.9761,-0.9771,-0.9778,-0.9812,-0.9819,-0.9812,-0.9815,-0.9819,-0.9819,-0.9819,-0.9819,-0.9819,-0.9819,-0.9819,-0.9819,-0.9819,-0.9819,-0.9819,-0.9819,-0.9819,-0.9819,-0.9819,-0.9819,-0.9819,-0.9819,-0.9819,-0.9819,-0.9819,-0.9819,-0.9819,-0.9819,-0.9819,-0.9819,-0.9819,-0.9819,-0.9819,-0.9819,-0.9819,-0.9819,-0.9819,-0.9819,-0.9819,-0.9819,-0.9819,-0.9819,-0.9819,-0.9819,-0.9819,-0.9819,-0.9819,-0.9819,-0.9819,-0.9819,-0.9819,-0.9819,-0.9819,-0.9819,-0.9819,-0.9819,-0.9819,-0.9815,-0.9754,-0.9696,-0.9625,-0.9466,-0.9367,-0.9167,-0.9049,-0.8984,-0.8937,-0.8937,-0.8937,-0.8937,-0.8937,-0.8937,-0.8937,-0.8937,-0.8937,-0.8937,-0.8937,-0.8937,-0.8937,-0.8937,-0.8937,-0.8828,-0.8693,-0.8598,-0.8516,-0.8411,-0.8296,-0.8204,-0.8147,-0.8039,-0.7988,-0.7988,-0.7988,-0.9266,-0.9476,-0.9479,-0.9513,-0.9568,-0.9571,-0.9571,-0.9571,-0.9571,-0.9571,-0.9571,-0.9574,-0.9571,-0.9585,-0.9571,-0.9568,-0.9574,-0.9585,-0.9574,-0.9585,-0.9591,-0.9625,-0.968,-0.9707,-0.9727,-0.9805,-0.9819,-0.9819,-0.9819,-0.9819,-0.9819,-0.9819,-0.9819,-0.9819,-0.9819,-0.9819,-0.9819,-0.9819,-0.9819,-0.9819,-0.9819,-0.9819,-0.9819,-0.9819,-0.9819,-0.9819,-0.9819,-0.9819,-0.9819,-0.9819,-0.9819,-0.9819,-0.9819,-0.9819,-0.9819,-0.9819,-0.9819,-0.9819,-0.9819,-0.9819,-0.9819,-0.9819,-0.9819,-0.9819,-0.9819,-0.9819,-0.9819,-0.9819,-0.9819,-0.9819,-0.9819,-0.9819,-0.9819,-0.9819,-0.9819,-0.9819,-0.9819,-0.9819,-0.9819,-0.9819,-0.9815,-0.9758,-0.9703,-0.9598,-0.9449,-0.9306,-0.9154,-0.9035,-0.8977,-0.8937,-0.8937,-0.8937,-0.8937,-0.8937,-0.8937,-0.8937,-0.8937,-0.8937,-0.8937,-0.8937,-0.8937,-0.8937,-0.8937,-0.8937,-0.8849,-0.8771,-0.871,-0.8567,-0.8401,-0.8303,-0.8218,-0.816,-0.8056,-0.7988,-0.7988,-0.9069,-0.9269,-0.931,-0.9344,-0.9381,-0.9381,-0.9388,-0.9384,-0.9391,-0.9388,-0.9381,-0.9391,-0.9391,-0.9381,-0.9398,-0.9415,-0.9395,-0.9381,-0.9381,-0.9381,-0.9391,-0.9459,-0.9523,-0.9561,-0.9625,-0.9768,-0.9747,-0.9778,-0.9812,-0.9819,-0.9819,-0.9819,-0.9819,-0.9819,-0.9819,-0.9819,-0.9819,-0.9819,-0.9819,-0.9819,-0.9819,-0.9819,-0.9819,-0.9819,-0.9819,-0.9819,-0.9819,-0.9819,-0.9819,-0.9819,-0.9819,-0.9819,-0.9819,-0.9819,-0.9819,-0.9819,-0.9819,-0.9819,-0.9819,-0.9819,-0.9819,-0.9819,-0.9819,-0.9819,-0.9819,-0.9819,-0.9819,-0.9819,-0.9819,-0.9819,-0.9819,-0.9819,-0.9819,-0.9819,-0.9819,-0.9819,-0.9819,-0.9819,-0.9819,-0.9819,-0.9819,-0.9819,-0.9764,-0.9713,-0.9598,-0.9452,-0.9289,-0.9106,-0.9018,-0.8954,-0.8937,-0.8937,-0.8937,-0.8937,-0.8937,-0.8937,-0.8937,-0.8937,-0.8937,-0.8937,-0.8937,-0.8937,-0.8937,-0.8937,-0.8937,-0.8903,-0.8821,-0.8662,-0.8513,-0.8462,-0.8394,-0.8262,-0.8177,-0.8049,-0.7988,-0.8895,-0.8981,-0.9173,-0.9245,-0.9364,-0.9381,-0.9371,-0.934,-0.9357,-0.9351,-0.9337,-0.9364,-0.934,-0.9354,-0.933,-0.9337,-0.9361,-0.9378,-0.934,-0.9344,-0.9381,-0.9364,-0.9391,-0.9415,-0.9473,-0.9602,-0.9625,-0.969,-0.9781,-0.9781,-0.9802,-0.9819,-0.9819,-0.9819,-0.9819,-0.9819,-0.9819,-0.9819,-0.9819,-0.9819,-0.9819,-0.9819,-0.9819,-0.9819,-0.9819,-0.9819,-0.9819,-0.9819,-0.9819,-0.9819,-0.9819,-0.9819,-0.9819,-0.9819,-0.9819,-0.9819,-0.9819,-0.9819,-0.9819,-0.9819,-0.9819,-0.9819,-0.9819,-0.9819,-0.9819,-0.9819,-0.9819,-0.9819,-0.9819,-0.9819,-0.9819,-0.9819,-0.9819,-0.9819,-0.9819,-0.9819,-0.9819,-0.9819,-0.9819,-0.9819,-0.9819,-0.9819,-0.9819,-0.9764,-0.968,-0.9537,-0.9347,-0.9163,-0.9028,-0.8967,-0.8947,-0.8937,-0.8937,-0.8937,-0.8937,-0.8937,-0.8937,-0.8937,-0.8937,-0.8937,-0.8937,-0.8937,-0.8937,-0.8937,-0.8937,-0.8937,-0.8923,-0.8784,-0.8682,-0.8655,-0.857,-0.8411,-0.8262,-0.8157,-0.8039,-0.8937,-0.8944,-0.9001,-0.9055,-0.9106,-0.911,-0.911,-0.911,-0.911,-0.911,-0.9117,-0.911,-0.9106,-0.9113,-0.911,-0.911,-0.911,-0.911,-0.912,-0.911,-0.911,-0.9161,-0.9198,-0.9262,-0.9317,-0.9439,-0.9476,-0.9547,-0.9669,-0.97,-0.9761,-0.9788,-0.9812,-0.9819,-0.9819,-0.9819,-0.9819,-0.9819,-0.9819,-0.9819,-0.9819,-0.9819,-0.9819,-0.9819,-0.9819,-0.9819,-0.9819,-0.9819,-0.9819,-0.9819,-0.9819,-0.9819,-0.9819,-0.9819,-0.9819,-0.9819,-0.9819,-0.9819,-0.9819,-0.9819,-0.9819,-0.9819,-0.9819,-0.9819,-0.9819,-0.9819,-0.9819,-0.9819,-0.9819,-0.9819,-0.9819,-0.9819,-0.9819,-0.9819,-0.9819,-0.9819,-0.9819,-0.9819,-0.9819,-0.9819,-0.9819,-0.9819,-0.9819,-0.9815,-0.9724,-0.9608,-0.9351,-0.913,-0.8891,-0.8939,-0.8974,-0.894,-0.8937,-0.8937,-0.8937,-0.8937,-0.8937,-0.8937,-0.8937,-0.8937,-0.8937,-0.8937,-0.8937,-0.8937,-0.8937,-0.8937,-0.8923,-0.8889,-0.8828,-0.875,-0.8655,-0.8537,-0.8387,-0.8245,-0.8163,-0.8937,-0.8937,-0.8937,-0.8937,-0.8937,-0.8937,-0.8937,-0.8937,-0.8892,-0.8937,-0.8937,-0.8937,-0.8937,-0.8937,-0.8944,-0.895,-0.8967,-0.896,-0.895,-0.8957,-0.8977,-0.9001,-0.9059,-0.9113,-0.9167,-0.9337,-0.9384,-0.9391,-0.9537,-0.9585,-0.9659,-0.9737,-0.9741,-0.9815,-0.9819,-0.9819,-0.9819,-0.9819,-0.9819,-0.9819,-0.9819,-0.9819,-0.9819,-0.9819,-0.9819,-0.9819,-0.9819,-0.9819,-0.9819,-0.9819,-0.9819,-0.9819,-0.9819,-0.9819,-0.9819,-0.9819,-0.9819,-0.9819,-0.9819,-0.9819,-0.9819,-0.9819,-0.9819,-0.9819,-0.9819,-0.9819,-0.9819,-0.9819,-0.9819,-0.9819,-0.9819,-0.9819,-0.9819,-0.9819,-0.9819,-0.9819,-0.9819,-0.9819,-0.9819,-0.9819,-0.9511,-0.8836,-0.8468,-0.8279,-0.8156,-0.8507,-0.9343,-0.8823,-0.8094,-0.8376,-0.9008,-0.8971,-0.8937,-0.8937,-0.8937,-0.8937,-0.8937,-0.8937,-0.8937,-0.8937,-0.8937,-0.8937,-0.8937,-0.8937,-0.8937,-0.8937,-0.8927,-0.8906,-0.8866,-0.8811,-0.8716,-0.8625,-0.855,-0.8411,-0.8275,-0.8875,-0.8937,-0.8937,-0.8937,-0.8937,-0.8937,-0.8937,-0.8937,-0.8937,-0.8937,-0.8937,-0.8937,-0.8937,-0.8937,-0.8937,-0.8937,-0.8937,-0.8937,-0.8937,-0.8937,-0.8937,-0.8895,-0.8902,-0.8991,-0.9045,-0.913,-0.9228,-0.9239,-0.9388,-0.9473,-0.9561,-0.9669,-0.9754,-0.9819,-0.9819,-0.9819,-0.9819,-0.9819,-0.9819,-0.9819,-0.9819,-0.9819,-0.9819,-0.9819,-0.9819,-0.9819,-0.9819,-0.9819,-0.9819,-0.9819,-0.9819,-0.9819,-0.9819,-0.9819,-0.9819,-0.9819,-0.9819,-0.9819,-0.9819,-0.9819,-0.9819,-0.9819,-0.9819,-0.9819,-0.9819,-0.9819,-0.9819,-0.9819,-0.9819,-0.9819,-0.9819,-0.9819,-0.9819,-0.9819,-0.9819,-0.9819,-0.9819,-0.9204,-0.9143,-0.8836,-0.8036,-0.736,-0.6811,-0.6435,-0.6335,-0.6957,-0.8602,-0.8524,-0.735,-0.7635,-0.8267,-0.8565,-0.8523,-0.8937,-0.8937,-0.8937,-0.8937,-0.8881,-0.8937,-0.8937,-0.8937,-0.8937,-0.8937,-0.8937,-0.8937,-0.8937,-0.8937,-0.8933,-0.8896,-0.8859,-0.8794,-0.8713,-0.8655,-0.8574,-0.8438,-0.8733,-0.8798,-0.8841,-0.8937,-0.8937,-0.8937,-0.8937,-0.8937,-0.8937,-0.8937,-0.8937,-0.8937,-0.8937,-0.8937,-0.8937,-0.8937,-0.8937,-0.8937,-0.8937,-0.8937,-0.8937,-0.8937,-0.8937,-0.8944,-0.8967,-0.8994,-0.9022,-0.9096,-0.9289,-0.932,-0.9459,-0.9581,-0.9727,-0.9812,-0.9819,-0.9819,-0.9819,-0.9819,-0.9819,-0.9819,-0.9819,-0.9819,-0.9819,-0.9819,-0.9819,-0.9819,-0.9819,-0.9819,-0.9819,-0.9819,-0.9819,-0.9819,-0.9819,-0.9819,-0.9819,-0.9819,-0.9819,-0.9819,-0.9819,-0.9819,-0.9819,-0.9819,-0.9819,-0.9819,-0.9819,-0.9819,-0.9819,-0.9819,-0.9819,-0.9819,-0.9819,-0.9819,-0.9819,-0.9819,-0.9819,-0.9819,-0.9576,-0.8526,-0.7914,-0.7484,-0.6872,-0.5953,-0.5282,-0.4669,-0.4401,-0.4322,-0.5629,-0.6253,-0.5491,-0.6407,-0.7293,-0.7708,-0.8009,-0.8575,-0.8881,-0.8442,-0.8269,-0.8152,-0.8491,-0.8937,-0.8937,-0.8771,-0.8937,-0.8937,-0.8937,-0.8937,-0.8937,-0.8937,-0.8937,-0.8903,-0.8849,-0.8791,-0.8726,-0.8669,-0.8587,-0.8632,-0.8648,-0.8794,-0.8859,-0.8814,-0.8858,-0.8937,-0.8937,-0.8937,-0.8937,-0.8937,-0.8937,-0.8937,-0.8937,-0.8937,-0.8937,-0.8937,-0.8937,-0.8937,-0.8937,-0.8937,-0.8937,-0.8937,-0.8937,-0.8944,-0.8937,-0.8892,-0.8949,-0.9083,-0.9187,-0.9327,-0.9568,-0.97,-0.9764,-0.9795,-0.9819,-0.9819,-0.9819,-0.9819,-0.9819,-0.9819,-0.9819,-0.9819,-0.9819,-0.9819,-0.9819,-0.9819,-0.9819,-0.9819,-0.9819,-0.9819,-0.9819,-0.9819,-0.9819,-0.9819,-0.9819,-0.9819,-0.9819,-0.9819,-0.9819,-0.9819,-0.9819,-0.9819,-0.9819,-0.9819,-0.9819,-0.9819,-0.9819,-0.9819,-0.9819,-0.9819,-0.9819,-0.9819,-0.9819,-0.9697,-0.9697,-0.9329,-0.8282,-0.7177,-0.6689,-0.528,-0.4424,0.0,-0.3015,-0.252,-0.245,-0.2503,-0.315,-0.3909,-0.5066,-0.5948,-0.6258,-0.6556,-0.6853,-0.7315,-0.756,-0.744,-0.7374,-0.7817,-0.8377,-0.8432,-0.8208,-0.8602,-0.8881,-0.8771,-0.8771,-0.8881,-0.8881,-0.8657,-0.8712,-0.892,-0.8859,-0.8798,-0.8754,-0.8713,-0.8476,-0.8499,-0.8638,-0.8706,-0.8726,-0.8852,-0.8923,-0.8937,-0.8937,-0.8937,-0.8937,-0.8937,-0.8937,-0.8937,-0.8937,-0.8937,-0.8937,-0.8937,-0.8937,-0.8937,-0.8937,-0.8937,-0.8937,-0.8937,-0.8937,-0.8937,-0.8885,-0.8895,-0.8967,-0.9089,-0.9313,-0.951,-0.9605,-0.969,-0.9758,-0.9805,-0.9812,-0.9819,-0.9819,-0.9819,-0.9819,-0.9819,-0.9819,-0.9819,-0.9819,-0.9819,-0.9819,-0.9819,-0.9819,-0.9819,-0.9819,-0.9819,-0.9819,-0.9819,-0.9819,-0.9819,-0.9819,-0.9819,-0.9758,-0.9758,-0.939,-0.9265,-0.9451,-0.9636,-0.9819,-0.9819,-0.9819,-0.9819,-0.9819,-0.9819,-0.9819,-0.9819,-0.9819,-0.9697,-0.9511,-0.9329,-0.9083,-0.816,-0.6994,-0.5647,-0.3688,0.0,0.0,0.0,0.0,0.0,0.0,-0.1467,-0.2365,-0.3666,-0.437,-0.4504,-0.4758,-0.482,-0.5356,-0.6172,-0.6252,-0.6086,-0.6935,-0.7482,-0.7537,-0.7371,-0.7315,-0.7537,-0.8266,-0.8436,-0.8211,-0.8152,-0.8097,-0.8208,-0.7762,-0.8533,-0.8362,-0.8769,-0.8845,-0.8385,-0.8398,-0.8489,-0.855,-0.857,-0.8659,-0.8777,-0.8875,-0.8937,-0.8937,-0.8937,-0.8937,-0.8937,-0.8937,-0.8937,-0.8937,-0.8937,-0.8937,-0.8937,-0.8937,-0.8937,-0.8937,-0.8937,-0.8937,-0.8937,-0.8937,-0.8937,-0.894,-0.8971,-0.9079,-0.921,-0.9276,-0.9483,-0.9598,-0.9683,-0.9768,-0.9791,-0.9812,-0.9808,-0.9819,-0.9819,-0.9819,-0.9819,-0.9819,-0.9819,-0.9819,-0.9819,-0.9819,-0.9819,-0.9819,-0.9819,-0.9819,-0.9819,-0.9819,-0.9819,-0.9819,-0.9819,-0.9758,-0.9636,-0.8714,-0.8099,-0.8099,-0.8097,-0.8897,-0.9329,-0.9636,-0.9636,-0.9819,-0.9819,-0.9819,-0.9819,-0.9819,-0.9819,-0.9697,-0.9265,-0.8468,-0.7975,-0.6383,-0.5219,-0.3872,-0.191,0.0,0.0,0.0,0.0,0.0,0.0,0.0,-0.0857,-0.2183,-0.2833,-0.2925,-0.3244,-0.3441,-0.4109,-0.4945,-0.4855,-0.4942,-0.5751,-0.6165,-0.571,-0.5543,-0.5757,-0.6086,-0.6589,-0.698,-0.7202,-0.7035,-0.6755,-0.6031,-0.5639,-0.698,-0.8042,-0.8266,-0.8712,-0.6588,-0.6604,-0.6714,-0.6843,-0.6951,-0.7023,-0.7104,-0.7345,-0.8381,-0.8937,-0.8937,-0.8937,-0.8937,-0.8937,-0.8937,-0.8937,-0.8937,-0.8937,-0.8937,-0.8937,-0.8937,-0.8937,-0.8937,-0.8937,-0.8937,-0.8937,-0.8937,-0.8937,-0.8964,-0.9011,-0.9083,-0.9241,-0.9378,-0.9449,-0.9537,-0.9642,-0.972,-0.9751,-0.9778,-0.9808,-0.9819,-0.9819,-0.9819,-0.9819,-0.9819,-0.9819,-0.9819,-0.9819,-0.9819,-0.9819,-0.9819,-0.939,-0.8897,-0.8285,-0.7795,-0.7612,-0.7609,-0.7548,-0.7365,-0.6935,-0.6505,-0.6444,-0.6383,-0.6813,-0.7978,-0.8653,-0.9329,-0.9819,-0.9819,-0.9819,-0.9819,-0.9819,-0.9819,-0.9758,-0.865,-0.7545,-0.5953,-0.4301,-0.2953,-0.1725,0.0,0.0,0.0,0.0,0.0,0.0,0.0,0.0,0.0,-0.0858,-0.1282,-0.1337,-0.18,-0.2252,-0.2884,-0.3334,-0.3136,-0.3399,-0.4447,-0.459,-0.3948,-0.4206,-0.4806,-0.486,-0.4749,-0.5194,-0.5695,-0.5361,-0.4972,-0.4303,-0.4136,-0.5306,-0.6478,-0.7204,-0.7817,-0.4368,-0.4327,-0.4194,-0.4518,-0.4485,-0.4652,-0.4661,-0.4782,-0.7222,-0.8459,-0.8348,-0.8598,-0.8546,-0.8322,-0.81,-0.8436,-0.8546,-0.8602,-0.8602,-0.8826,-0.8937,-0.8937,-0.8937,-0.8937,-0.8937,-0.8937,-0.8937,-0.8937,-0.8937,-0.8971,-0.9032,-0.9137,-0.9234,-0.9256,-0.9374,-0.9513,-0.9588,-0.9602,-0.9676,-0.9737,-0.9805,-0.9819,-0.9819,-0.9819,-0.9819,-0.9819,-0.9819,-0.9819,-0.9819,-0.9819,-0.939,-0.8711,-0.724,-0.62,-0.5529,-0.5347,-0.5651,-0.5712,-0.559,-0.5098,-0.4853,-0.4732,-0.4732,-0.4855,-0.5774,-0.7243,-0.8041,-0.8224,-0.8102,-0.8099,-0.8039,-0.8039,-0.8099,-0.767,-0.6813,-0.5953,-0.4974,-0.3259,-0.1725,0.0,0.0,0.0,0.0,0.0,0.0,0.0,0.0,0.0,0.0,0.0,0.0,0.0,0.0,0.0,-0.1141,-0.1432,-0.1301,-0.1757,0.0,-0.2921,-0.2279,-0.2992,-0.408,-0.3744,-0.3353,-0.3744,-0.4078,-0.3576,-0.3242,-0.3187,-0.3243,-0.3855,-0.4747,-0.5528,-0.6308,-0.6429,-0.5427,-0.444,-0.4055,-0.4128,-0.4236,-0.421,-0.4321,-0.5106,-0.5575,-0.5755,-0.6654,-0.7199,-0.7133,-0.6308,-0.6702,-0.8211,-0.7595,-0.7986,-0.8322,-0.8546,-0.8266,-0.8712,-0.8322,-0.8602,-0.8937,-0.8937,-0.8546,-0.8432,-0.8605,-0.884,-0.8893,-0.8841,-0.8767,-0.9211,-0.9299,-0.9198,-0.9442,-0.9268,-0.9397,-0.9513,-0.968,-0.9819,-0.9758,-0.9758,-0.9636,-0.9576,-0.9576,-0.9697,-0.9697,-0.8526,-0.7179,-0.5588,-0.5039,-0.4916,-0.4856,-0.455,-0.4427,-0.4182,-0.3568,-0.3137,-0.3077,-0.3077,-0.3077,-0.3752,-0.5223,-0.6082,-0.6141,-0.6263,-0.6324,-0.6324,-0.6385,-0.6324,-0.5649,-0.4976,-0.4424,-0.3933,-0.2278,-0.0617,0.0,0.0,0.0,0.0,0.0,0.0,0.0,0.0,0.0,0.0,0.0,0.0,0.0,0.0,0.0,0.0,0.0,0.0,0.0,0.0,0.0,0.0,-0.1422,-0.225,-0.2185,-0.2069,-0.2349,-0.2237,-0.1511,-0.1344,0.0,-0.1847,-0.2237,-0.2627,-0.3295,-0.4188,-0.4021,-0.3268,-0.2565,-0.2213,-0.2217,-0.229,-0.2351,-0.246,-0.3125,-0.3113,-0.2941,-0.4582,-0.5689,-0.5704,-0.4842,-0.5023,-0.6808,-0.6089,-0.6089,-0.67,-0.7146,-0.6813,-0.698,-0.7146,-0.6755,-0.6924,-0.6924,-0.6811,-0.7146,-0.698,-0.693,-0.7662,-0.7729,-0.7818,-0.8514,-0.8679,-0.8638,-0.9225,-0.8688,-0.8515,-0.8797,-0.9134,-0.9647,-0.9727,-0.9201,-0.8948,-0.8407,-0.816,-0.7609,-0.7182,-0.5955,-0.5037,-0.3752,-0.2954,-0.2647,-0.2585,-0.2524,0.0,0.0,0.0,0.0,0.0,0.0,0.0,0.0,-0.283,-0.4119,-0.4364,-0.5347,-0.5529,-0.5529,-0.5529,-0.5529,-0.5161,-0.3935,-0.3015,-0.2216,-0.0986,0.0,0.0,0.0,0.0,0.0,0.0,0.0,0.0,0.0,0.0,0.0,0.0,0.0,0.0,0.0,0.0,0.0,0.0,0.0,0.0,0.0,0.0,0.0,0.0,-0.0283,0.0,0.0,-0.084,-0.0504,0.0,0.0,0.0,0.0,-0.0504,0.0,0.0,0.0,-0.0656,-0.0252,-0.0101,0.0,0.0,0.0,0.0,0.0,-0.1333,-0.1239,-0.0624,-0.283,-0.3838,-0.4205,-0.398,-0.4221,-0.4347,-0.4352,-0.4411,-0.4749,-0.486,-0.525,-0.5139,-0.4804,-0.5027,-0.5083,-0.5027,-0.4972,-0.5083,-0.5139,-0.5528,-0.5975,-0.5919,-0.5755,-0.7237,-0.7514,-0.7069,-0.7488,-0.7304,-0.6854,-0.7402,-0.8187,-0.8534,-0.8377,-0.7931,-0.7137,-0.6586,-0.5979,-0.5066,-0.4512,-0.3953,-0.2919,-0.2135,0.0,0.0,0.0,0.0,0.0,0.0,0.0,0.0,0.0,0.0,0.0,0.0,0.0,0.0,0.0,0.0,0.0,0.0,0.0,0.0,0.0,0.0,0.0,0.0,0.0,0.0,0.0,0.0,0.0,0.0,0.0,0.0,0.0,0.0,0.0,0.0,0.0,0.0,0.0,0.0,0.0,0.0,0.0,0.0,0.0,0.0,0.0,0.0,0.0,0.0,0.0,0.0,0.0,0.0,0.0,0.0,0.0,0.0,0.0,0.0,0.0,0.0,-0.2614,-0.1511,-0.0454,0.0,0.0,0.0,0.0,0.0,0.0,-0.0203,0.0,0.0,-0.1423,-0.2566,-0.1308,-0.1703,-0.3581,-0.3105,-0.3682,-0.4359,-0.3857,-0.4136,-0.4136,-0.3578,-0.4303,-0.4191,-0.3968,-0.4359,-0.3632,-0.3967,-0.4526,-0.4804,-0.4749,-0.4693,-0.4973,-0.5112,-0.5234,-0.5641,-0.5535,-0.5064,-0.5131,-0.559,-0.5645,-0.5617,-0.556,-0.5383,-0.5206,-0.5086,-0.4968,-0.4439,-0.3265,-0.1905,0.0,0.0,0.0,0.0,0.0,0.0,0.0,0.0,0.0,0.0,0.0,0.0,0.0,0.0,0.0,0.0,0.0,0.0,0.0,0.0,0.0,0.0,0.0,0.0,0.0,0.0,0.0,0.0,0.0,0.0,0.0,0.0,0.0,0.0,0.0,0.0,0.0,0.0,0.0,0.0,0.0,0.0,0.0,0.0,0.0,0.0,0.0,0.0,0.0,0.0,0.0,0.0,0.0,0.0,0.0,0.0,0.0,0.0,0.0,0.0,0.0,0.0,0.0]},{"header":{"parameterUnit":"m.s-1","parameterCategory":1,"la1":31.0,"la2":29.5877,"lo1":-88.7671,"lo2":-86.6584,"dy":0.0162,"dx":0.0185,"nx":115,"ny":88,"refTime":"2023-08-30T06:00:00:Z","depth":0,"parameterNumber":3,"parameterNumberName":"V-component_of_WINDS"},"data":[0.0,0.0,0.0,0.0,0.0,0.0,0.0,0.0,0.0,0.0,0.0,0.0,0.0,0.0,0.0,0.0,0.0,0.0,0.0,0.0,0.0,0.0,0.0,0.0,0.0,0.0,0.0,0.0,0.0,0.0,0.0,0.0,0.0,0.0,0.0,0.0,0.0,0.0,0.0,0.0,0.0,0.0,0.0,0.0,0.0,0.0,0.0,0.0,0.0,0.0,0.0,0.0,0.0,0.0,0.0,0.0,0.0,0.0,0.0,0.0,0.0,0.0,0.0,0.0,0.0,0.0,0.0,0.0,0.0,0.0,0.0,0.0,0.0,0.0,0.0,0.0,0.0,0.0,0.0,0.0,0.0,0.0,0.0,0.0,0.0,0.0,0.0,0.0,0.0,0.0,0.0,0.0,0.0,0.0,0.0,0.0,0.0,0.0,0.0,0.0,0.0,0.0,0.0,0.0,0.0,0.0,0.0,0.0,0.0,0.0,0.0,0.0,0.0,0.0,0.0,0.0,0.0,0.0,0.0,0.0,0.0,0.0,0.0,0.0,0.0,0.0,0.0,0.0,0.0,0.0,0.0,0.0,0.0,0.0,0.0,0.0,0.0,0.0,0.0,0.0,0.0,0.0,0.0,0.0,0.0,0.0,0.0,0.0,0.0,0.0,0.0,0.0,0.0,0.0,0.0,0.0,0.0,0.0,0.0,0.0,0.0,0.0,0.0,0.0,0.0,0.0,0.0,0.0,0.0,0.0,0.0,0.0,0.0,0.0,0.0,0.0,0.0,0.0,0.0,0.0,0.0,0.0,0.0,0.0,0.0,0.0,0.0,0.0,0.0,0.0,0.0,0.0,0.0,0.0,0.0,0.0,0.0,0.0,0.0,0.0,0.0,0.0,0.0,0.0,0.0,0.0,0.0,0.0,0.0,0.0,0.0,0.0,0.0,0.0,0.0,0.0,0.0,0.0,0.0,0.0,0.0,0.0,0.0,0.0,0.0,0.0,0.0,0.0,0.0,0.0,0.0,0.0,0.0,0.0,0.0,0.0,0.0,0.0,0.0,0.0,0.0,0.0,0.0,0.0,0.0,0.0,0.0,0.0,0.0,0.0,0.0,0.0,0.0,0.0,0.0,0.0,0.0,0.0,0.0,0.0,0.0,0.0,0.0,0.0,0.0,0.0,0.0,0.0,0.0,0.0,0.0,0.0,0.0,0.0,0.0,0.0,0.0,0.0,0.0,0.0,0.0,0.0,0.0,0.0,0.0,0.0,0.0,0.0,0.0,0.0,0.0,0.0,0.0,0.0,0.0,0.0,0.0,0.0,0.0,0.0,0.0,0.0,0.0,0.0,0.0,0.0,0.0,0.0,0.0,0.0,0.0,0.0,0.0,0.0,0.0,0.0,0.0,0.0,0.0,0.0,0.0,0.0,0.0,0.0,0.0,0.0,0.0,0.0,0.0,0.0,0.0,0.0,0.0,0.0,0.0,0.0,0.0,0.0,0.0,0.0,0.0,0.0,0.0,0.0,0.0,0.0,0.0,0.0,0.0,0.0,0.0,0.0,0.0,0.0,0.0,0.0,0.0,0.0,0.0,0.0,0.0,0.0,0.0,0.0,0.0,0.0,0.0,0.0,0.0,0.0,0.0,0.0,0.0,0.0,0.0,0.0,0.0,0.0,0.0,0.0,0.0,0.0,0.0,0.0,0.0,0.0,0.0,0.0,0.0,0.0,0.0,0.0,0.0,0.0,0.0,0.0,0.0,0.0,0.0,0.0,0.0,0.0,0.0,0.0,0.0,0.0,0.0,0.0,0.0,0.0,0.0,0.0,0.0,0.0,0.0,0.0,0.0,0.0,0.0,0.0,0.0,0.0,0.0,0.0,0.0,0.0,0.0,0.0,0.0,0.0,0.0,0.0,0.0,0.0,0.0,0.0,0.0,0.0,0.0,0.0,0.0,0.0,0.0,0.0,0.0,0.0,0.0,0.0,0.0,0.0,0.0,0.0,0.0,0.0,0.0,0.0,0.0,0.0,0.0,0.0,0.0,0.0,0.0,0.0,0.0,0.0,0.0,0.0,0.0,0.0,0.0,0.0,0.0,0.0,0.0,0.0,0.0,0.0,0.0,0.0,0.0,0.0,0.0,0.0,0.0,0.0,0.0,0.0,0.0,0.0,0.0,0.0,0.0,0.0,0.0,0.0,0.0,0.0,0.0,0.0,0.0,0.0,0.0,0.0,0.0,0.0,0.0,0.0,0.0,0.0,0.0,0.0,0.0,0.0,0.0,0.0,0.0,0.0,0.0,0.0,0.0,0.0,0.0,0.0,0.0,0.0,0.0,0.0,0.0,0.0,0.0,0.0,0.0,0.0,0.0,0.0,0.0,0.0,0.0,0.0,0.0,0.0,0.0,0.0,0.0,0.0,0.0,0.0,0.0,0.0,0.0,0.0,0.0,0.0,0.0,0.0,0.0,0.0,0.0,0.0,0.0,0.0,0.0,0.0,0.0,0.0,0.0,0.0,0.0,0.0,0.0,0.0,0.0,0.0,0.0,0.0,0.0,0.0,0.0,0.0,0.0,0.0,0.0,0.0,0.0,0.0,0.0,0.0,0.0,0.0,0.0,0.0,0.0,0.0,0.0,0.0,0.0,0.0,0.0,0.0,0.0,0.0,0.0,0.0,0.0,0.0,0.0,0.0,0.0,0.0,0.0,0.0,0.0,0.0,0.0,0.0,0.0,0.0,0.0,0.0,0.0,0.0,0.0,0.0,0.0,0.0,0.0,0.0,0.0,0.0,0.0,0.0,0.0,0.0,0.0,0.0,0.0,0.0,0.0,0.0,0.0,0.0,0.0,0.0,0.0,0.0,0.0,0.0,0.0,0.0,0.0,0.0,0.0,0.0,0.0,0.0,0.0,0.0,0.0,0.0,0.0,0.0,0.0,0.0,0.0,0.0,0.0,0.0,0.0,0.0,0.0,0.0,0.0,0.0,0.0,0.0,0.0,0.0,0.0,0.0,0.0,0.0,0.0,0.0,0.0,0.0,0.0,0.0,0.0,0.0,0.0,0.0,0.0,0.0,0.0,0.0,0.0,0.0,0.0,0.0,0.0,0.0,0.0,0.0,0.0,0.0,0.0,0.0,0.0,0.0,0.0,0.0,0.0,0.0,0.0,0.0,0.0,0.0,0.0,0.0,0.0,0.0,0.0,0.0,0.0,0.0,0.0,0.0,0.0,0.0,0.0,0.0,0.0,0.0,0.0,0.0,0.0,0.0,0.0,0.0,0.0,0.0,0.0,0.0,0.0,0.0,0.0,0.0,0.0,0.0,0.0,0.0,0.0,0.0,0.0,0.0,0.0,0.0,0.0,0.0,0.0,0.0,0.0,0.0,0.0,0.0,0.0,0.0,0.0,0.0,0.0,0.0,0.0,0.0,0.0,0.0,0.0,0.0,0.0,0.0,0.0,0.0,0.0,0.0,0.0,0.0,0.0,0.0,0.0,0.0,0.0,0.0,0.0,0.0,0.0,0.0,0.0,0.0,0.0,0.0,0.0,0.0,0.0,0.0,0.0,0.0,0.0,0.0,0.0,0.0,0.0,0.0,0.0,0.0,0.0,0.0,0.0,0.0,0.0,0.0,0.0,0.0,0.0,0.0,0.0,0.0,0.0,0.0,0.0,0.0,0.0,0.0,0.0,0.0,0.0,0.0,0.0,0.0,0.0,0.0,0.0,0.0,0.0,0.0,0.0,0.0,0.0,0.0,0.0,0.0,0.0,0.0,0.0,0.0,0.0,0.0,0.0,0.0,0.0,0.0,0.0,0.0,0.0,0.0,0.0,0.0,0.0,0.0,0.0,0.0,0.0,0.0,0.0,0.0,0.0,0.0,0.0,0.0,0.0,0.0,0.0,0.0,0.0,0.0,0.0,0.0,0.0,0.0,0.0,0.0,0.0,0.0,0.0,0.0,0.0,0.0,0.0,0.0,0.0,0.0,0.0,0.0,0.0,0.0,0.0,0.0,0.0,0.0,0.0,0.0,0.0,0.0,0.0,0.0,0.0,0.0,0.0,0.0,0.0,0.0,0.0,0.0,0.0,0.0,0.0,0.0,0.0,0.0,0.0,0.0,0.0,0.0,0.0,0.0,0.0,0.0,0.0,0.0,0.0,0.0,0.0,0.0,0.0,0.0,0.0,0.0,0.0,0.0,0.0,0.0,0.0,0.0,0.0,0.0,0.0,0.0,0.0,0.0,0.0,0.0,0.0,0.0,0.0,0.0,0.0,0.0,3.656,0.0,0.0,0.0,0.0,0.0,0.0,0.0,0.0,0.0,0.0,0.0,0.0,0.0,0.0,0.0,0.0,0.0,0.0,0.0,0.0,0.0,0.0,0.0,0.0,0.0,0.0,0.0,0.0,0.0,0.0,0.0,0.0,0.0,0.0,0.0,0.0,0.0,0.0,0.0,0.0,0.0,0.0,0.0,0.0,0.0,0.0,0.0,0.0,0.0,0.0,0.0,0.0,0.0,0.0,0.0,0.0,0.0,0.0,0.0,0.0,0.0,0.0,0.0,0.0,0.0,0.0,0.0,0.0,0.0,0.0,0.0,0.0,0.0,0.0,0.0,0.0,0.0,0.0,0.0,0.0,0.0,0.0,0.0,0.0,0.0,0.0,0.0,0.0,0.0,0.0,0.0,0.0,0.0,0.0,0.0,0.0,0.0,0.0,0.0,0.0,0.0,0.0,0.0,0.0,0.0,0.0,0.0,0.0,0.0,0.0,3.5871,3.5622,3.6075,3.6207,3.6006,0.0,0.0,0.0,0.0,0.0,0.0,0.0,0.0,0.0,0.0,0.0,0.0,0.0,0.0,0.0,0.0,0.0,0.0,0.0,0.0,0.0,0.0,0.0,0.0,0.0,0.0,0.0,0.0,0.0,0.0,0.0,0.0,0.0,0.0,0.0,0.0,0.0,0.0,0.0,0.0,0.0,0.0,0.0,0.0,0.0,0.0,0.0,0.0,0.0,0.0,0.0,0.0,0.0,0.0,0.0,0.0,0.0,0.0,0.0,0.0,0.0,0.0,0.0,0.0,0.0,0.0,0.0,0.0,0.0,0.0,0.0,0.0,0.0,0.0,0.0,0.0,0.0,0.0,0.0,0.0,0.0,0.0,0.0,0.0,0.0,0.0,0.0,0.0,0.0,0.0,0.0,0.0,0.0,0.0,0.0,0.0,0.0,0.0,0.0,0.0,0.0,0.0,0.0,0.0,0.0,0.0,0.0,0.0,0.0,0.0,0.0,0.0,3.5138,3.5207,3.5385,0.0,0.0,0.0,0.0,0.0,0.0,0.0,0.0,0.0,0.0,0.0,0.0,0.0,0.0,0.0,0.0,0.0,0.0,0.0,0.0,0.0,0.0,0.0,0.0,0.0,0.0,0.0,0.0,0.0,0.0,0.0,0.0,0.0,0.0,0.0,0.0,0.0,0.0,0.0,0.0,0.0,0.0,0.0,0.0,0.0,0.0,0.0,0.0,0.0,0.0,0.0,0.0,0.0,0.0,0.0,0.0,0.0,0.0,0.0,0.0,0.0,0.0,0.0,0.0,0.0,0.0,0.0,0.0,0.0,0.0,0.0,0.0,0.0,0.0,0.0,0.0,0.0,0.0,0.0,0.0,0.0,0.0,0.0,0.0,0.0,0.0,0.0,0.0,0.0,0.0,0.0,0.0,0.0,0.0,0.0,0.0,0.0,0.0,0.0,0.0,0.0,0.0,0.0,0.0,0.0,0.0,0.0,0.0,0.0,0.0,3.3786,3.3786,3.3786,0.0,3.4648,0.0,0.0,0.0,0.0,0.0,0.0,0.0,0.0,0.0,0.0,0.0,0.0,0.0,0.0,0.0,0.0,0.0,0.0,0.0,0.0,0.0,0.0,0.0,0.0,0.0,0.0,0.0,0.0,0.0,0.0,0.0,0.0,0.0,0.0,0.0,0.0,0.0,0.0,0.0,0.0,0.0,0.0,0.0,0.0,0.0,0.0,0.0,0.0,0.0,0.0,0.0,0.0,0.0,0.0,0.0,0.0,0.0,0.0,0.0,0.0,0.0,0.0,0.0,0.0,0.0,0.0,0.0,0.0,0.0,0.0,0.0,0.0,0.0,0.0,0.0,0.0,0.0,0.0,0.0,0.0,0.0,0.0,0.0,0.0,0.0,0.0,0.0,0.0,0.0,0.0,0.0,0.0,0.0,0.0,0.0,0.0,0.0,0.0,0.0,0.0,0.0,0.0,0.0,0.0,0.0,0.0,0.0,0.0,0.0,0.0,3.3608,3.3608,3.3608,3.3735,0.0,0.0,0.0,0.0,0.0,0.0,0.0,0.0,0.0,0.0,0.0,0.0,0.0,0.0,0.0,0.0,0.0,0.0,0.0,0.0,0.0,0.0,0.0,0.0,0.0,0.0,0.0,0.0,0.0,0.0,0.0,0.0,0.0,0.0,0.0,0.0,0.0,0.0,0.0,0.0,0.0,0.0,0.0,0.0,0.0,0.0,0.0,0.0,0.0,0.0,0.0,0.0,0.0,0.0,0.0,0.0,0.0,0.0,0.0,0.0,0.0,0.0,0.0,0.0,0.0,0.0,0.0,0.0,0.0,0.0,0.0,0.0,0.0,0.0,0.0,0.0,0.0,0.0,0.0,0.0,0.0,0.0,0.0,0.0,0.0,0.0,0.0,0.0,0.0,0.0,0.0,0.0,0.0,0.0,0.0,0.0,0.0,0.0,0.0,0.0,0.0,0.0,0.0,0.0,0.0,0.0,0.0,0.0,0.0,0.0,3.3024,3.3024,3.3024,3.3209,3.3313,3.3329,0.0,0.0,0.0,0.0,0.0,0.0,0.0,0.0,0.0,0.0,0.0,0.0,0.0,0.0,0.0,0.0,0.0,0.0,0.0,0.0,0.0,0.0,0.0,0.0,0.0,0.0,0.0,0.0,0.0,0.0,0.0,0.0,0.0,0.0,0.0,0.0,0.0,0.0,0.0,0.0,0.0,0.0,0.0,0.0,0.0,0.0,0.0,0.0,0.0,0.0,0.0,0.0,0.0,0.0,0.0,0.0,0.0,0.0,0.0,0.0,0.0,0.0,0.0,0.0,0.0,0.0,0.0,0.0,0.0,0.0,0.0,0.0,0.0,0.0,0.0,0.0,0.0,0.0,0.0,0.0,0.0,0.0,0.0,0.0,0.0,0.0,0.0,0.0,0.0,0.0,0.0,0.0,0.0,0.0,0.0,0.0,0.0,0.0,0.0,0.0,0.0,0.0,0.0,0.0,0.0,0.0,0.0,0.0,3.1625,3.1596,3.1582,3.1596,3.2244,3.2641,0.0,0.0,0.0,0.0,0.0,0.0,0.0,0.0,0.0,0.0,0.0,0.0,0.0,0.0,0.0,0.0,0.0,0.0,0.0,0.0,0.0,0.0,0.0,0.0,0.0,0.0,0.0,0.0,0.0,0.0,0.0,0.0,0.0,0.0,0.0,0.0,0.0,0.0,0.0,0.0,0.0,0.0,0.0,0.0,0.0,0.0,0.0,0.0,0.0,0.0,0.0,0.0,0.0,0.0,0.0,0.0,0.0,0.0,0.0,0.0,0.0,0.0,0.0,0.0,0.0,0.0,0.0,0.0,0.0,0.0,0.0,0.0,0.0,0.0,0.0,0.0,0.0,0.0,0.0,0.0,0.0,0.0,0.0,0.0,0.0,0.0,0.0,0.0,0.0,0.0,0.0,0.0,0.0,0.0,0.0,0.0,0.0,0.0,0.0,0.0,0.0,0.0,0.0,0.0,0.0,0.0,0.0,0.0,0.0,3.0748,3.0163,2.9889,2.9919,3.0151,3.0541,0.0,0.0,0.0,0.0,0.0,0.0,0.0,0.0,0.0,0.0,0.0,0.0,0.0,0.0,0.0,0.0,0.0,0.0,0.0,0.0,0.0,0.0,0.0,0.0,0.0,0.0,0.0,0.0,0.0,0.0,0.0,0.0,0.0,0.0,0.0,0.0,0.0,0.0,0.0,0.0,0.0,0.0,0.0,0.0,0.0,0.0,0.0,0.0,0.0,0.0,0.0,0.0,0.0,0.0,0.0,0.0,0.0,0.0,0.0,0.0,0.0,0.0,0.0,0.0,0.0,0.0,0.0,0.0,0.0,0.0,0.0,0.0,0.0,0.0,0.0,0.0,0.0,0.0,0.0,0.0,0.0,0.0,0.0,0.0,0.0,0.0,0.0,0.0,0.0,0.0,0.0,0.0,0.0,0.0,0.0,0.0,0.0,0.0,0.0,0.0,0.0,0.0,0.0,0.0,0.0,0.0,0.0,0.0,0.0,3.0156,0.0,2.9099,2.9247,2.9099,2.9369,0.0,0.0,0.0,0.0,0.0,0.0,0.0,0.0,0.0,0.0,0.0,0.0,0.0,0.0,0.0,0.0,0.0,0.0,0.0,0.0,0.0,0.0,0.0,0.0,0.0,0.0,0.0,0.0,0.0,0.0,0.0,0.0,0.0,0.0,0.0,0.0,0.0,0.0,0.0,0.0,0.0,0.0,0.0,0.0,0.0,0.0,0.0,0.0,0.0,0.0,0.0,0.0,0.0,0.0,0.0,0.0,0.0,0.0,0.0,0.0,0.0,0.0,0.0,0.0,0.0,0.0,0.0,0.0,0.0,0.0,0.0,0.0,0.0,0.0,0.0,0.0,0.0,0.0,0.0,0.0,0.0,0.0,0.0,0.0,0.0,0.0,0.0,0.0,0.0,0.0,0.0,0.0,0.0,0.0,0.0,0.0,0.0,0.0,0.0,0.0,0.0,0.0,0.0,0.0,0.0,0.0,0.0,0.0,3.0637,2.9821,2.9265,2.9187,2.9728,2.9219,2.921,0.0,0.0,0.0,0.0,0.0,0.0,0.0,0.0,0.0,0.0,0.0,0.0,0.0,0.0,0.0,0.0,0.0,0.0,0.0,0.0,0.0,0.0,0.0,0.0,0.0,0.0,0.0,0.0,0.0,0.0,0.0,0.0,0.0,0.0,0.0,0.0,0.0,0.0,0.0,0.0,0.0,0.0,0.0,0.0,0.0,0.0,0.0,0.0,0.0,0.0,0.0,0.0,0.0,0.0,0.0,0.0,0.0,0.0,0.0,0.0,0.0,0.0,0.0,0.0,0.0,0.0,0.0,0.0,0.0,0.0,0.0,0.0,0.0,0.0,0.0,0.0,0.0,0.0,0.0,0.0,0.0,0.0,0.0,0.0,0.0,0.0,0.0,0.0,0.0,0.0,0.0,0.0,0.0,0.0,0.0,0.0,0.0,0.0,0.0,0.0,0.0,0.0,0.0,0.0,0.0,0.0,0.0,0.0,0.0,2.9533,2.8773,2.8291,2.8084,2.8278,2.836,0.0,0.0,0.0,0.0,0.0,0.0,0.0,0.0,0.0,0.0,0.0,0.0,0.0,0.0,0.0,0.0,0.0,0.0,0.0,0.0,0.0,0.0,0.0,0.0,0.0,0.0,0.0,0.0,0.0,0.0,0.0,0.0,0.0,0.0,0.0,0.0,0.0,0.0,0.0,0.0,0.0,0.0,0.0,0.0,0.0,0.0,0.0,0.0,0.0,0.0,0.0,0.0,0.0,0.0,0.0,0.0,0.0,0.0,0.0,0.0,0.0,0.0,0.0,0.0,0.0,0.0,0.0,0.0,0.0,0.0,0.0,0.0,0.0,0.0,0.0,0.0,0.0,0.0,0.0,0.0,0.0,0.0,0.0,0.0,0.0,0.0,0.0,0.0,0.0,0.0,0.0,0.0,0.0,0.0,0.0,0.0,0.0,0.0,0.0,0.0,0.0,0.0,0.0,0.0,0.0,0.0,0.0,0.0,0.0,2.8921,2.8395,2.8034,2.7908,2.8034,2.8124,2.8178,0.0,0.0,0.0,0.0,0.0,0.0,0.0,0.0,0.0,0.0,0.0,0.0,0.0,0.0,0.0,0.0,0.0,0.0,0.0,0.0,0.0,0.0,0.0,0.0,0.0,0.0,0.0,0.0,0.0,0.0,0.0,0.0,0.0,0.0,0.0,0.0,0.0,0.0,0.0,0.0,0.0,0.0,0.0,0.0,0.0,0.0,0.0,0.0,0.0,0.0,0.0,0.0,0.0,0.0,0.0,0.0,0.0,0.0,0.0,0.0,0.0,0.0,0.0,0.0,0.0,0.0,0.0,0.0,0.0,0.0,0.0,0.0,0.0,0.0,0.0,0.0,0.0,0.0,0.0,0.0,0.0,0.0,0.0,0.0,0.0,0.0,0.0,0.0,0.0,0.0,0.0,0.0,0.0,0.0,0.0,0.0,0.0,0.0,0.0,0.0,0.0,0.0,0.0,0.0,0.0,0.0,0.0,0.0,2.8136,2.8098,2.8312,2.8725,2.8263,2.8287,0.0,0.0,0.0,0.0,0.0,0.0,0.0,0.0,0.0,0.0,0.0,0.0,0.0,0.0,0.0,0.0,0.0,0.0,0.0,0.0,0.0,0.0,0.0,0.0,0.0,0.0,0.0,0.0,0.0,0.0,0.0,0.0,0.0,0.0,0.0,0.0,0.0,0.0,0.0,0.0,0.0,0.0,0.0,0.0,0.0,0.0,0.0,0.0,0.0,0.0,0.0,0.0,0.0,0.0,0.0,0.0,0.0,0.0,0.0,0.0,0.0,0.0,0.0,0.0,0.0,0.0,0.0,0.0,0.0,0.0,0.0,0.0,0.0,0.0,0.0,0.0,0.0,0.0,0.0,0.0,0.0,0.0,0.0,0.0,0.0,0.0,0.0,0.0,0.0,0.0,0.0,0.0,0.0,0.0,0.0,0.0,0.0,0.0,0.0,0.0,0.0,0.0,0.0,0.0,0.0,0.0,0.0,0.0,0.0,2.8164,2.811,2.7975,2.7734,2.7207,2.7367,0.0,0.0,0.0,0.0,0.0,0.0,0.0,0.0,0.0,0.0,0.0,0.0,0.0,0.0,0.0,0.0,0.0,0.0,0.0,0.0,0.0,0.0,0.0,0.0,0.0,0.0,0.0,0.0,0.0,0.0,0.0,0.0,0.0,0.0,0.0,0.0,0.0,0.0,0.0,0.0,0.0,0.0,0.0,0.0,0.0,0.0,0.0,0.0,0.0,0.0,0.0,0.0,0.0,0.0,0.0,0.0,0.0,0.0,0.0,0.0,0.0,0.0,0.0,0.0,0.0,0.0,0.0,0.0,0.0,0.0,0.0,0.0,0.0,0.0,0.0,0.0,0.0,0.0,0.0,0.0,0.0,0.0,0.0,0.0,0.0,0.0,0.0,0.0,0.0,0.0,0.0,0.0,0.0,0.0,0.0,0.0,0.0,0.0,0.0,0.0,0.0,0.0,0.0,0.0,0.0,0.0,0.0,0.0,2.9028,2.7481,2.74,2.7048,2.6266,2.6834,2.7465,0.0,0.0,0.0,0.0,0.0,0.0,0.0,0.0,0.0,0.0,0.0,0.0,0.0,0.0,0.0,0.0,0.0,0.0,0.0,0.0,0.0,0.0,0.0,0.0,0.0,0.0,0.0,0.0,0.0,0.0,0.0,0.0,0.0,0.0,0.0,0.0,0.0,0.0,0.0,0.0,0.0,0.0,0.0,0.0,0.0,0.0,0.0,0.0,0.0,0.0,0.0,0.0,0.0,0.0,0.0,0.0,0.0,0.0,0.0,0.0,0.0,0.0,0.0,0.0,0.0,0.0,0.0,0.0,0.0,0.0,0.0,0.0,0.0,0.0,0.0,0.0,0.0,0.0,0.0,0.0,0.0,0.0,0.0,0.0,0.0,0.0,0.0,0.0,0.0,0.0,0.0,0.0,0.0,0.0,0.0,0.0,0.0,0.0,0.0,0.0,0.0,0.0,0.0,0.0,0.0,0.0,0.0,0.0,2.8621,2.6565,2.6389,2.5797,2.4755,2.6521,2.7671,0.0,0.0,0.0,0.0,0.0,0.0,0.0,0.0,0.0,0.0,0.0,0.0,0.0,0.0,0.0,0.0,0.0,0.0,0.0,0.0,0.0,0.0,0.0,0.0,0.0,0.0,0.0,0.0,0.0,0.0,0.0,0.0,0.0,0.0,0.0,0.0,0.0,0.0,0.0,0.0,0.0,0.0,0.0,0.0,0.0,0.0,0.0,0.0,0.0,0.0,0.0,0.0,0.0,0.0,0.0,0.0,0.0,0.0,0.0,0.0,0.0,0.0,0.0,0.0,0.0,0.0,0.0,0.0,0.0,0.0,0.0,0.0,0.0,0.0,0.0,0.0,0.0,0.0,0.0,0.0,0.0,0.0,0.0,0.0,0.0,0.0,0.0,0.0,0.0,0.0,0.0,0.0,0.0,0.0,0.0,0.0,0.0,0.0,0.0,0.0,0.0,0.0,0.0,0.0,0.0,0.0,0.0,0.0,2.7815,2.6565,2.5641,2.4628,2.3517,2.393,2.501,0.0,0.0,0.0,0.0,0.0,0.0,0.0,0.0,0.0,0.0,0.0,0.0,0.0,0.0,0.0,0.0,0.0,0.0,0.0,0.0,0.0,0.0,0.0,0.0,0.0,0.0,0.0,0.0,0.0,0.0,0.0,0.0,0.0,0.0,0.0,0.0,0.0,0.0,0.0,0.0,0.0,0.0,0.0,0.0,0.0,0.0,0.0,0.0,3.5779,0.0,0.0,0.0,0.0,0.0,0.0,0.0,0.0,0.0,0.0,0.0,0.0,0.0,0.0,0.0,0.0,0.0,0.0,0.0,0.0,0.0,0.0,0.0,0.0,0.0,0.0,0.0,0.0,0.0,0.0,0.0,0.0,0.0,0.0,0.0,0.0,0.0,0.0,0.0,0.0,0.0,0.0,0.0,0.0,0.0,0.0,0.0,0.0,0.0,0.0,0.0,0.0,0.0,0.0,0.0,0.0,0.0,0.0,0.0,2.7562,2.6513,2.5378,2.45,2.393,2.392,2.4723,0.0,0.0,0.0,0.0,0.0,0.0,0.0,0.0,0.0,0.0,0.0,0.0,0.0,0.0,0.0,0.0,0.0,0.0,0.0,0.0,0.0,0.0,0.0,0.0,0.0,0.0,0.0,0.0,0.0,0.0,0.0,0.0,0.0,0.0,0.0,0.0,0.0,0.0,0.0,0.0,0.0,0.0,0.0,0.0,0.0,0.0,0.0,0.0,0.0,0.0,0.0,0.0,0.0,0.0,0.0,0.0,0.0,0.0,0.0,0.0,0.0,0.0,0.0,0.0,0.0,0.0,0.0,0.0,0.0,0.0,0.0,0.0,0.0,0.0,0.0,0.0,0.0,0.0,0.0,0.0,0.0,0.0,0.0,0.0,0.0,0.0,0.0,0.0,0.0,0.0,0.0,0.0,0.0,0.0,0.0,0.0,0.0,0.0,0.0,0.0,0.0,0.0,0.0,0.0,0.0,0.0,0.0,2.8688,2.7562,2.6524,2.5389,2.4798,2.4798,2.4957,2.5588,2.6719,0.0,0.0,0.0,0.0,0.0,0.0,0.0,0.0,0.0,0.0,0.0,0.0,0.0,0.0,0.0,0.0,0.0,0.0,0.0,0.0,0.0,0.0,0.0,0.0,0.0,0.0,0.0,0.0,0.0,0.0,0.0,0.0,0.0,0.0,0.0,0.0,0.0,0.0,3.5684,3.5587,0.0,0.0,0.0,0.0,0.0,0.0,0.0,0.0,3.4588,0.0,0.0,0.0,0.0,0.0,0.0,0.0,0.0,0.0,0.0,0.0,0.0,0.0,0.0,0.0,0.0,0.0,0.0,0.0,0.0,0.0,0.0,0.0,0.0,0.0,0.0,0.0,0.0,0.0,0.0,0.0,0.0,0.0,0.0,0.0,0.0,0.0,0.0,0.0,0.0,0.0,0.0,0.0,0.0,0.0,0.0,0.0,0.0,0.0,0.0,0.0,0.0,0.0,0.0,0.0,0.0,2.9779,2.8688,2.7614,2.6513,2.5378,2.4798,2.484,2.5714,2.6719,2.7763,0.0,0.0,0.0,0.0,0.0,0.0,0.0,0.0,0.0,0.0,0.0,0.0,0.0,0.0,0.0,0.0,0.0,0.0,0.0,0.0,0.0,0.0,0.0,0.0,0.0,0.0,0.0,0.0,0.0,0.0,0.0,0.0,0.0,0.0,0.0,0.0,0.0,0.0,0.0,3.5497,3.5528,0.0,0.0,0.0,0.0,0.0,0.0,0.0,0.0,3.4667,0.0,0.0,0.0,0.0,0.0,0.0,0.0,0.0,0.0,0.0,0.0,0.0,0.0,0.0,0.0,0.0,0.0,0.0,0.0,0.0,0.0,0.0,0.0,0.0,0.0,0.0,0.0,0.0,0.0,0.0,0.0,0.0,0.0,0.0,0.0,0.0,0.0,0.0,0.0,0.0,0.0,0.0,0.0,0.0,0.0,0.0,0.0,0.0,0.0,0.0,0.0,0.0,0.0,0.0,0.0,2.974,2.8688,2.7844,2.7319,2.6254,2.5964,2.6479,2.7064,2.7867,0.0,0.0,0.0,0.0,0.0,0.0,0.0,0.0,0.0,0.0,0.0,0.0,0.0,0.0,0.0,0.0,0.0,0.0,0.0,0.0,0.0,0.0,0.0,0.0,0.0,0.0,0.0,0.0,0.0,0.0,0.0,0.0,0.0,0.0,0.0,0.0,0.0,0.0,0.0,0.0,3.5489,3.5489,3.5489,0.0,0.0,0.0,0.0,0.0,0.0,3.4282,3.4164,0.0,0.0,0.0,0.0,0.0,0.0,0.0,0.0,0.0,0.0,0.0,0.0,0.0,0.0,0.0,0.0,0.0,0.0,0.0,0.0,0.0,0.0,0.0,0.0,0.0,0.0,0.0,0.0,0.0,0.0,0.0,0.0,0.0,0.0,0.0,0.0,0.0,0.0,0.0,0.0,0.0,0.0,0.0,0.0,0.0,0.0,0.0,0.0,0.0,0.0,0.0,0.0,0.0,0.0,0.0,2.9792,2.8897,2.8347,2.8096,2.729,2.7238,2.8044,2.8084,2.8636,0.0,0.0,0.0,0.0,0.0,0.0,0.0,0.0,0.0,0.0,0.0,0.0,0.0,0.0,0.0,0.0,0.0,0.0,0.0,0.0,0.0,0.0,0.0,0.0,0.0,0.0,0.0,0.0,0.0,0.0,0.0,0.0,0.0,0.0,0.0,0.0,0.0,0.0,0.0,0.0,0.0,3.5549,3.5684,3.5699,0.0,0.0,0.0,0.0,3.4696,3.4152,0.0,0.0,0.0,0.0,0.0,0.0,0.0,0.0,0.0,0.0,0.0,0.0,0.0,0.0,0.0,0.0,0.0,0.0,0.0,0.0,0.0,0.0,0.0,0.0,0.0,0.0,0.0,0.0,0.0,0.0,0.0,0.0,0.0,0.0,0.0,0.0,0.0,0.0,0.0,0.0,0.0,0.0,0.0,0.0,0.0,0.0,0.0,0.0,0.0,0.0,0.0,0.0,0.0,0.0,0.0,0.0,2.983,2.9675,2.9106,2.8124,2.7976,2.7976,2.8084,2.8084,2.8648,0.0,0.0,0.0,0.0,0.0,0.0,0.0,0.0,0.0,0.0,0.0,0.0,0.0,0.0,0.0,0.0,0.0,0.0,0.0,0.0,0.0,0.0,0.0,0.0,0.0,0.0,0.0,0.0,0.0,0.0,0.0,0.0,0.0,0.0,0.0,0.0,0.0,0.0,0.0,0.0,0.0,3.5714,3.6297,3.6372,3.6567,0.0,0.0,3.6043,3.5489,3.4836,0.0,0.0,0.0,0.0,0.0,0.0,0.0,0.0,0.0,0.0,0.0,0.0,0.0,0.0,0.0,0.0,0.0,0.0,0.0,0.0,0.0,0.0,0.0,0.0,0.0,0.0,0.0,0.0,0.0,0.0,0.0,0.0,0.0,0.0,0.0,0.0,0.0,0.0,0.0,0.0,0.0,0.0,0.0,0.0,0.0,0.0,0.0,0.0,0.0,0.0,0.0,0.0,0.0,0.0,0.0,3.1267,2.9908,3.0317,3.0101,2.9106,2.9067,2.9067,2.9055,2.9055,2.9287,0.0,0.0,0.0,0.0,0.0,0.0,0.0,0.0,0.0,0.0,0.0,0.0,0.0,0.0,0.0,0.0,0.0,0.0,0.0,0.0,0.0,0.0,0.0,0.0,0.0,0.0,0.0,0.0,0.0,0.0,0.0,0.0,0.0,0.0,0.0,0.0,0.0,0.0,0.0,0.0,0.0,0.0,3.6432,3.6791,0.0,0.0,0.0,3.6387,3.6103,0.0,0.0,0.0,0.0,0.0,0.0,0.0,0.0,0.0,0.0,0.0,0.0,0.0,0.0,0.0,0.0,0.0,0.0,0.0,0.0,0.0,0.0,0.0,0.0,0.0,0.0,0.0,0.0,0.0,0.0,0.0,0.0,0.0,0.0,0.0,0.0,0.0,0.0,0.0,0.0,0.0,0.0,0.0,0.0,0.0,0.0,0.0,0.0,0.0,0.0,0.0,0.0,0.0,0.0,0.0,0.0,0.0,3.0558,3.118,3.123,3.0533,3.0292,3.0254,3.0495,3.0279,0.0,0.0,0.0,0.0,0.0,0.0,0.0,0.0,0.0,0.0,0.0,0.0,0.0,0.0,0.0,0.0,0.0,0.0,0.0,0.0,0.0,0.0,0.0,0.0,0.0,0.0,0.0,4.0113,0.0,0.0,0.0,0.0,0.0,0.0,0.0,0.0,0.0,0.0,0.0,0.0,0.0,0.0,3.663,3.6926,3.736,3.7719,0.0,0.0,3.6911,3.6746,3.5776,3.5112,0.0,0.0,0.0,0.0,0.0,0.0,0.0,0.0,0.0,0.0,0.0,0.0,0.0,0.0,0.0,0.0,0.0,0.0,0.0,0.0,0.0,0.0,0.0,0.0,0.0,0.0,0.0,0.0,0.0,0.0,0.0,0.0,0.0,0.0,0.0,0.0,0.0,0.0,0.0,0.0,0.0,0.0,0.0,0.0,0.0,0.0,0.0,0.0,0.0,0.0,0.0,0.0,0.0,0.0,3.3415,3.2464,3.25,3.2478,3.2393,3.1573,3.1536,3.2357,3.1573,3.1119,0.0,0.0,0.0,0.0,0.0,0.0,0.0,0.0,0.0,0.0,0.0,0.0,0.0,0.0,0.0,0.0,0.0,0.0,0.0,0.0,0.0,0.0,0.0,0.0,0.0,0.0,0.0,0.0,0.0,0.0,0.0,0.0,0.0,0.0,0.0,0.0,0.0,0.0,0.0,0.0,0.0,3.6926,3.8093,3.8302,3.8556,0.0,3.8706,3.8048,3.7434,3.6791,3.6166,3.5599,0.0,0.0,0.0,0.0,0.0,0.0,0.0,0.0,0.0,0.0,0.0,0.0,0.0,0.0,0.0,0.0,0.0,0.0,0.0,0.0,0.0,0.0,0.0,0.0,0.0,0.0,0.0,0.0,0.0,0.0,0.0,0.0,0.0,0.0,0.0,0.0,0.0,0.0,0.0,0.0,0.0,0.0,0.0,0.0,0.0,0.0,0.0,0.0,0.0,0.0,0.0,0.0,0.0,3.4972,3.3886,3.4417,3.4417,3.385,3.3481,3.3495,3.3813,3.306,3.2686,0.0,0.0,0.0,0.0,0.0,0.0,0.0,0.0,0.0,0.0,0.0,0.0,0.0,0.0,0.0,0.0,0.0,0.0,0.0,0.0,0.0,0.0,0.0,0.0,0.0,0.0,0.0,0.0,4.0113,4.0113,4.0113,0.0,0.0,0.0,0.0,0.0,0.0,0.0,0.0,0.0,0.0,3.8476,3.8422,3.8751,0.0,0.0,3.8826,3.8302,3.8048,3.715,3.6402,3.6148,3.5549,0.0,0.0,0.0,0.0,0.0,0.0,0.0,0.0,0.0,0.0,0.0,0.0,0.0,0.0,0.0,0.0,0.0,0.0,0.0,0.0,0.0,0.0,0.0,0.0,0.0,0.0,0.0,0.0,0.0,0.0,0.0,0.0,0.0,0.0,0.0,0.0,0.0,0.0,0.0,0.0,0.0,0.0,0.0,0.0,0.0,0.0,0.0,0.0,0.0,0.0,0.0,0.0,3.631,3.5443,3.6057,3.6107,3.5457,3.5187,3.515,3.5407,3.4699,3.4315,0.0,0.0,0.0,0.0,0.0,0.0,0.0,0.0,0.0,0.0,0.0,0.0,0.0,0.0,0.0,0.0,0.0,0.0,0.0,0.0,0.0,0.0,0.0,0.0,0.0,0.0,0.0,0.0,4.0113,4.0113,4.0113,0.0,0.0,0.0,0.0,0.0,0.0,0.0,0.0,0.0,0.0,3.9922,3.9464,3.9612,3.9777,3.9715,3.914,3.8631,3.8422,3.7644,3.6974,3.6552,0.0,0.0,0.0,0.0,0.0,0.0,0.0,0.0,0.0,0.0,0.0,0.0,0.0,0.0,0.0,0.0,0.0,0.0,0.0,0.0,0.0,0.0,0.0,0.0,0.0,0.0,0.0,0.0,0.0,0.0,4.4497,0.0,0.0,0.0,0.0,0.0,0.0,0.0,0.0,0.0,0.0,0.0,0.0,0.0,0.0,0.0,0.0,0.0,0.0,0.0,0.0,0.0,0.0,3.737,3.7366,3.7396,3.7381,3.7282,3.6441,3.6435,3.7277,3.6426,3.5956,3.5942,0.0,0.0,0.0,0.0,0.0,0.0,0.0,0.0,0.0,0.0,0.0,0.0,0.0,0.0,0.0,0.0,0.0,0.0,0.0,0.0,0.0,0.0,0.0,0.0,0.0,0.0,4.0163,4.013,4.0146,0.0,0.0,0.0,0.0,0.0,0.0,0.0,0.0,0.0,0.0,4.0957,4.1134,4.155,4.109,4.0628,4.0467,3.9835,3.9191,3.8582,3.8397,3.7928,0.0,0.0,0.0,0.0,0.0,0.0,0.0,0.0,0.0,0.0,0.0,0.0,0.0,0.0,0.0,0.0,0.0,0.0,0.0,0.0,0.0,0.0,0.0,0.0,0.0,0.0,0.0,4.4598,4.4598,0.0,0.0,0.0,0.0,0.0,0.0,0.0,0.0,0.0,0.0,0.0,4.3752,4.4057,0.0,0.0,0.0,0.0,0.0,0.0,0.0,0.0,0.0,0.0,0.0,0.0,3.8287,3.8721,3.8751,3.8751,3.8715,3.8436,3.84,3.8701,3.7991,3.739,3.6941,0.0,0.0,0.0,0.0,0.0,0.0,0.0,0.0,0.0,0.0,0.0,0.0,0.0,0.0,0.0,0.0,0.0,0.0,0.0,0.0,0.0,0.0,0.0,0.0,0.0,4.1542,0.0,0.0,0.0,0.0,0.0,0.0,0.0,0.0,0.0,0.0,0.0,4.216,4.1855,4.2225,4.2536,4.2612,4.202,4.1715,0.0,0.0,0.0,0.0,0.0,0.0,0.0,0.0,0.0,0.0,0.0,0.0,0.0,0.0,3.5913,3.5356,3.5085,3.4925,3.4941,0.0,0.0,0.0,0.0,0.0,0.0,0.0,0.0,0.0,0.0,0.0,0.0,0.0,0.0,4.4598,0.0,4.4598,0.0,0.0,0.0,0.0,0.0,0.0,0.0,0.0,4.4598,4.4598,4.4598,4.4598,4.4598,0.0,4.4598,4.385,0.0,0.0,0.0,0.0,0.0,0.0,0.0,0.0,3.9864,4.0309,4.0305,4.0165,3.9864,3.9864,3.9702,3.9409,3.9264,3.9127,3.9023,3.9321,3.9244,0.0,0.0,0.0,0.0,0.0,0.0,0.0,0.0,0.0,0.0,0.0,0.0,0.0,0.0,0.0,0.0,0.0,0.0,0.0,0.0,0.0,0.0,0.0,4.2303,0.0,0.0,0.0,0.0,0.0,0.0,0.0,0.0,0.0,4.2033,4.3047,4.3715,4.3448,4.4055,4.4464,4.4302,0.0,0.0,0.0,0.0,0.0,0.0,0.0,4.0427,4.0192,3.9329,3.8455,3.7827,3.7732,3.7791,3.7791,0.0,0.0,3.5865,3.5414,3.52,3.4932,3.4484,3.4132,3.4162,3.3804,3.3499,0.0,0.0,0.0,0.0,0.0,0.0,0.0,0.0,4.4766,4.4794,0.0,4.4743,0.0,0.0,0.0,0.0,0.0,4.4654,0.0,0.0,4.4598,4.4598,4.4598,4.4598,4.4598,4.4598,4.4598,4.4581,4.4508,4.3693,0.0,0.0,0.0,0.0,0.0,0.0,4.1981,4.1965,4.1949,4.1576,4.0777,4.0758,4.0343,3.9589,4.0309,4.1082,4.1885,4.1357,4.1052,4.1005,4.0439,0.0,0.0,0.0,0.0,0.0,0.0,0.0,0.0,0.0,0.0,0.0,0.0,0.0,0.0,0.0,0.0,0.0,0.0,0.0,0.0,4.2337,0.0,0.0,0.0,0.0,0.0,0.0,0.0,0.0,0.0,0.0,4.3527,4.4164,4.4919,4.559,0.0,0.0,0.0,0.0,4.5175,4.4328,4.3602,4.2896,4.2222,4.2045,4.1821,4.1195,0.0,0.0,4.0135,4.0005,4.0003,4.0035,4.0015,3.9138,3.634,3.5441,3.4745,3.3985,3.3848,3.3621,3.3605,3.3756,3.3664,4.775,0.0,0.0,0.0,0.0,4.6786,4.6886,4.6914,4.7422,4.7356,4.6798,4.6798,0.0,0.0,0.0,0.0,0.0,0.0,4.5258,4.5232,4.4786,4.4598,4.4598,4.4598,4.4598,4.4598,4.4598,4.4598,4.457,4.4338,4.3785,4.2909,0.0,0.0,0.0,0.0,4.1981,4.1981,4.1981,4.1869,4.1642,4.1642,4.1511,4.1262,4.1511,4.1739,4.1997,4.2388,4.2337,4.1741,4.2164,0.0,0.0,0.0,0.0,0.0,0.0,0.0,0.0,0.0,0.0,0.0,0.0,0.0,0.0,0.0,0.0,0.0,0.0,0.0,4.3904,4.342,4.3318,0.0,0.0,0.0,0.0,0.0,0.0,0.0,0.0,0.0,4.5754,4.5568,4.5652,0.0,0.0,4.6967,4.7449,4.6428,4.5714,4.5974,4.499,0.0,4.3889,4.3336,4.289,4.2678,4.173,4.094,4.0762,4.0783,4.0869,4.0885,4.1297,4.1028,3.9247,3.8194,3.7435,3.6693,3.6091,3.5538,3.5065,3.4936,3.4921,4.9304,4.843,4.7593,4.7242,4.7251,4.7634,4.779,4.7844,4.8584,4.8635,4.8168,4.8168,4.7877,4.7357,4.7074,0.0,0.0,0.0,4.5858,4.584,4.5468,4.532,4.532,4.532,4.5178,4.4944,4.4961,4.4841,4.4598,4.4598,4.4327,4.3814,0.0,0.0,4.3031,4.3031,4.3031,4.3031,4.3015,4.2878,4.252,4.2189,4.2157,4.2489,4.2537,4.2693,4.3015,4.3545,4.3575,4.3075,4.3571,4.3648,0.0,0.0,0.0,0.0,0.0,0.0,0.0,0.0,0.0,0.0,0.0,4.2726,4.2743,0.0,0.0,0.0,4.3859,4.4062,4.4564,4.4388,0.0,0.0,0.0,0.0,0.0,0.0,0.0,4.6926,4.6978,4.7227,4.7952,4.7397,4.7016,4.7204,4.7496,4.7834,4.8291,0.0,4.6633,4.6786,4.5788,4.4908,4.4637,4.4167,4.3814,4.3814,4.3079,4.2452,4.2436,4.2502,4.2555,4.2579,4.2656,4.2456,4.156,4.0568,3.9345,3.8002,3.7109,3.6461,3.5991,3.5701,3.5489,5.1086,5.0928,4.8971,4.8167,4.8141,4.8156,4.8153,4.8206,4.8937,4.9214,4.9143,4.9143,4.9125,4.9001,4.8277,0.0,4.6749,4.6702,4.6661,4.6584,4.6519,4.646,4.6389,4.6389,4.6112,4.5571,4.5537,4.5205,4.4709,4.4626,4.4598,4.4598,4.4598,4.4598,4.4598,4.457,4.4598,4.4598,4.457,4.4196,4.3396,4.2598,4.2583,4.3366,4.3396,4.3785,4.4559,4.4598,4.4598,4.4598,4.4598,4.4598,4.4598,0.0,0.0,0.0,0.0,0.0,0.0,0.0,0.0,0.0,0.0,0.0,0.0,0.0,0.0,0.0,4.4771,0.0,4.4946,4.543,0.0,0.0,0.0,4.8097,4.8819,4.889,4.8944,4.8972,0.0,0.0,5.0004,4.9503,4.8825,4.8222,4.864,4.9018,4.9018,4.8244,4.7581,4.6887,4.6109,4.5348,4.4716,4.4542,4.4514,4.4497,4.4598,4.4463,4.4463,4.4463,4.4553,4.4305,4.3876,4.3274,4.3223,4.1919,4.0541,3.8424,3.7397,3.6813,3.6707,3.6228,3.5846,5.1086,5.106,5.0567,5.0336,5.0399,5.0862,5.1088,5.1155,5.186,5.1836,5.1271,5.1252,5.0921,5.0356,5.0156,4.9956,4.9752,4.923,4.8668,4.8066,4.7612,4.7015,4.6407,4.6389,4.6336,4.6167,4.5707,4.5433,4.5284,4.4814,4.4598,4.4598,4.4598,4.4598,4.4598,4.4598,4.4598,4.4598,4.4598,4.4514,4.4298,4.4093,4.4093,4.4298,4.4281,4.4384,4.457,4.4598,4.4598,4.4598,4.4598,4.4598,4.4598,4.4598,0.0,0.0,0.0,0.0,0.0,0.0,0.0,0.0,0.0,4.4299,4.4299,0.0,4.4786,0.0,4.6315,4.7204,4.7809,4.8013,0.0,0.0,4.8519,4.8671,4.889,4.889,4.9114,4.9692,4.9745,5.0021,5.074,5.069,5.0515,5.0363,4.9578,4.9018,4.8968,4.7868,4.7005,4.6718,4.5703,4.4835,4.4649,4.4598,4.4598,4.4598,4.4598,4.4598,4.4598,4.4598,4.4384,4.3826,4.3544,4.2987,4.1982,4.1424,4.0856,3.9785,3.8908,3.8173,3.7661,3.7354,3.7235,5.2036,5.2054,5.2054,5.2054,5.2036,5.2089,5.2112,5.2159,5.2875,5.2968,5.2546,5.2546,5.2087,5.1353,5.1334,5.1132,5.0782,5.0401,5.0019,4.9562,4.888,4.8275,4.7803,4.7421,4.711,4.6824,4.6519,4.6185,4.589,4.5571,4.5381,4.5399,4.5142,4.4998,4.4998,4.4748,4.4598,4.4598,4.4598,4.4598,4.4598,4.4598,4.4598,4.4598,4.4598,4.4598,4.4598,4.4598,4.4598,4.4598,4.4598,4.4598,4.4598,4.4869,4.4981,0.0,0.0,0.0,0.0,0.0,0.0,0.0,0.0,0.0,0.0,0.0,4.6274,4.6955,4.7759,4.8422,4.8873,4.9126,4.9442,4.98,5.0088,5.043,5.0772,5.0808,5.0966,5.1375,5.1429,5.1567,5.1982,5.1752,5.1544,5.1519,5.0626,4.9809,4.9325,4.7937,4.6786,4.6735,4.5579,4.4598,4.4598,4.4598,4.4598,4.4598,4.4598,4.4598,4.4581,4.431,4.391,4.346,4.2868,4.2175,4.1373,4.0899,4.0544,4.0197,3.9756,3.9183,3.8442,3.8035,3.7822,5.3185,5.3185,5.3185,5.3185,5.3146,5.2531,5.2247,5.2289,5.2915,5.3185,5.3185,5.3185,5.2821,5.216,5.216,5.1756,5.1114,5.1114,5.1059,5.0912,5.0105,4.9702,4.9555,4.871,4.8035,4.753,4.7428,4.7106,4.6524,4.6436,4.6389,4.6365,4.5865,4.5622,4.5597,4.5089,4.4748,4.4598,4.4598,4.4598,4.4598,4.4598,4.4598,4.4598,4.4598,4.4598,4.4598,4.4598,4.4626,4.472,4.4737,4.4731,4.4841,4.532,4.5622,0.0,4.6112,0.0,0.0,0.0,0.0,0.0,0.0,0.0,0.0,4.7435,4.8306,4.9101,4.9263,4.9329,4.9454,4.9919,5.052,5.1217,5.1794,5.2435,5.3093,5.3185,5.3185,5.3185,5.3185,5.3185,5.3103,5.2621,5.2247,5.2201,5.1636,5.0911,5.0083,4.8306,4.6922,4.6796,4.5552,4.4598,4.4598,4.4598,4.4598,4.4598,4.4598,4.4598,4.4598,4.3961,4.3358,4.3139,4.2158,4.1255,4.1102,4.0553,4.0146,4.0113,4.0045,3.9808,3.9209,3.8624,3.8121,5.3185,5.3185,5.3185,5.3185,5.3185,5.306,5.2999,5.2999,5.3124,5.3185,5.3185,5.3185,5.3115,5.2986,5.2986,5.2873,5.2766,5.2766,5.2399,5.1738,5.0949,5.0215,4.9574,4.871,4.823,4.8094,4.7653,4.7342,4.7194,4.6664,4.6389,4.6389,4.6288,4.6216,4.6216,0.0,0.0,0.0,4.4598,4.4598,4.4598,4.4598,4.4598,4.4598,4.4598,0.0,4.4598,4.4598,4.4814,4.5294,4.532,0.0,0.0,0.0,0.0,0.0,0.0,0.0,0.0,0.0,0.0,0.0,4.8075,4.787,4.7518,4.8637,4.9726,5.0528,5.1115,5.1682,5.2339,5.248,5.2636,5.2764,5.2904,5.302,5.3185,5.3185,5.3185,5.3185,5.3185,5.3185,5.3185,5.3082,5.2999,5.2915,5.2358,5.1634,5.082,4.8916,4.741,4.6707,4.5501,4.4654,4.4598,4.4637,4.4692,4.4598,4.4598,4.4598,4.4513,4.391,4.3139,4.2625,4.1796,4.0984,4.0451,4.018,4.0113,4.0113,4.0113,4.007,3.9918,3.9773,3.9679,5.3185,0.0,5.3185,5.3185,0.0,5.3185,5.3185,5.3185,5.3185,5.3185,5.3185,5.3185,5.3185,5.3185,5.3185,5.3185,5.3185,5.3185,5.2986,5.2527,5.1353,5.0582,5.0141,4.8912,4.8324,4.8287,4.7995,4.7838,4.7818,4.7512,4.7345,4.7345,4.7026,4.691,4.6869,4.6571,4.6112,4.5494,4.5485,4.5346,4.5062,4.5052,4.4923,4.4626,4.4879,0.0,0.0,0.0,0.0,0.0,0.0,0.0,0.0,4.671,0.0,4.691,4.7176,4.7327,4.7345,4.7764,4.829,4.9037,4.9843,5.0134,4.9852,5.0475,5.1209,5.2014,5.2398,5.2747,5.313,5.3185,5.3185,5.3185,5.3185,5.3185,5.3185,5.3185,5.3185,5.3185,5.3185,5.3185,5.3185,5.3185,5.3185,5.3148,5.255,5.1766,5.0897,4.94,4.7917,4.6728,4.6003,4.5511,4.5485,4.5485,4.5346,4.5142,4.5052,4.4736,4.4118,4.3369,4.2625,4.188,4.1153,4.051,4.0231,4.0113,4.0113,4.0113,4.0113,4.0113,4.0113,4.0113,3.9977,5.3185,5.3185,5.3185,5.3185,5.3185,5.3185,5.3185,5.3185,0.0,0.0,0.0,5.3185,5.3185,5.3185,5.3185,5.3185,5.3185,5.3185,5.3185,5.3133,5.1555,5.082,5.0729,4.9095,4.8324,4.8324,4.8324,4.8324,4.8324,4.8324,4.8324,4.8267,4.7797,4.7551,4.753,4.7021,4.6733,4.6733,4.6524,4.6167,4.5681,4.5656,4.5425,4.4934,4.5381,4.5673,4.5673,4.6119,4.6436,4.6571,4.6571,4.6618,4.6756,4.7259,4.7533,4.7591,4.8181,4.8526,4.8563,4.9334,4.9886,5.0014,5.1371,5.2197,5.2215,5.2215,5.2491,5.3151,5.3185,5.3185,5.3185,5.3185,5.3185,5.3185,5.3185,5.3185,5.3185,5.3185,5.3185,5.3185,5.3185,5.3185,5.3185,5.3185,5.3133,5.2949,5.2415,5.161,5.0643,4.9325,4.795,4.6684,4.6281,4.6318,4.6365,4.6336,4.6209,4.5732,4.5673,4.5139,4.3919,4.3036,4.233,4.1605,4.0739,4.0364,4.0254,4.0154,4.0096,4.0113,4.0113,4.0113,4.0113,4.0113,3.9876,5.3185,5.3185,5.3185,5.3185,5.3185,5.3185,5.3185,5.3185,5.3185,5.3185,5.3185,5.3185,5.3185,5.3185,5.3185,5.3185,5.3185,5.3185,5.3185,5.3093,5.1555,5.082,5.071,4.9077,4.8324,4.8324,4.8324,4.8324,4.8324,4.8324,4.8324,4.8287,4.821,4.8172,4.8172,4.8075,4.8017,4.7997,4.6955,4.6359,4.6288,4.6264,4.624,4.6161,4.6216,4.6264,4.6288,4.6383,4.6664,4.7216,4.7259,4.7491,4.7997,4.8113,4.8172,4.8208,4.8964,4.9427,4.9427,5.0178,5.093,5.161,5.2509,5.3041,5.3041,5.302,5.3078,5.3185,5.3185,5.3185,5.3185,5.3185,5.3185,5.3185,5.3185,5.3185,5.3185,5.3185,5.3185,5.3185,5.3185,5.3206,5.3112,5.313,5.2858,5.2325,5.1903,5.1428,4.9933,4.8517,4.7348,4.6583,4.6389,4.6389,4.653,4.6413,4.6413,4.6312,4.6288,4.5789,4.4385,4.392,4.3249,4.2147,4.1298,4.0849,4.078,4.0392,4.0254,4.0229,4.0254,4.0221,4.0179,4.0129,3.9825,5.3185,5.3185,5.3185,5.3185,5.3185,5.3185,5.3185,5.3185,5.3185,5.3185,5.3185,5.3185,5.3185,5.3185,5.3185,5.3185,5.3185,5.3185,5.3185,5.3075,5.1555,5.082,5.0637,4.9114,4.8324,4.8324,4.8324,4.8324,4.8324,4.8324,4.8324,4.8324,4.8324,4.8324,4.8324,4.8324,4.8324,4.8287,4.7738,4.7281,4.6955,4.6932,4.6778,4.643,4.6733,4.6937,4.6955,4.7259,4.7575,4.7858,4.7897,4.8015,4.8287,4.8765,4.8985,4.9022,4.9774,5.0233,5.0233,5.1004,5.1793,5.2582,5.2986,5.3185,5.3185,5.3185,5.3185,5.3185,5.3185,5.3185,5.3185,5.3185,5.3185,5.3185,5.3185,5.3185,5.3185,5.3185,5.3185,5.3185,5.3185,5.302,5.2601,5.2546,5.2252,5.1481,5.1022,5.0233,4.9095,4.8367,4.7759,4.7494,4.7431,4.7431,4.7428,4.7431,4.7302,4.7021,4.6955,4.6171,4.4706,4.4152,4.3495,4.2254,4.1608,4.1415,4.1402,4.1201,4.1036,4.1007,4.103,4.0938,4.0631,4.0046,3.9266,5.3185,5.3185,5.3185,5.3185,5.3185,5.3185,5.3185,5.3185,5.3185,5.3185,5.3185,5.3185,5.3185,5.3185,5.3185,5.3185,5.3185,5.3185,5.3185,5.3038,5.1738,5.0986,5.0655,4.926,4.8508,4.8343,4.8324,4.8324,4.8324,4.8324,4.8324,4.8324,4.8324,4.8324,4.8324,4.8324,4.8324,4.8324,4.8324,4.8075,4.7614,4.7593,4.7345,4.6914,4.7324,4.7611,4.7614,4.8055,4.8324,4.8324,4.8489,4.86,4.8636,4.9389,4.9867,4.9921,5.0618,5.1151,5.1353,5.1903,5.2546,5.313,5.3185,5.3185,5.3185,5.3185,5.3185,5.3185,5.3185,5.3185,5.3185,5.3185,5.3185,5.3185,5.3185,5.3185,5.3185,5.3185,5.3096,5.3004,5.2931,5.2601,5.1958,5.172,5.1389,5.0637,4.9811,4.9022,4.8453,4.8324,4.8324,4.8324,4.8324,4.8248,4.8324,4.8267,4.8055,4.7635,4.7412,4.6419,4.4957,4.4328,4.3668,4.2454,4.2035,4.2,4.2018,4.1832,4.1746,4.1682,4.166,4.1595,4.1183,4.0128,3.8962,5.3185,5.3185,5.3185,5.3185,5.3185,5.3185,5.3185,5.3185,5.3185,5.3185,5.3185,5.3185,5.3185,5.3185,5.3185,5.3185,5.3185,5.3185,5.3185,5.3093,5.2289,5.1499,5.082,4.9866,4.9058,4.8416,4.8343,4.8324,4.8324,4.8324,4.8324,4.8324,4.8324,4.8324,4.8324,4.8324,4.8324,4.8324,4.8324,4.8287,4.8248,4.821,4.8173,4.8152,4.8172,4.821,4.8209,4.8267,4.8324,4.8379,4.9058,4.9482,4.9574,5.0251,5.0692,5.071,5.1444,5.2197,5.2876,5.3059,5.3075,5.3167,5.3185,5.3185,5.3185,5.3185,5.3185,5.3185,5.3185,5.3185,5.3185,5.3185,5.3185,5.3185,5.3185,5.3185,5.3185,5.3185,5.2931,5.2179,5.216,5.1793,5.1096,5.0839,5.0527,4.9812,4.9077,4.8526,4.8379,4.8324,4.8324,4.8324,4.8324,4.8324,4.8324,4.8324,4.8248,4.8117,4.7587,4.6568,4.5417,4.4718,4.4181,4.2981,4.2598,4.2598,4.25,4.2221,4.1877,4.2041,4.1979,4.181,4.1594,4.0722,3.9508,5.3185,5.3185,5.3185,5.3185,5.3185,5.3185,5.3185,5.3185,5.3185,5.3185,5.3185,5.3185,5.3185,5.3185,5.3185,5.3185,5.3185,5.3185,5.3185,5.3112,5.2362,5.1811,5.1408,5.0198,4.9408,4.9022,4.8563,4.8324,4.8324,4.8324,4.8324,4.8324,4.8324,4.8324,4.8324,4.8324,4.8324,4.8324,4.8324,4.8324,4.8324,4.8324,4.8324,4.8324,4.8324,4.8324,4.8324,4.8324,4.8526,4.9022,4.9427,4.9811,5.0288,5.1077,5.1499,5.1555,5.2252,5.2858,5.3167,5.3185,5.3185,5.3185,5.3185,5.3185,5.3185,5.3185,5.3185,5.3185,5.3185,5.3185,5.3185,5.3185,5.3185,5.3185,5.3185,5.3185,5.3185,5.2766,5.2325,5.2013,5.1573,5.0986,5.0215,4.9627,4.9224,4.8857,4.8471,4.8343,4.8324,4.8324,4.8324,4.8324,4.8324,4.8324,4.8324,4.8324,4.8306,4.8177,4.7626,4.6688,4.579,4.5041,4.4345,4.3324,4.3178,4.3124,4.3178,4.3032,4.281,4.2697,4.2444,4.2322,4.2322,4.1605,4.0626,5.3185,5.3185,5.3185,5.3185,5.3185,5.3185,5.3185,5.3185,5.3185,5.3185,5.3185,5.3185,5.3185,5.3185,5.3185,5.3185,5.3185,5.3185,5.3185,5.313,5.2601,5.2197,5.1867,5.0859,5.0033,4.9574,4.8985,4.8545,4.8361,4.8324,4.8324,4.8324,4.8324,4.8324,4.8324,4.8324,4.8434,4.8636,4.8655,4.8746,4.8967,4.8985,4.8893,4.871,4.8875,4.8985,4.8985,4.9003,4.926,4.9866,5.0143,5.0528,5.1096,5.1885,5.2325,5.2362,5.2876,5.3185,5.3185,5.3295,5.3359,5.338,5.3462,5.3543,5.3542,5.3461,5.3422,5.3563,5.3442,5.3339,5.3206,5.3185,5.3185,5.3185,5.3185,5.3112,5.2876,5.2307,5.183,5.141,5.0765,5.016,4.9372,4.8843,4.8569,4.8381,4.842,4.8383,4.8325,4.8324,4.8324,4.8324,4.8324,4.8324,4.8324,4.8324,4.8288,4.7829,4.7241,4.6415,4.57,4.4911,4.4342,4.3429,4.348,4.3462,4.3392,4.3427,4.3444,4.341,4.3178,4.2865,4.2902,4.2386,4.191,5.3185,5.3185,5.3185,5.3185,5.3185,5.3185,5.3185,5.3185,5.3185,5.3185,5.3185,5.3185,5.3185,5.3185,5.3185,5.3185,5.3185,5.3185,5.3185,5.3185,5.3112,5.2729,5.2034,5.1885,5.1116,4.9886,4.9647,4.9169,4.8471,4.8398,4.8324,4.836,4.8453,4.8398,4.8453,4.8489,4.8746,4.9444,4.9517,4.9866,5.0508,5.0637,5.0288,4.9757,5.0251,5.0563,5.0618,5.0655,5.0692,5.0729,5.1389,5.1848,5.2013,5.2692,5.3096,5.3136,5.3191,5.3227,5.3274,5.3585,5.3777,5.3833,5.4137,5.4406,5.429,5.3996,5.3942,5.4373,5.3996,5.3644,5.3378,5.3357,5.3316,5.3274,5.3251,5.2941,5.2222,5.2141,5.1283,5.0239,4.9857,4.949,4.8603,4.8676,4.8675,4.855,4.8657,4.876,4.8495,4.8401,4.8363,4.8344,4.8325,4.8324,4.8324,4.8324,4.7957,4.7424,4.6764,4.5792,4.4911,4.4158,4.3773,4.3551,4.3497,4.3479,4.3479,4.3479,4.3479,4.3462,4.3462,4.3321,4.325,4.2958,4.2587,5.3185,5.3185,5.3185,5.3185,5.3185,5.3185,5.3185,5.3185,5.3185,5.3185,5.3185,5.3185,5.3185,5.3185,5.3185,5.3185,5.3185,5.3185,5.3185,5.3185,5.3185,5.3041,5.2766,5.227,5.1756,5.1151,5.06,5.0215,4.9958,4.9903,4.9903,4.9903,4.9903,4.9903,4.9903,4.9921,5.0068,5.0325,5.0362,5.0527,5.0857,5.1298,5.1428,5.1153,5.0894,5.082,5.082,5.082,5.1041,5.1536,5.1848,5.2234,5.2729,5.3041,5.3336,5.3546,5.3585,5.372,5.3997,5.4153,5.4255,5.4255,5.4387,5.4535,5.4487,5.4338,5.4322,5.4439,5.4371,5.4171,5.4103,5.4051,5.4033,5.4033,5.3996,5.3643,5.2893,5.2312,5.1546,5.0501,4.9903,4.9377,4.9176,4.9187,4.9218,4.9108,4.9187,4.9187,4.9059,4.8846,4.8692,4.8621,4.8477,4.8324,4.8324,4.8324,4.8049,4.7241,4.6471,4.5663,4.4819,4.403,4.3552,4.3533,4.3479,4.3479,4.3479,4.3479,4.3479,4.3479,4.3479,4.3479,4.3479,4.3214,4.316,5.3185,5.3185,5.3185,5.3185,5.3185,5.3185,5.3185,5.3185,5.3185,5.3272,5.3361,5.3381,5.3482,5.3602,5.3603,5.3603,5.3583,5.3336,5.3185,5.3185,5.3185,5.3185,5.3112,5.2637,5.2234,5.1903,5.1187,5.082,5.082,5.082,5.082,5.0784,5.082,5.082,5.082,5.082,5.0894,5.1096,5.1169,5.1298,5.161,5.2123,5.2399,5.2325,5.1848,5.1591,5.1591,5.1591,5.1811,5.2307,5.238,5.2702,5.3306,5.3562,5.372,5.3977,5.4013,5.4153,5.4452,5.4628,5.4686,5.472,5.4819,5.4895,5.4895,5.476,5.4764,5.4838,5.4764,5.4716,5.4848,5.4895,5.4775,5.4582,5.4503,5.4012,5.2978,5.2318,5.1492,5.0463,4.9807,4.9516,4.9518,4.9603,4.9589,4.9532,4.9608,4.9664,4.9489,4.9295,4.911,4.9075,4.8915,4.8797,4.8745,4.871,4.7795,4.693,4.6397,4.559,4.4653,4.39,4.3551,4.3515,4.3479,4.3479,4.3479,4.3479,4.3479,4.3479,4.3479,4.3479,4.3479,4.3479,4.341,5.3185,5.3185,5.3185,5.3227,5.3251,5.3251,5.3227,5.3314,5.3293,5.3524,5.3796,5.3814,5.4032,5.4373,5.434,5.4439,5.4257,5.3662,5.3336,5.3336,5.3295,5.3293,5.3251,5.318,5.2771,5.2126,5.1279,5.093,5.1041,5.1077,5.1041,5.093,5.1059,5.1132,5.0912,5.1096,5.1316,5.183,5.1995,5.2344,5.3075,5.3075,5.3075,5.3093,5.302,5.3025,5.3099,5.3059,5.3044,5.3138,5.3157,5.3383,5.3796,5.4171,5.4452,5.4468,5.4484,5.45,5.4579,5.4924,5.5101,5.5147,5.5435,5.5577,5.5501,5.5294,5.5244,5.5435,5.5306,5.5224,5.5524,5.5588,5.535,5.4705,5.464,5.3997,5.2704,5.2073,5.1382,5.0081,4.9669,4.9551,4.9603,4.9885,4.9974,4.98,4.9898,5.0019,4.9746,4.9589,4.9504,4.9489,4.9356,4.9221,4.9202,4.9059,4.7718,4.6577,4.6176,4.5553,4.4394,4.3548,4.3583,4.3565,4.3496,4.3479,4.3479,4.3479,4.3479,4.3479,4.3479,4.3479,4.3479,4.3479,4.3479,5.3185,5.3185,5.3185,5.3359,5.3586,5.3605,5.3777,5.4086,5.4103,5.419,5.4255,5.4272,5.439,5.4487,5.4503,5.4519,5.4487,5.4225,5.4103,5.4103,5.4067,5.3888,5.3644,5.3605,5.3335,5.2881,5.2582,5.2454,5.2438,5.2438,5.2454,5.2451,5.2435,5.2472,5.244,5.2472,5.2637,5.2803,5.2839,5.2986,5.3185,5.3206,5.3206,5.3185,5.3185,5.3316,5.3566,5.3339,5.3357,5.3604,5.3624,5.3814,5.4204,5.4423,5.4625,5.4862,5.4924,5.5067,5.5294,5.543,5.5501,5.5543,5.564,5.5684,5.5684,5.5588,5.5566,5.5703,5.5577,5.5588,5.5662,5.5684,5.5566,5.5343,5.5319,5.4861,5.3625,5.2604,5.153,5.0593,5.0325,5.0325,5.0325,5.0472,5.041,5.0325,5.0391,5.0399,5.0294,5.0024,4.9905,4.9892,4.9746,4.9603,4.957,4.9211,4.8134,4.6914,4.6259,4.5537,4.4356,4.3726,4.3744,4.3647,4.3563,4.3513,4.3496,4.3479,4.3479,4.3479,4.3479,4.3479,4.3479,4.3479,4.3479,5.3681,5.3681,5.3681,5.3814,5.4048,5.4066,5.4221,5.4487,5.4503,5.4582,5.4686,5.4716,5.4804,5.4924,5.4952,5.4952,5.4952,5.4933,5.4952,5.4881,5.4597,5.4322,5.4085,5.4048,5.3942,5.3739,5.3681,5.3681,5.3681,5.3681,5.37,5.37,5.3681,5.3663,5.3681,5.3662,5.3681,5.3681,5.3682,5.3681,5.37,5.3681,5.3681,5.3681,5.3681,5.3814,5.4013,5.3814,5.3796,5.4031,5.4185,5.4414,5.472,5.4881,5.5061,5.5256,5.5331,5.5454,5.5662,5.5662,5.5684,5.5684,5.5684,5.5684,5.5684,5.5684,5.5684,5.5684,5.5684,5.5684,5.5684,5.5684,5.5684,5.5684,5.5662,5.5184,5.4145,5.2779,5.1635,5.0903,5.0663,5.0683,5.0683,5.0683,5.0683,5.0683,5.0683,5.0683,5.0634,5.0453,5.0358,5.0283,5.0195,5.008,4.9936,4.9334,4.8528,4.7452,4.6442,4.5492,4.4412,4.4225,4.418,4.3896,4.3756,4.3629,4.3579,4.3531,4.3479,4.3479,4.3479,4.3479,4.3479,4.3479,4.3479,5.4487,5.4503,5.4503,5.4452,5.4516,5.4535,5.4579,5.4613,5.4628,5.4819,5.5094,5.5134,5.5306,5.5599,5.5566,5.5577,5.5673,5.5599,5.5558,5.5411,5.5007,5.4628,5.455,5.4452,5.4371,5.4371,5.4406,5.4423,5.4357,5.4357,5.4503,5.439,5.4373,5.4471,5.4373,5.4452,5.4406,5.4373,5.4423,5.4406,5.4423,5.4439,5.4439,5.4423,5.4387,5.442,5.45,5.4532,5.4532,5.4579,5.4881,5.5075,5.5199,5.5481,5.5621,5.5651,5.5703,5.5662,5.5684,5.5684,5.5684,5.5684,5.5684,5.5684,5.5684,5.5684,5.5684,5.5684,5.5684,5.5684,5.5684,5.5684,5.5684,5.5684,5.5684,5.5011,5.3549,5.2577,5.1837,5.1087,5.076,5.0683,5.0683,5.0683,5.0683,5.0683,5.0683,5.0683,5.0683,5.0624,5.0673,5.0604,5.0493,5.0442,5.0286,4.9675,4.8895,4.8253,4.7043,4.5746,4.4753,4.4554,4.4567,4.4276,4.3971,4.3802,4.366,4.3595,4.3531,4.3479,4.3479,4.3479,4.3479,4.3479,4.3479,5.4503,5.4503,5.4503,5.4655,5.4924,5.4952,5.5121,5.5375,5.5356,5.538,5.5524,5.5535,5.5577,5.5703,5.5684,5.5684,5.5684,5.5684,5.5684,5.5662,5.5512,5.5199,5.4924,5.4644,5.4535,5.455,5.4597,5.4503,5.4503,5.4566,5.455,5.4503,5.4582,5.455,5.4503,5.455,5.4503,5.4503,5.4519,5.4535,5.4532,5.455,5.4503,5.4503,5.4535,5.4689,5.4938,5.5224,5.5224,5.4993,5.5319,5.5554,5.5524,5.5621,5.5684,5.5684,5.5684,5.5684,5.5684,5.5684,5.5684,5.5684,5.5684,5.5684,5.5684,5.5684,5.5684,5.5684,5.5684,5.5684,5.5684,5.5684,5.5684,5.5684,5.5684,5.528,5.426,5.3395,5.2529,5.1741,5.1087,5.0818,5.0702,5.0683,5.0683,5.0683,5.0683,5.0683,5.0683,5.0683,5.0683,5.0683,5.0624,5.0663,5.048,4.9902,4.9354,4.8921,4.7733,4.6172,4.5254,4.4656,4.4745,4.4757,4.4346,4.4121,4.3881,4.3726,4.3629,4.3563,4.3496,4.3496,4.3496,4.3479,4.3479,5.5007,5.4988,5.5007,5.5147,5.5331,5.5343,5.5489,5.5662,5.5684,5.5684,5.5684,5.5684,5.5684,5.5684,5.5684,5.5684,5.5684,5.5684,5.5684,5.5684,5.5673,5.5535,5.5331,5.5094,5.5007,5.5007,5.4974,5.5021,5.5021,5.5007,5.5007,5.5034,5.5007,5.5007,5.5048,5.5007,5.5007,5.5021,5.5007,5.5007,5.5007,5.5007,5.5007,5.5007,5.5007,5.5147,5.5356,5.5577,5.5577,5.5435,5.5558,5.5684,5.5684,5.5684,5.5684,5.5684,5.5684,5.5684,5.5684,5.5684,5.5684,5.5684,5.5684,5.5684,5.5684,5.5684,5.5684,5.5684,5.5684,5.5684,5.5684,5.5684,5.5684,5.5684,5.5684,5.5357,5.4607,5.4068,5.3183,5.2231,5.151,5.1029,5.0779,5.0683,5.0683,5.0683,5.0683,5.0683,5.0683,5.0683,5.0683,5.0683,5.0683,5.0683,5.0683,5.0259,4.9682,4.926,4.85,4.6895,4.5899,4.5128,4.5015,4.5049,4.4695,4.4401,4.4209,4.4004,4.3836,4.3758,4.3631,4.3548,4.3565,4.3646,4.3631,5.5684,5.5684,5.5684,5.5684,5.5673,5.5684,5.5673,5.5703,5.5684,5.5684,5.5684,5.5684,5.5684,5.5684,5.5684,5.5684,5.5684,5.5684,5.5684,5.5684,5.5684,5.5662,5.564,5.5588,5.5566,5.5577,5.5673,5.564,5.5566,5.5599,5.5662,5.5577,5.5599,5.5662,5.5546,5.561,5.5673,5.5599,5.5566,5.5535,5.5554,5.5535,5.5535,5.5535,5.5554,5.5577,5.564,5.5684,5.5673,5.5684,5.5684,5.5684,5.5684,5.5684,5.5684,5.5684,5.5684,5.5684,5.5684,5.5684,5.5684,5.5684,5.5684,5.5684,5.5684,5.5684,5.5684,5.5684,5.5684,5.5684,5.5684,5.5684,5.5684,5.5684,5.5684,5.5338,5.4818,5.4549,5.3857,5.2308,5.2,5.151,5.0991,5.0683,5.0683,5.0683,5.0683,5.0683,5.0683,5.0683,5.0683,5.0683,5.0683,5.0683,5.0683,5.0625,5.0038,4.9529,4.8942,4.7809,4.6714,4.5993,4.559,4.5288,4.4954,4.4769,4.4644,4.4433,4.4165,4.4046,4.4008,4.3823,4.3714,4.3886,4.3931,5.5684,5.5684,5.5684,5.5684,5.5684,5.5684,5.5684,5.5684,5.5684,5.5684,5.5684,5.5684,5.5684,5.5684,5.5684,5.5684,5.5684,5.5684,5.5684,5.5684,5.5684,5.5684,5.5684,5.5684,5.5684,5.5684,5.5684,5.5684,5.5684,5.5684,5.5684,5.5684,5.5684,5.5684,5.5684,5.5684,5.5684,5.5684,5.5684,5.5684,5.5684,5.5684,5.5684,5.5684,5.5684,5.5684,5.5684,5.5684,5.5684,5.5684,5.5684,5.5684,5.5684,5.5684,5.5684,5.5684,5.5684,5.5684,5.5684,5.5684,5.5684,5.5684,5.5684,5.5684,5.5684,5.5684,5.5684,5.5684,5.5684,5.5684,5.5684,5.5684,5.5684,5.5684,5.5684,5.5626,5.5376,5.4895,5.4087,5.3164,5.2327,5.1596,5.0856,5.0731,5.0712,5.0683,5.0683,5.0683,5.0683,5.0683,5.0683,5.0683,5.0683,5.0683,5.0683,5.0664,5.0337,4.9952,4.9452,4.8817,4.7702,4.699,4.6628,4.5966,4.5243,4.5107,4.4988,4.4751,4.4474,4.4433,4.4378,4.4237,4.4169,4.4242,4.4213,5.5684,5.5684,5.5684,5.5684,5.5684,5.5684,5.5684,5.5684,5.5684,5.5684,5.5684,5.5684,5.5684,5.5684,5.5684,5.5684,5.5684,5.5684,5.5684,5.5684,5.5684,5.5684,5.5684,5.5684,5.5684,5.5684,5.5684,5.5684,5.5684,5.5684,5.5684,5.5684,5.5684,5.5684,5.5684,5.5684,5.5684,5.5684,5.5684,5.5684,5.5684,5.5684,5.5684,5.5684,5.5684,5.5684,5.5684,5.5684,5.5684,5.5684,5.5684,5.5684,5.5684,5.5684,5.5684,5.5684,5.5684,5.5684,5.5684,5.5684,5.5684,5.5684,5.5684,5.5684,5.5684,5.5684,5.5684,5.5684,5.5684,5.5684,5.5684,5.5684,5.5684,5.5684,5.5684,5.5684,5.5626,5.5299,5.4741,5.3895,5.3087,5.225,5.1606,5.1068,5.0731,5.0712,5.0683,5.0683,5.0683,5.0683,5.0683,5.0683,5.0683,5.0683,5.0683,5.0644,5.0577,5.0337,5.0164,4.9548,4.8759,4.8182,4.7712,4.6772,4.5755,4.5429,4.5283,4.5022,4.4837,4.4769,4.472,4.4657,4.458,4.4514,4.4474,5.5684,5.5684,5.5684,5.5684,5.5684,5.5684,5.5684,5.5684,5.5684,5.5684,5.5684,5.5684,5.5684,5.5684,5.5684,5.5684,5.5684,5.5684,5.5684,5.5684,5.5684,5.5684,5.5684,5.5684,5.5684,5.5684,5.5684,5.5684,5.5684,5.5684,5.5684,5.5684,5.5684,5.5684,5.5684,5.5684,5.5684,5.5684,5.5684,5.5684,5.5684,5.5684,5.5684,5.5684,5.5684,5.5684,5.5684,5.5684,5.5684,5.5684,5.5684,5.5684,5.5684,5.5684,5.5684,5.5684,5.5684,5.5684,5.5684,5.5684,5.5684,5.5684,5.5684,5.5684,5.5684,5.5684,5.5684,5.5684,5.5684,5.5684,5.5684,5.5684,5.5684,5.5684,5.5684,5.5684,5.5684,5.5684,5.5222,5.453,5.376,5.3029,5.2087,5.1356,5.101,5.0731,5.0712,5.0683,5.0683,5.0683,5.0683,5.0683,5.0683,5.0683,5.0683,5.0683,5.0596,5.0567,5.0548,5.0183,4.9586,4.9048,4.8336,4.7182,4.6338,4.5973,4.5609,4.5322,4.5171,4.5129,4.5066,4.5022,4.49,4.4769,4.4769,5.5684,5.5684,5.5684,5.5684,5.5684,5.5684,5.5684,5.5684,5.5684,5.5684,5.5684,5.5684,5.5684,5.5684,5.5684,5.5684,5.5684,5.5684,5.5684,5.5684,5.5684,5.5684,5.5684,5.5684,5.5684,5.5684,5.5684,5.5684,5.5684,5.5684,5.5684,5.5684,5.5684,5.5684,5.5684,5.5684,5.5684,5.5684,5.5684,5.5684,5.5684,5.5684,5.5684,5.5684,5.5684,5.5684,5.5684,5.5684,5.5684,5.5684,5.5684,5.5684,5.5684,5.5684,5.5684,5.5684,5.5684,5.5684,5.5684,5.5684,5.5684,5.5684,5.5684,5.5684,5.5684,5.5684,5.5684,5.5684,5.5684,5.5684,5.5684,5.5684,5.5684,5.5684,5.5684,5.5684,5.5684,5.5626,5.5415,5.4761,5.428,5.3799,5.2837,5.1923,5.1375,5.101,5.0779,5.0721,5.0683,5.0683,5.0683,5.0683,5.0683,5.0683,5.0683,5.0683,5.0664,5.0644,5.0625,5.0625,5.0125,4.9683,4.8875,4.7855,4.6951,4.6385,4.6022,4.5667,4.5457,4.5371,4.5371,4.5381,4.5273,4.5161,4.5263,5.5684,5.5684,5.5684,5.5684,5.5684,5.5684,5.5684,5.5684,5.5684,5.5684,5.5684,5.5684,5.5684,5.5684,5.5684,5.5684,5.5684,5.5684,5.5684,5.5684,5.5684,5.5684,5.5684,5.5684,5.5684,5.5684,5.5684,5.5684,5.5684,5.5684,5.5684,5.5684,5.5684,5.5684,5.5684,5.5684,5.5684,5.5684,5.5684,5.5684,5.5684,5.5684,5.5684,5.5684,5.5684,5.5684,5.5684,5.5684,5.5684,5.5684,5.5684,5.5684,5.5684,5.5684,5.5684,5.5684,5.5684,5.5684,5.5684,5.5684,5.5684,5.5684,5.5684,5.5684,5.5684,5.5684,5.5684,5.5684,5.5684,5.5684,5.5684,5.5684,5.5684,5.5684,5.5684,5.5684,5.5684,5.5684,5.5415,5.503,5.4645,5.4164,5.3626,5.2741,5.1895,5.1356,5.0933,5.0779,5.0702,5.0683,5.0683,5.0683,5.0683,5.0683,5.0683,5.0683,5.0683,5.0683,5.0683,5.0683,5.0606,5.0144,4.9548,4.8721,4.7875,4.7028,4.6423,4.6069,4.5846,4.5614,4.555,4.5532,4.5559,4.5586,4.5594,5.5299,5.5453,5.5453,5.553,5.5684,5.5684,5.5684,5.5684,5.5684,5.5684,5.5684,5.5684,5.5684,5.5684,5.5684,5.5684,5.5684,5.5684,5.5684,5.5684,5.5684,5.5684,5.5684,5.5684,5.5684,5.5684,5.5684,5.5684,5.5684,5.5684,5.5684,5.5684,5.5684,5.5684,5.5684,5.5684,5.5684,5.5684,5.5684,5.5684,5.5684,5.5684,5.5684,5.5684,5.5684,5.5684,5.5684,5.5684,5.5684,5.5684,5.5684,5.5684,5.5684,5.5684,5.5684,5.5684,5.5684,5.5684,5.5684,5.5684,5.5684,5.5684,5.5684,5.5684,5.5684,5.5684,5.5684,5.5684,5.5684,5.5684,5.5684,5.5684,5.5684,5.5684,5.5684,5.5684,5.5684,5.5684,5.5684,5.5338,5.4972,5.4568,5.4068,5.326,5.2356,5.1548,5.1125,5.076,5.0683,5.0683,5.0683,5.0683,5.0683,5.0683,5.0683,5.0683,5.0683,5.0683,5.0683,5.0683,5.0683,5.0587,4.9971,4.9433,4.8625,4.7798,4.7124,4.6547,4.6317,4.6086,4.5787,4.5614,4.5594,4.5594,4.5594,5.3953,5.4626,5.4645,5.503,5.5568,5.5588,5.5645,5.5607,5.5549,5.5684,5.5472,5.5607,5.5549,5.5511,5.5549,5.5607,5.5588,5.5472,5.5395,5.5357,5.5415,5.5453,5.5645,5.5684,5.5645,5.5665,5.5684,5.5684,5.5684,5.5684,5.5684,5.5684,5.5684,5.5684,5.5684,5.5684,5.5684,5.5684,5.5684,5.5684,5.5684,5.5684,5.5684,5.5684,5.5684,5.5684,5.5684,5.5684,5.5684,5.5684,5.5684,5.5684,5.5684,5.5684,5.5684,5.5684,5.5684,5.5684,5.5684,5.5684,5.5684,5.5684,5.5684,5.5684,5.5684,5.5684,5.5684,5.5684,5.5684,5.5684,5.5684,5.5684,5.5684,5.5684,5.5684,5.5684,5.5684,5.5684,5.5684,5.5665,5.5318,5.4991,5.4587,5.3683,5.2788,5.1991,5.1318,5.0952,5.0683,5.0683,5.0683,5.0683,5.0683,5.0683,5.0683,5.0683,5.0683,5.0683,5.0683,5.0683,5.0683,5.0683,5.0683,5.0067,4.9298,4.8759,4.8298,4.7702,4.7048,4.6528,4.6201,4.5883,4.5594,4.5594,4.5594,5.2549,5.3741,5.376,5.3953,5.426,5.428,5.428,5.428,5.428,5.428,5.428,5.4299,5.428,5.4357,5.428,5.426,5.4299,5.4357,5.4299,5.4357,5.4395,5.4587,5.4895,5.5049,5.5164,5.5607,5.5684,5.5684,5.5684,5.5684,5.5684,5.5684,5.5684,5.5684,5.5684,5.5684,5.5684,5.5684,5.5684,5.5684,5.5684,5.5684,5.5684,5.5684,5.5684,5.5684,5.5684,5.5684,5.5684,5.5684,5.5684,5.5684,5.5684,5.5684,5.5684,5.5684,5.5684,5.5684,5.5684,5.5684,5.5684,5.5684,5.5684,5.5684,5.5684,5.5684,5.5684,5.5684,5.5684,5.5684,5.5684,5.5684,5.5684,5.5684,5.5684,5.5684,5.5684,5.5684,5.5684,5.5684,5.5665,5.5338,5.503,5.4434,5.3587,5.2779,5.1914,5.1241,5.0914,5.0683,5.0683,5.0683,5.0683,5.0683,5.0683,5.0683,5.0683,5.0683,5.0683,5.0683,5.0683,5.0683,5.0683,5.0683,5.0183,4.974,4.9394,4.8586,4.7644,4.7086,4.6605,4.6278,4.5979,4.5594,4.5594,5.1433,5.2568,5.2799,5.2991,5.3203,5.3203,5.3241,5.3222,5.326,5.3241,5.3203,5.326,5.326,5.3203,5.3299,5.3395,5.328,5.3203,5.3203,5.3203,5.326,5.3645,5.401,5.4222,5.4587,5.5395,5.528,5.5453,5.5645,5.5684,5.5684,5.5684,5.5684,5.5684,5.5684,5.5684,5.5684,5.5684,5.5684,5.5684,5.5684,5.5684,5.5684,5.5684,5.5684,5.5684,5.5684,5.5684,5.5684,5.5684,5.5684,5.5684,5.5684,5.5684,5.5684,5.5684,5.5684,5.5684,5.5684,5.5684,5.5684,5.5684,5.5684,5.5684,5.5684,5.5684,5.5684,5.5684,5.5684,5.5684,5.5684,5.5684,5.5684,5.5684,5.5684,5.5684,5.5684,5.5684,5.5684,5.5684,5.5684,5.5684,5.5376,5.5088,5.4434,5.3606,5.2683,5.1645,5.1144,5.0779,5.0683,5.0683,5.0683,5.0683,5.0683,5.0683,5.0683,5.0683,5.0683,5.0683,5.0683,5.0683,5.0683,5.0683,5.0683,5.0491,5.0029,4.9125,4.8279,4.799,4.7605,4.6855,4.6374,4.5941,4.5594,5.077,5.0933,5.1692,5.2433,5.3106,5.3203,5.3145,5.2972,5.3068,5.3029,5.2953,5.3106,5.2972,5.3049,5.2914,5.2953,5.3087,5.3183,5.2972,5.2991,5.3203,5.3106,5.326,5.3395,5.3722,5.4453,5.4587,5.4953,5.5472,5.5472,5.5588,5.5684,5.5684,5.5684,5.5684,5.5684,5.5684,5.5684,5.5684,5.5684,5.5684,5.5684,5.5684,5.5684,5.5684,5.5684,5.5684,5.5684,5.5684,5.5684,5.5684,5.5684,5.5684,5.5684,5.5684,5.5684,5.5684,5.5684,5.5684,5.5684,5.5684,5.5684,5.5684,5.5684,5.5684,5.5684,5.5684,5.5684,5.5684,5.5684,5.5684,5.5684,5.5684,5.5684,5.5684,5.5684,5.5684,5.5684,5.5684,5.5684,5.5684,5.5684,5.5684,5.5376,5.4895,5.4087,5.2673,5.1635,5.1202,5.0856,5.0741,5.0683,5.0683,5.0683,5.0683,5.0683,5.0683,5.0683,5.0683,5.0683,5.0683,5.0683,5.0683,5.0683,5.0683,5.0683,5.0606,4.9817,4.924,4.9086,4.8606,4.7702,4.6855,4.6259,4.5883,5.0683,5.0721,5.1048,5.1356,5.1645,5.1664,5.1664,5.1664,5.1664,5.1664,5.1702,5.1664,5.1645,5.1683,5.1664,5.1664,5.1664,5.1664,5.1722,5.1664,5.1664,5.1952,5.2164,5.2529,5.2837,5.353,5.3741,5.4145,5.4838,5.5011,5.5357,5.5511,5.5645,5.5684,5.5684,5.5684,5.5684,5.5684,5.5684,5.5684,5.5684,5.5684,5.5684,5.5684,5.5684,5.5684,5.5684,5.5684,5.5684,5.5684,5.5684,5.5684,5.5684,5.5684,5.5684,5.5684,5.5684,5.5684,5.5684,5.5684,5.5684,5.5684,5.5684,5.5684,5.5684,5.5684,5.5684,5.5684,5.5684,5.5684,5.5684,5.5684,5.5684,5.5684,5.5684,5.5684,5.5684,5.5684,5.5684,5.5684,5.5684,5.5684,5.5684,5.5665,5.5145,5.4491,5.3029,5.1779,5.1405,5.102,5.0894,5.0702,5.0683,5.0683,5.0683,5.0683,5.0683,5.0683,5.0683,5.0683,5.0683,5.0683,5.0683,5.0683,5.0683,5.0683,5.0606,5.0414,5.0067,4.9625,4.9086,4.8413,4.7567,4.6759,4.6297,5.0683,5.0683,5.0683,5.0683,5.0683,5.0683,5.0683,5.0683,5.075,5.0683,5.0683,5.0683,5.0683,5.0683,5.0721,5.076,5.0856,5.0818,5.076,5.0798,5.0914,5.1048,5.1375,5.1683,5.1991,5.2615,5.2885,5.326,5.4087,5.4357,5.478,5.5222,5.5598,5.5665,5.5684,5.5684,5.5684,5.5684,5.5684,5.5684,5.5684,5.5684,5.5684,5.5684,5.5684,5.5684,5.5684,5.5684,5.5684,5.5684,5.5684,5.5684,5.5684,5.5684,5.5684,5.5684,5.5684,5.5684,5.5684,5.5684,5.5684,5.5684,5.5684,5.5684,5.5684,5.5684,5.5684,5.5684,5.5684,5.5684,5.5684,5.5684,5.5684,5.5684,5.5684,5.5684,5.5684,5.5684,5.5684,5.5684,5.5717,5.5789,5.5826,5.5815,5.5399,5.4872,5.4022,5.2724,5.1833,5.1432,5.1087,5.0875,5.0683,5.0683,5.0683,5.0683,5.0683,5.0683,5.0683,5.0683,5.0683,5.0683,5.0683,5.0683,5.0683,5.0683,5.0625,5.051,5.0279,4.9971,4.9433,4.8913,4.849,4.7702,4.6932,5.0654,5.0683,5.0683,5.0683,5.0683,5.0683,5.0683,5.0683,5.0683,5.0683,5.0683,5.0683,5.0683,5.0683,5.0683,5.0683,5.0683,5.0683,5.0683,5.0683,5.0683,5.077,5.0808,5.0991,5.1298,5.1779,5.2,5.2395,5.3241,5.3722,5.4222,5.4838,5.5318,5.5684,5.5684,5.5684,5.5684,5.5684,5.5684,5.5684,5.5684,5.5684,5.5684,5.5684,5.5684,5.5684,5.5684,5.5684,5.5684,5.5684,5.5684,5.5684,5.5684,5.5684,5.5684,5.5684,5.5684,5.5684,5.5684,5.5684,5.5684,5.5684,5.5684,5.5684,5.5684,5.5684,5.5684,5.5684,5.5684,5.5684,5.5684,5.5684,5.5684,5.5684,5.5684,5.5684,5.5684,5.5749,5.5759,5.5789,5.5851,5.5904,5.5974,5.594,5.5597,5.5168,5.4699,5.3821,5.2713,5.1863,5.1469,5.1183,5.0932,5.0683,5.0683,5.0683,5.0683,5.0693,5.0683,5.0683,5.0683,5.0683,5.0683,5.0683,5.0683,5.0683,5.0683,5.0664,5.0452,5.024,4.9875,4.9413,4.9086,4.8625,4.7855,4.9846,4.9894,5.0462,5.0683,5.0683,5.0683,5.0683,5.0683,5.0683,5.0683,5.0683,5.0683,5.0683,5.0683,5.0683,5.0683,5.0683,5.0683,5.0683,5.0683,5.0683,5.0683,5.0683,5.0721,5.0856,5.101,5.1164,5.1587,5.2346,5.2856,5.3645,5.4337,5.5164,5.5645,5.5684,5.5684,5.5684,5.5684,5.5684,5.5684,5.5684,5.5684,5.5684,5.5684,5.5684,5.5684,5.5684,5.5684,5.5684,5.5684,5.5684,5.5684,5.5684,5.5684,5.5684,5.5684,5.5684,5.5684,5.5684,5.5684,5.5684,5.5684,5.5684,5.5684,5.5684,5.5684,5.5684,5.5684,5.5684,5.5684,5.5684,5.5684,5.5684,5.5684,5.5684,5.5684,5.5726,5.5798,5.5868,5.5907,5.5966,5.6052,5.6139,5.6193,5.5921,5.5692,5.53,5.4879,5.394,5.2658,5.1892,5.1576,5.1292,5.0904,5.0693,5.0787,5.0776,5.0756,5.074,5.0683,5.0683,5.0712,5.0683,5.0683,5.0683,5.0683,5.0683,5.0683,5.0683,5.0491,5.0183,4.9856,4.949,4.9163,4.8702,4.8952,4.9048,4.9875,5.024,5.0308,5.0558,5.0683,5.0683,5.0683,5.0683,5.0683,5.0683,5.0683,5.0683,5.0683,5.0683,5.0683,5.0683,5.0683,5.0683,5.0683,5.0683,5.0683,5.0683,5.0721,5.0683,5.075,5.1077,5.151,5.1769,5.2895,5.426,5.5011,5.5376,5.5549,5.5684,5.5684,5.5684,5.5684,5.5684,5.5684,5.5684,5.5684,5.5684,5.5684,5.5684,5.5684,5.5684,5.5684,5.5684,5.5684,5.5684,5.5684,5.5684,5.5684,5.5684,5.5684,5.5684,5.5684,5.5684,5.5684,5.5684,5.5684,5.5684,5.5684,5.5684,5.5684,5.5684,5.5684,5.5684,5.5684,5.5684,5.5684,5.5684,5.5705,5.5705,5.5748,5.5834,5.5928,5.5988,5.6119,5.6213,5.6308,5.6345,5.6311,5.6118,5.592,5.5477,5.5037,5.3844,5.2712,5.2381,5.199,5.1617,5.1238,5.0966,5.0924,5.0855,5.0789,5.0739,5.073,5.0747,5.0721,5.0693,5.0712,5.0712,5.0693,5.0693,5.0712,5.0702,5.0587,5.024,4.9894,4.9644,4.9413,4.8067,4.8202,4.899,4.9375,4.949,5.0202,5.0606,5.0683,5.0683,5.0683,5.0683,5.0683,5.0683,5.0683,5.0683,5.0683,5.0683,5.0683,5.0683,5.0683,5.0683,5.0683,5.0683,5.0683,5.0683,5.0683,5.0712,5.077,5.0856,5.1548,5.2818,5.3933,5.4472,5.4953,5.5338,5.5607,5.5645,5.5684,5.5684,5.5684,5.5684,5.5684,5.5684,5.5684,5.5684,5.5684,5.5684,5.5684,5.5684,5.5684,5.5684,5.5684,5.5684,5.5684,5.5684,5.5684,5.5684,5.5684,5.5695,5.5695,5.5738,5.5739,5.5728,5.5716,5.5684,5.5684,5.5684,5.5684,5.5684,5.5684,5.5684,5.5684,5.5684,5.5705,5.5717,5.5748,5.5769,5.5852,5.5951,5.6083,5.6266,5.6387,5.6484,5.6543,5.6504,5.6445,5.625,5.6016,5.5555,5.5015,5.4023,5.3502,5.3049,5.2455,5.2049,5.1664,5.1379,5.1418,5.0956,5.0819,5.0811,5.0835,5.0844,5.0811,5.0757,5.0749,5.0766,5.0756,5.0764,5.0747,5.0797,5.0653,5.0306,5.0375,5.0164,4.725,4.7327,4.8144,4.849,4.8606,4.9423,5.0096,5.0654,5.0683,5.0683,5.0683,5.0683,5.0683,5.0683,5.0683,5.0683,5.0683,5.0683,5.0683,5.0683,5.0683,5.0683,5.0683,5.0683,5.0683,5.0683,5.0683,5.0702,5.0875,5.1491,5.1904,5.2606,5.378,5.4434,5.4914,5.5395,5.553,5.5645,5.5626,5.5684,5.5684,5.5684,5.5684,5.5684,5.5684,5.5684,5.5684,5.5684,5.5684,5.5684,5.5684,5.5684,5.5684,5.5684,5.5684,5.5684,5.5684,5.5695,5.5716,5.5808,5.5861,5.5861,5.5842,5.5779,5.5748,5.5716,5.5716,5.5684,5.5684,5.5684,5.5684,5.5684,5.5684,5.5705,5.5739,5.5826,5.5859,5.6024,5.6125,5.6253,5.6452,5.6504,5.6601,5.6601,5.6562,5.6601,5.6523,5.6348,5.6087,5.5562,5.5201,5.4668,5.4004,5.3385,5.2946,5.2561,5.2216,5.1914,5.1476,5.1133,5.1108,5.1126,5.1024,5.0946,5.0903,5.0871,5.084,5.0863,5.0882,5.0953,5.0978,5.0871,5.0773,5.0757,5.0702,4.6508,4.6624,4.7398,4.7932,4.8311,4.8814,4.9374,4.9892,5.0421,5.0683,5.0683,5.0683,5.0683,5.0683,5.0683,5.0683,5.0683,5.0683,5.0683,5.0683,5.0683,5.0683,5.0683,5.0683,5.0683,5.0683,5.0683,5.0683,5.0837,5.1106,5.151,5.2077,5.3183,5.3587,5.4087,5.4684,5.5126,5.5299,5.5453,5.5626,5.5684,5.5684,5.5684,5.5684,5.5684,5.5684,5.5684,5.5684,5.5684,5.5684,5.5684,5.5738,5.5779,5.5854,5.5904,5.593,5.591,5.5919,5.5943,5.5978,5.601,5.6017,5.6024,5.5993,5.5879,5.5817,5.5748,5.5684,5.5684,5.5684,5.5684,5.5684,5.5684,5.5695,5.5798,5.5899,5.6052,5.6222,5.6348,5.6458,5.6543,5.6582,5.6621,5.6621,5.6621,5.6621,5.6621,5.6543,5.6406,5.6165,5.5962,5.5687,5.499,5.4289,5.3907,5.3549,5.3169,5.2742,5.2135,5.1809,5.1607,5.1293,5.1083,5.1058,5.1069,5.1025,5.0972,5.1008,5.1047,5.1108,5.1122,5.1014,5.0918,5.0859,5.0789,4.5886,4.5988,4.6765,4.7461,4.8229,4.8312,4.8409,4.8554,4.9811,5.0547,5.0565,5.0702,5.073,5.0748,5.0784,5.0749,5.073,5.0721,5.0721,5.0702,5.0683,5.0683,5.0683,5.0683,5.0683,5.0683,5.0683,5.0683,5.0683,5.0875,5.1221,5.1818,5.2038,5.2491,5.3164,5.3953,5.4376,5.4453,5.4876,5.5222,5.5607,5.5684,5.5684,5.5684,5.5684,5.5684,5.5684,5.5684,5.5684,5.5684,5.5738,5.5789,5.5939,5.6045,5.6135,5.6172,5.6122,5.6116,5.6128,5.6156,5.6177,5.6207,5.6207,5.6197,5.611,5.5959,5.5889,5.5863,5.588,5.5861,5.587,5.587,5.5861,5.5902,5.5993,5.6052,5.6147,5.6312,5.6458,5.6543,5.6582,5.6621,5.6621,5.6621,5.6621,5.6621,5.6621,5.6621,5.6582,5.6484,5.6426,5.6387,5.5879,5.5234,5.5047,5.4669,5.4183,5.3663,5.3027,5.2458,5.2196,5.1691,5.1126,5.1133,5.116,5.1133,5.1107,5.1145,5.1167,5.119,5.1186,5.1124,5.1049,5.099,5.0919,4.5742,4.5852,4.6115,4.6346,4.6595,4.7232,4.7529,4.7597,4.858,4.9413,5.0022,5.054,5.0821,5.0751,5.0919,5.0908,5.0766,5.0822,5.0782,5.0748,5.073,5.0757,5.0702,5.0748,5.0721,5.0683,5.0683,5.073,5.073,5.074,5.0779,5.1087,5.1453,5.204,5.2241,5.3078,5.3532,5.3549,5.3936,5.4687,5.536,5.5609,5.5684,5.5695,5.5695,5.5716,5.5726,5.5726,5.5705,5.5705,5.5798,5.5947,5.6109,5.6181,5.6191,5.6216,5.6242,5.6252,5.627,5.6313,5.6338,5.6361,5.6361,5.6361,5.6301,5.6164,5.6097,5.6071,5.6057,5.605,5.605,5.6044,5.605,5.6103,5.6167,5.6213,5.6249,5.6399,5.6539,5.6582,5.6601,5.6621,5.6621,5.6621,5.6621,5.6621,5.6621,5.6621,5.6621,5.6562,5.6543,5.6523,5.6543,5.6152,5.5957,5.5683,5.5137,5.4668,5.4101,5.3476,5.2832,5.2148,5.1533,5.1321,5.1247,5.1235,5.124,5.1286,5.131,5.1289,5.1275,5.124,5.1202,5.1124,5.1078,4.5957,4.6017,4.6061,4.608,4.6158,4.6604,4.6816,4.6947,4.7671,4.8298,4.8955,4.9868,5.0422,5.0558,5.0864,5.1003,5.0855,5.0966,5.0966,5.0889,5.0848,5.0894,5.0871,5.0848,5.0882,5.0879,5.0879,5.0874,5.0848,5.0871,5.0917,5.0891,5.1335,5.1539,5.1567,5.2213,5.2675,5.2655,5.2984,5.3763,5.4767,5.4949,5.5416,5.5521,5.573,5.5712,5.5835,5.5852,5.591,5.5967,5.6071,5.6161,5.6301,5.6368,5.6383,5.6386,5.6389,5.6367,5.6387,5.6426,5.6484,5.6484,5.6504,5.6484,5.6484,5.6355,5.6256,5.6237,5.6172,5.6135,5.6135,5.6135,5.6135,5.6169,5.6269,5.6345,5.6402,5.6495,5.6582,5.6601,5.6621,5.6621,5.6621,5.6621,5.6621,5.6621,5.6621,5.6621,5.6621,5.6621,5.6621,5.6621,5.6621,5.6601,5.6367,5.6191,5.5976,5.5547,5.5078,5.4355,5.3574,5.2656,5.1972,5.1933,5.1719,5.1321,5.1345,5.1484,5.1406,5.1348,5.1367,5.1365,5.1308,5.1269,5.123,4.6226,4.6288,4.6289,4.6289,4.6289,4.6308,4.6328,4.6426,4.6973,4.7327,4.7633,4.8902,4.9461,4.994,5.0566,5.0801,5.0967,5.1026,5.106,5.1069,5.1058,5.102,5.1031,5.1063,5.1042,5.1036,5.1042,5.1047,5.1036,5.1031,5.099,5.0959,5.0966,5.1004,5.1091,5.1427,5.1943,5.2042,5.2384,5.2957,5.3514,5.3972,5.465,5.5228,5.555,5.5618,5.5647,5.5715,5.5806,5.5775,5.566,5.5705,5.5897,5.5976,5.6191,5.6211,5.6445,5.6504,5.6582,5.6562,5.6582,5.6601,5.6621,5.6601,5.6582,5.6543,5.6426,5.6367,5.6308,5.6269,5.6269,5.6269,5.6269,5.6289,5.6387,5.6465,5.6523,5.6582,5.6601,5.6621,5.6621,5.6621,5.6621,5.6621,5.6621,5.6621,5.6621,5.6621,5.6621,5.6621,5.6621,5.6621,5.6621,5.6601,5.6582,5.6504,5.6348,5.6211,5.5703,5.5039,5.4316,5.3457,5.291,5.2773,5.248,5.2129,5.1816,5.1836,5.1699,5.1523,5.1387,5.1387,5.1387,5.1348,5.1367,4.6039,4.6167,4.6248,4.6289,4.6289,4.6289,4.6289,4.6308,4.6426,4.6523,4.6855,4.7539,4.8299,4.8956,4.9944,5.0342,5.042,5.0764,5.1059,5.1103,5.1144,5.1122,5.1122,5.1164,5.1108,5.1117,5.1135,5.1103,5.1141,5.1116,5.1089,5.1063,5.1069,5.1074,5.1067,5.1328,5.1414,5.1508,5.1579,5.2,5.268,5.3183,5.3708,5.4005,5.4031,5.4049,5.4066,5.4058,5.4069,5.4135,5.4355,5.4556,5.4844,5.5234,5.5469,5.5723,5.5996,5.6348,5.6387,5.6543,5.6562,5.6621,5.6621,5.6601,5.6601,5.6601,5.6543,5.6543,5.6484,5.6484,5.6484,5.6484,5.6484,5.6484,5.6562,5.6562,5.6582,5.6601,5.6601,5.6621,5.6621,5.6621,5.6621,5.6621,5.6621,5.6621,5.6621,5.6621,5.6621,5.6621,5.6621,5.6621,5.6621,5.6621,5.6601,5.6601,5.6504,5.6484,5.6367,5.5742,5.5078,5.4336,5.3887,5.3711,5.3496,5.3203,5.2891,5.2461,5.207,5.1875,5.1523,5.1387,5.1406,5.1387,5.1387]}]]